[[{"header":{"parameterUnit":"m.s-1","parameterCategory":1,"la1":31.0,"la2":29.5877,"lo1":-88.7671,"lo2":-86.6584,"dy":0.0162,"dx":0.0185,"nx":115,"ny":88,"refTime":"2023-04-30T12:00:00:Z","depth":0,"parameterNumber":2,"parameterNumberName":"U-component_of_WINDS"},"data":[0.0,0.0,0.0,0.0,0.0,0.0,0.0,0.0,0.0,0.0,0.0,0.0,0.0,0.0,0.0,0.0,0.0,0.0,0.0,0.0,0.0,0.0,0.0,0.0,0.0,0.0,0.0,0.0,0.0,0.0,0.0,0.0,0.0,0.0,0.0,0.0,0.0,0.0,0.0,0.0,0.0,0.0,0.0,0.0,0.0,0.0,0.0,0.0,0.0,0.0,0.0,0.0,0.0,0.0,0.0,0.0,0.0,0.0,0.0,0.0,0.0,0.0,0.0,0.0,0.0,0.0,0.0,0.0,0.0,0.0,0.0,0.0,0.0,0.0,0.0,0.0,0.0,0.0,0.0,0.0,0.0,0.0,0.0,0.0,0.0,0.0,0.0,0.0,0.0,0.0,0.0,0.0,0.0,0.0,0.0,0.0,0.0,0.0,0.0,0.0,0.0,0.0,0.0,0.0,0.0,0.0,0.0,0.0,0.0,0.0,0.0,0.0,0.0,0.0,0.0,0.0,0.0,0.0,0.0,0.0,0.0,0.0,0.0,0.0,0.0,0.0,0.0,0.0,0.0,0.0,0.0,0.0,0.0,0.0,0.0,0.0,0.0,0.0,0.0,0.0,0.0,0.0,0.0,0.0,0.0,0.0,0.0,0.0,0.0,0.0,0.0,0.0,0.0,0.0,0.0,0.0,0.0,0.0,0.0,0.0,0.0,0.0,0.0,0.0,0.0,0.0,0.0,0.0,0.0,0.0,0.0,0.0,0.0,0.0,0.0,0.0,0.0,0.0,0.0,0.0,0.0,0.0,0.0,0.0,0.0,0.0,0.0,0.0,0.0,0.0,0.0,0.0,0.0,0.0,0.0,0.0,0.0,0.0,0.0,0.0,0.0,0.0,0.0,0.0,0.0,0.0,0.0,0.0,0.0,0.0,0.0,0.0,0.0,0.0,0.0,0.0,0.0,0.0,0.0,0.0,0.0,0.0,0.0,0.0,0.0,0.0,0.0,0.0,0.0,0.0,0.0,0.0,0.0,0.0,0.0,0.0,0.0,0.0,0.0,0.0,0.0,0.0,0.0,0.0,0.0,0.0,0.0,0.0,0.0,0.0,0.0,0.0,0.0,0.0,0.0,0.0,0.0,0.0,0.0,0.0,0.0,0.0,0.0,0.0,0.0,0.0,0.0,0.0,0.0,0.0,0.0,0.0,0.0,0.0,0.0,0.0,0.0,0.0,0.0,0.0,0.0,0.0,0.0,0.0,0.0,0.0,0.0,0.0,0.0,0.0,0.0,0.0,0.0,0.0,0.0,0.0,0.0,0.0,0.0,0.0,0.0,0.0,0.0,0.0,0.0,0.0,0.0,0.0,0.0,0.0,0.0,0.0,0.0,0.0,0.0,0.0,0.0,0.0,0.0,0.0,0.0,0.0,0.0,0.0,0.0,0.0,0.0,0.0,0.0,0.0,0.0,0.0,0.0,0.0,0.0,0.0,0.0,0.0,0.0,0.0,0.0,0.0,0.0,0.0,0.0,0.0,0.0,0.0,0.0,0.0,0.0,0.0,0.0,0.0,0.0,0.0,0.0,0.0,0.0,0.0,0.0,0.0,0.0,0.0,0.0,0.0,0.0,0.0,0.0,0.0,0.0,0.0,0.0,0.0,0.0,0.0,0.0,0.0,0.0,0.0,0.0,0.0,0.0,0.0,0.0,0.0,0.0,0.0,0.0,0.0,0.0,0.0,0.0,0.0,0.0,0.0,0.0,0.0,0.0,0.0,0.0,0.0,0.0,0.0,0.0,0.0,0.0,0.0,0.0,0.0,0.0,0.0,0.0,0.0,0.0,0.0,0.0,0.0,0.0,0.0,0.0,0.0,0.0,0.0,0.0,0.0,0.0,0.0,0.0,0.0,0.0,0.0,0.0,0.0,0.0,0.0,0.0,0.0,0.0,0.0,0.0,0.0,0.0,0.0,0.0,0.0,0.0,0.0,0.0,0.0,0.0,0.0,0.0,0.0,0.0,0.0,0.0,0.0,0.0,0.0,0.0,0.0,0.0,0.0,0.0,0.0,0.0,0.0,0.0,0.0,0.0,0.0,0.0,0.0,0.0,0.0,0.0,0.0,0.0,0.0,0.0,0.0,0.0,0.0,0.0,0.0,0.0,0.0,0.0,0.0,0.0,0.0,0.0,0.0,0.0,0.0,0.0,0.0,0.0,0.0,0.0,0.0,0.0,0.0,0.0,0.0,0.0,0.0,0.0,0.0,0.0,0.0,0.0,0.0,0.0,0.0,0.0,0.0,0.0,0.0,0.0,0.0,0.0,0.0,0.0,0.0,0.0,0.0,0.0,0.0,0.0,0.0,0.0,0.0,0.0,0.0,0.0,0.0,0.0,0.0,0.0,0.0,0.0,0.0,0.0,0.0,0.0,0.0,0.0,0.0,0.0,0.0,0.0,0.0,0.0,0.0,0.0,0.0,0.0,0.0,0.0,0.0,0.0,0.0,0.0,0.0,0.0,0.0,0.0,0.0,0.0,0.0,0.0,0.0,0.0,0.0,0.0,0.0,0.0,0.0,0.0,0.0,0.0,0.0,0.0,0.0,0.0,0.0,0.0,0.0,0.0,0.0,0.0,0.0,0.0,0.0,0.0,0.0,0.0,0.0,0.0,0.0,0.0,0.0,0.0,0.0,0.0,0.0,0.0,0.0,0.0,0.0,0.0,0.0,0.0,0.0,0.0,0.0,0.0,0.0,0.0,0.0,0.0,0.0,0.0,0.0,0.0,0.0,0.0,0.0,0.0,0.0,0.0,0.0,0.0,0.0,0.0,0.0,0.0,0.0,0.0,0.0,0.0,0.0,0.0,0.0,0.0,0.0,0.0,0.0,0.0,0.0,0.0,0.0,0.0,0.0,0.0,0.0,0.0,0.0,0.0,0.0,0.0,0.0,0.0,0.0,0.0,0.0,0.0,0.0,0.0,0.0,0.0,0.0,0.0,0.0,0.0,0.0,0.0,0.0,0.0,0.0,0.0,0.0,0.0,0.0,0.0,0.0,0.0,0.0,0.0,0.0,0.0,0.0,0.0,0.0,0.0,0.0,0.0,0.0,0.0,0.0,0.0,0.0,0.0,0.0,0.0,0.0,0.0,0.0,0.0,0.0,0.0,0.0,0.0,0.0,0.0,0.0,0.0,0.0,0.0,0.0,0.0,0.0,0.0,0.0,0.0,0.0,0.0,0.0,0.0,0.0,0.0,0.0,0.0,0.0,0.0,0.0,0.0,0.0,0.0,0.0,0.0,0.0,0.0,0.0,0.0,0.0,0.0,0.0,0.0,0.0,0.0,0.0,0.0,0.0,0.0,0.0,0.0,0.0,0.0,0.0,0.0,0.0,0.0,0.0,0.0,0.0,0.0,0.0,0.0,0.0,0.0,0.0,0.0,0.0,0.0,0.0,0.0,0.0,0.0,0.0,0.0,0.0,0.0,0.0,0.0,0.0,0.0,0.0,0.0,0.0,0.0,0.0,0.0,0.0,0.0,0.0,0.0,0.0,0.0,0.0,0.0,0.0,0.0,0.0,0.0,0.0,0.0,0.0,0.0,0.0,0.0,0.0,0.0,0.0,0.0,0.0,0.0,0.0,0.0,0.0,0.0,0.0,0.0,0.0,0.0,0.0,0.0,0.0,0.0,0.0,0.0,0.0,0.0,0.0,0.0,0.0,0.0,0.0,0.0,0.0,0.0,0.0,0.0,0.0,0.0,0.0,0.0,0.0,0.0,0.0,0.0,0.0,0.0,0.0,0.0,0.0,0.0,0.0,0.0,0.0,0.0,0.0,0.0,0.0,0.0,0.0,0.0,0.0,0.0,0.0,0.0,0.0,0.0,0.0,0.0,0.0,0.0,0.0,0.0,0.0,0.0,0.0,0.0,0.0,0.0,0.0,0.0,0.0,0.0,0.0,0.0,0.0,0.0,0.0,0.0,0.0,0.0,0.0,0.0,0.0,0.0,0.0,0.0,0.0,0.0,0.0,0.0,0.0,0.0,0.0,0.0,0.0,0.0,0.0,0.0,0.0,0.0,0.0,0.0,0.0,0.0,0.0,0.0,0.0,0.0,0.0,0.0,0.0,0.0,0.0,0.0,0.0,0.0,0.0,0.0,0.0,0.0,0.0,0.0,0.0,0.0,0.0,0.0,0.0,0.0,0.0,0.0,0.0,0.0,0.0,0.0,0.0,0.0,0.0,0.0,0.0,0.0,0.0,0.0,0.0,0.0,0.0,0.0,0.0,0.8149,0.0,0.0,0.0,0.0,0.0,0.0,0.0,0.0,0.0,0.0,0.0,0.0,0.0,0.0,0.0,0.0,0.0,0.0,0.0,0.0,0.0,0.0,0.0,0.0,0.0,0.0,0.0,0.0,0.0,0.0,0.0,0.0,0.0,0.0,0.0,0.0,0.0,0.0,0.0,0.0,0.0,0.0,0.0,0.0,0.0,0.0,0.0,0.0,0.0,0.0,0.0,0.0,0.0,0.0,0.0,0.0,0.0,0.0,0.0,0.0,0.0,0.0,0.0,0.0,0.0,0.0,0.0,0.0,0.0,0.0,0.0,0.0,0.0,0.0,0.0,0.0,0.0,0.0,0.0,0.0,0.0,0.0,0.0,0.0,0.0,0.0,0.0,0.0,0.0,0.0,0.0,0.0,0.0,0.0,0.0,0.0,0.0,0.0,0.0,0.0,0.0,0.0,0.0,0.0,0.0,0.0,0.0,0.0,0.0,0.0,0.8282,0.8634,0.8634,0.8744,0.9007,0.0,0.0,0.0,0.0,0.0,0.0,0.0,0.0,0.0,0.0,0.0,0.0,0.0,0.0,0.0,0.0,0.0,0.0,0.0,0.0,0.0,0.0,0.0,0.0,0.0,0.0,0.0,0.0,0.0,0.0,0.0,0.0,0.0,0.0,0.0,0.0,0.0,0.0,0.0,0.0,0.0,0.0,0.0,0.0,0.0,0.0,0.0,0.0,0.0,0.0,0.0,0.0,0.0,0.0,0.0,0.0,0.0,0.0,0.0,0.0,0.0,0.0,0.0,0.0,0.0,0.0,0.0,0.0,0.0,0.0,0.0,0.0,0.0,0.0,0.0,0.0,0.0,0.0,0.0,0.0,0.0,0.0,0.0,0.0,0.0,0.0,0.0,0.0,0.0,0.0,0.0,0.0,0.0,0.0,0.0,0.0,0.0,0.0,0.0,0.0,0.0,0.0,0.0,0.0,0.0,0.0,0.0,0.0,0.0,0.0,0.0,0.0,0.9614,0.9646,0.9793,0.0,0.0,0.0,0.0,0.0,0.0,0.0,0.0,0.0,0.0,0.0,0.0,0.0,0.0,0.0,0.0,0.0,0.0,0.0,0.0,0.0,0.0,0.0,0.0,0.0,0.0,0.0,0.0,0.0,0.0,0.0,0.0,0.0,0.0,0.0,0.0,0.0,0.0,0.0,0.0,0.0,0.0,0.0,0.0,0.0,0.0,0.0,0.0,0.0,0.0,0.0,0.0,0.0,0.0,0.0,0.0,0.0,0.0,0.0,0.0,0.0,0.0,0.0,0.0,0.0,0.0,0.0,0.0,0.0,0.0,0.0,0.0,0.0,0.0,0.0,0.0,0.0,0.0,0.0,0.0,0.0,0.0,0.0,0.0,0.0,0.0,0.0,0.0,0.0,0.0,0.0,0.0,0.0,0.0,0.0,0.0,0.0,0.0,0.0,0.0,0.0,0.0,0.0,0.0,0.0,0.0,0.0,0.0,0.0,0.0,0.9556,0.9688,0.9662,0.0,1.0235,0.0,0.0,0.0,0.0,0.0,0.0,0.0,0.0,0.0,0.0,0.0,0.0,0.0,0.0,0.0,0.0,0.0,0.0,0.0,0.0,0.0,0.0,0.0,0.0,0.0,0.0,0.0,0.0,0.0,0.0,0.0,0.0,0.0,0.0,0.0,0.0,0.0,0.0,0.0,0.0,0.0,0.0,0.0,0.0,0.0,0.0,0.0,0.0,0.0,0.0,0.0,0.0,0.0,0.0,0.0,0.0,0.0,0.0,0.0,0.0,0.0,0.0,0.0,0.0,0.0,0.0,0.0,0.0,0.0,0.0,0.0,0.0,0.0,0.0,0.0,0.0,0.0,0.0,0.0,0.0,0.0,0.0,0.0,0.0,0.0,0.0,0.0,0.0,0.0,0.0,0.0,0.0,0.0,0.0,0.0,0.0,0.0,0.0,0.0,0.0,0.0,0.0,0.0,0.0,0.0,0.0,0.0,0.0,0.0,0.0,1.0505,1.0881,1.0819,1.082,0.0,0.0,0.0,0.0,0.0,0.0,0.0,0.0,0.0,0.0,0.0,0.0,0.0,0.0,0.0,0.0,0.0,0.0,0.0,0.0,0.0,0.0,0.0,0.0,0.0,0.0,0.0,0.0,0.0,0.0,0.0,0.0,0.0,0.0,0.0,0.0,0.0,0.0,0.0,0.0,0.0,0.0,0.0,0.0,0.0,0.0,0.0,0.0,0.0,0.0,0.0,0.0,0.0,0.0,0.0,0.0,0.0,0.0,0.0,0.0,0.0,0.0,0.0,0.0,0.0,0.0,0.0,0.0,0.0,0.0,0.0,0.0,0.0,0.0,0.0,0.0,0.0,0.0,0.0,0.0,0.0,0.0,0.0,0.0,0.0,0.0,0.0,0.0,0.0,0.0,0.0,0.0,0.0,0.0,0.0,0.0,0.0,0.0,0.0,0.0,0.0,0.0,0.0,0.0,0.0,0.0,0.0,0.0,0.0,0.0,1.0849,1.1325,1.1896,1.2058,1.2007,1.1823,0.0,0.0,0.0,0.0,0.0,0.0,0.0,0.0,0.0,0.0,0.0,0.0,0.0,0.0,0.0,0.0,0.0,0.0,0.0,0.0,0.0,0.0,0.0,0.0,0.0,0.0,0.0,0.0,0.0,0.0,0.0,0.0,0.0,0.0,0.0,0.0,0.0,0.0,0.0,0.0,0.0,0.0,0.0,0.0,0.0,0.0,0.0,0.0,0.0,0.0,0.0,0.0,0.0,0.0,0.0,0.0,0.0,0.0,0.0,0.0,0.0,0.0,0.0,0.0,0.0,0.0,0.0,0.0,0.0,0.0,0.0,0.0,0.0,0.0,0.0,0.0,0.0,0.0,0.0,0.0,0.0,0.0,0.0,0.0,0.0,0.0,0.0,0.0,0.0,0.0,0.0,0.0,0.0,0.0,0.0,0.0,0.0,0.0,0.0,0.0,0.0,0.0,0.0,0.0,0.0,0.0,0.0,0.0,1.0599,1.124,1.1881,1.2535,1.3128,1.3321,0.0,0.0,0.0,0.0,0.0,0.0,0.0,0.0,0.0,0.0,0.0,0.0,0.0,0.0,0.0,0.0,0.0,0.0,0.0,0.0,0.0,0.0,0.0,0.0,0.0,0.0,0.0,0.0,0.0,0.0,0.0,0.0,0.0,0.0,0.0,0.0,0.0,0.0,0.0,0.0,0.0,0.0,0.0,0.0,0.0,0.0,0.0,0.0,0.0,0.0,0.0,0.0,0.0,0.0,0.0,0.0,0.0,0.0,0.0,0.0,0.0,0.0,0.0,0.0,0.0,0.0,0.0,0.0,0.0,0.0,0.0,0.0,0.0,0.0,0.0,0.0,0.0,0.0,0.0,0.0,0.0,0.0,0.0,0.0,0.0,0.0,0.0,0.0,0.0,0.0,0.0,0.0,0.0,0.0,0.0,0.0,0.0,0.0,0.0,0.0,0.0,0.0,0.0,0.0,0.0,0.0,0.0,0.0,0.0,1.1191,1.191,1.2606,1.3207,1.3447,1.3435,0.0,0.0,0.0,0.0,0.0,0.0,0.0,0.0,0.0,0.0,0.0,0.0,0.0,0.0,0.0,0.0,0.0,0.0,0.0,0.0,0.0,0.0,0.0,0.0,0.0,0.0,0.0,0.0,0.0,0.0,0.0,0.0,0.0,0.0,0.0,0.0,0.0,0.0,0.0,0.0,0.0,0.0,0.0,0.0,0.0,0.0,0.0,0.0,0.0,0.0,0.0,0.0,0.0,0.0,0.0,0.0,0.0,0.0,0.0,0.0,0.0,0.0,0.0,0.0,0.0,0.0,0.0,0.0,0.0,0.0,0.0,0.0,0.0,0.0,0.0,0.0,0.0,0.0,0.0,0.0,0.0,0.0,0.0,0.0,0.0,0.0,0.0,0.0,0.0,0.0,0.0,0.0,0.0,0.0,0.0,0.0,0.0,0.0,0.0,0.0,0.0,0.0,0.0,0.0,0.0,0.0,0.0,0.0,0.0,1.1855,0.0,1.3545,1.3938,1.4092,1.4103,0.0,0.0,0.0,0.0,0.0,0.0,0.0,0.0,0.0,0.0,0.0,0.0,0.0,0.0,0.0,0.0,0.0,0.0,0.0,0.0,0.0,0.0,0.0,0.0,0.0,0.0,0.0,0.0,0.0,0.0,0.0,0.0,0.0,0.0,0.0,0.0,0.0,0.0,0.0,0.0,0.0,0.0,0.0,0.0,0.0,0.0,0.0,0.0,0.0,0.0,0.0,0.0,0.0,0.0,0.0,0.0,0.0,0.0,0.0,0.0,0.0,0.0,0.0,0.0,0.0,0.0,0.0,0.0,0.0,0.0,0.0,0.0,0.0,0.0,0.0,0.0,0.0,0.0,0.0,0.0,0.0,0.0,0.0,0.0,0.0,0.0,0.0,0.0,0.0,0.0,0.0,0.0,0.0,0.0,0.0,0.0,0.0,0.0,0.0,0.0,0.0,0.0,0.0,0.0,0.0,0.0,0.0,0.0,1.1698,1.2623,1.3934,1.4641,1.473,1.5095,1.53,0.0,0.0,0.0,0.0,0.0,0.0,0.0,0.0,0.0,0.0,0.0,0.0,0.0,0.0,0.0,0.0,0.0,0.0,0.0,0.0,0.0,0.0,0.0,0.0,0.0,0.0,0.0,0.0,0.0,0.0,0.0,0.0,0.0,0.0,0.0,0.0,0.0,0.0,0.0,0.0,0.0,0.0,0.0,0.0,0.0,0.0,0.0,0.0,0.0,0.0,0.0,0.0,0.0,0.0,0.0,0.0,0.0,0.0,0.0,0.0,0.0,0.0,0.0,0.0,0.0,0.0,0.0,0.0,0.0,0.0,0.0,0.0,0.0,0.0,0.0,0.0,0.0,0.0,0.0,0.0,0.0,0.0,0.0,0.0,0.0,0.0,0.0,0.0,0.0,0.0,0.0,0.0,0.0,0.0,0.0,0.0,0.0,0.0,0.0,0.0,0.0,0.0,0.0,0.0,0.0,0.0,0.0,0.0,0.0,1.3971,1.4411,1.4854,1.5298,1.5418,1.5418,0.0,0.0,0.0,0.0,0.0,0.0,0.0,0.0,0.0,0.0,0.0,0.0,0.0,0.0,0.0,0.0,0.0,0.0,0.0,0.0,0.0,0.0,0.0,0.0,0.0,0.0,0.0,0.0,0.0,0.0,0.0,0.0,0.0,0.0,0.0,0.0,0.0,0.0,0.0,0.0,0.0,0.0,0.0,0.0,0.0,0.0,0.0,0.0,0.0,0.0,0.0,0.0,0.0,0.0,0.0,0.0,0.0,0.0,0.0,0.0,0.0,0.0,0.0,0.0,0.0,0.0,0.0,0.0,0.0,0.0,0.0,0.0,0.0,0.0,0.0,0.0,0.0,0.0,0.0,0.0,0.0,0.0,0.0,0.0,0.0,0.0,0.0,0.0,0.0,0.0,0.0,0.0,0.0,0.0,0.0,0.0,0.0,0.0,0.0,0.0,0.0,0.0,0.0,0.0,0.0,0.0,0.0,0.0,0.0,1.5155,1.5271,1.5654,1.6336,1.6038,1.583,1.5708,0.0,0.0,0.0,0.0,0.0,0.0,0.0,0.0,0.0,0.0,0.0,0.0,0.0,0.0,0.0,0.0,0.0,0.0,0.0,0.0,0.0,0.0,0.0,0.0,0.0,0.0,0.0,0.0,0.0,0.0,0.0,0.0,0.0,0.0,0.0,0.0,0.0,0.0,0.0,0.0,0.0,0.0,0.0,0.0,0.0,0.0,0.0,0.0,0.0,0.0,0.0,0.0,0.0,0.0,0.0,0.0,0.0,0.0,0.0,0.0,0.0,0.0,0.0,0.0,0.0,0.0,0.0,0.0,0.0,0.0,0.0,0.0,0.0,0.0,0.0,0.0,0.0,0.0,0.0,0.0,0.0,0.0,0.0,0.0,0.0,0.0,0.0,0.0,0.0,0.0,0.0,0.0,0.0,0.0,0.0,0.0,0.0,0.0,0.0,0.0,0.0,0.0,0.0,0.0,0.0,0.0,0.0,0.0,1.6282,1.6503,1.6956,1.7525,1.6927,1.6539,0.0,0.0,0.0,0.0,0.0,0.0,0.0,0.0,0.0,0.0,0.0,0.0,0.0,0.0,0.0,0.0,0.0,0.0,0.0,0.0,0.0,0.0,0.0,0.0,0.0,0.0,0.0,0.0,0.0,0.0,0.0,0.0,0.0,0.0,0.0,0.0,0.0,0.0,0.0,0.0,0.0,0.0,0.0,0.0,0.0,0.0,0.0,0.0,0.0,0.0,0.0,0.0,0.0,0.0,0.0,0.0,0.0,0.0,0.0,0.0,0.0,0.0,0.0,0.0,0.0,0.0,0.0,0.0,0.0,0.0,0.0,0.0,0.0,0.0,0.0,0.0,0.0,0.0,0.0,0.0,0.0,0.0,0.0,0.0,0.0,0.0,0.0,0.0,0.0,0.0,0.0,0.0,0.0,0.0,0.0,0.0,0.0,0.0,0.0,0.0,0.0,0.0,0.0,0.0,0.0,0.0,0.0,0.0,0.0,1.7418,1.8226,1.8283,1.7611,1.7368,1.7246,0.0,0.0,0.0,0.0,0.0,0.0,0.0,0.0,0.0,0.0,0.0,0.0,0.0,0.0,0.0,0.0,0.0,0.0,0.0,0.0,0.0,0.0,0.0,0.0,0.0,0.0,0.0,0.0,0.0,0.0,0.0,0.0,0.0,0.0,0.0,0.0,0.0,0.0,0.0,0.0,0.0,0.0,0.0,0.0,0.0,0.0,0.0,0.0,0.0,0.0,0.0,0.0,0.0,0.0,0.0,0.0,0.0,0.0,0.0,0.0,0.0,0.0,0.0,0.0,0.0,0.0,0.0,0.0,0.0,0.0,0.0,0.0,0.0,0.0,0.0,0.0,0.0,0.0,0.0,0.0,0.0,0.0,0.0,0.0,0.0,0.0,0.0,0.0,0.0,0.0,0.0,0.0,0.0,0.0,0.0,0.0,0.0,0.0,0.0,0.0,0.0,0.0,0.0,0.0,0.0,0.0,0.0,0.0,1.6935,1.8264,1.9197,1.953,1.9097,1.8573,1.816,0.0,0.0,0.0,0.0,0.0,0.0,0.0,0.0,0.0,0.0,0.0,0.0,0.0,0.0,0.0,0.0,0.0,0.0,0.0,0.0,0.0,0.0,0.0,0.0,0.0,0.0,0.0,0.0,0.0,0.0,0.0,0.0,0.0,0.0,0.0,0.0,0.0,0.0,0.0,0.0,0.0,0.0,0.0,0.0,0.0,0.0,0.0,0.0,0.0,0.0,0.0,0.0,0.0,0.0,0.0,0.0,0.0,0.0,0.0,0.0,0.0,0.0,0.0,0.0,0.0,0.0,0.0,0.0,0.0,0.0,0.0,0.0,0.0,0.0,0.0,0.0,0.0,0.0,0.0,0.0,0.0,0.0,0.0,0.0,0.0,0.0,0.0,0.0,0.0,0.0,0.0,0.0,0.0,0.0,0.0,0.0,0.0,0.0,0.0,0.0,0.0,0.0,0.0,0.0,0.0,0.0,0.0,0.0,1.7555,1.8855,1.9778,2.0506,2.1111,2.0097,1.9221,0.0,0.0,0.0,0.0,0.0,0.0,0.0,0.0,0.0,0.0,0.0,0.0,0.0,0.0,0.0,0.0,0.0,0.0,0.0,0.0,0.0,0.0,0.0,0.0,0.0,0.0,0.0,0.0,0.0,0.0,0.0,0.0,0.0,0.0,0.0,0.0,0.0,0.0,0.0,0.0,0.0,0.0,0.0,0.0,0.0,0.0,0.0,0.0,0.0,0.0,0.0,0.0,0.0,0.0,0.0,0.0,0.0,0.0,0.0,0.0,0.0,0.0,0.0,0.0,0.0,0.0,0.0,0.0,0.0,0.0,0.0,0.0,0.0,0.0,0.0,0.0,0.0,0.0,0.0,0.0,0.0,0.0,0.0,0.0,0.0,0.0,0.0,0.0,0.0,0.0,0.0,0.0,0.0,0.0,0.0,0.0,0.0,0.0,0.0,0.0,0.0,0.0,0.0,0.0,0.0,0.0,0.0,0.0,1.8181,1.9581,2.0414,2.0983,2.1211,2.0421,1.9953,0.0,0.0,0.0,0.0,0.0,0.0,0.0,0.0,0.0,0.0,0.0,0.0,0.0,0.0,0.0,0.0,0.0,0.0,0.0,0.0,0.0,0.0,0.0,0.0,0.0,0.0,0.0,0.0,0.0,0.0,0.0,0.0,0.0,0.0,0.0,0.0,0.0,0.0,0.0,0.0,0.0,0.0,0.0,0.0,0.0,0.0,0.0,0.0,1.3457,0.0,0.0,0.0,0.0,0.0,0.0,0.0,0.0,0.0,0.0,0.0,0.0,0.0,0.0,0.0,0.0,0.0,0.0,0.0,0.0,0.0,0.0,0.0,0.0,0.0,0.0,0.0,0.0,0.0,0.0,0.0,0.0,0.0,0.0,0.0,0.0,0.0,0.0,0.0,0.0,0.0,0.0,0.0,0.0,0.0,0.0,0.0,0.0,0.0,0.0,0.0,0.0,0.0,0.0,0.0,0.0,0.0,0.0,0.0,1.8369,2.0059,2.0666,2.1108,2.1452,2.0884,2.0418,0.0,0.0,0.0,0.0,0.0,0.0,0.0,0.0,0.0,0.0,0.0,0.0,0.0,0.0,0.0,0.0,0.0,0.0,0.0,0.0,0.0,0.0,0.0,0.0,0.0,0.0,0.0,0.0,0.0,0.0,0.0,0.0,0.0,0.0,0.0,0.0,0.0,0.0,0.0,0.0,0.0,0.0,0.0,0.0,0.0,0.0,0.0,0.0,0.0,0.0,0.0,0.0,0.0,0.0,0.0,0.0,0.0,0.0,0.0,0.0,0.0,0.0,0.0,0.0,0.0,0.0,0.0,0.0,0.0,0.0,0.0,0.0,0.0,0.0,0.0,0.0,0.0,0.0,0.0,0.0,0.0,0.0,0.0,0.0,0.0,0.0,0.0,0.0,0.0,0.0,0.0,0.0,0.0,0.0,0.0,0.0,0.0,0.0,0.0,0.0,0.0,0.0,0.0,0.0,0.0,0.0,0.0,1.7154,1.8506,2.0387,2.0599,2.104,2.1773,2.1252,2.0727,2.0078,0.0,0.0,0.0,0.0,0.0,0.0,0.0,0.0,0.0,0.0,0.0,0.0,0.0,0.0,0.0,0.0,0.0,0.0,0.0,0.0,0.0,0.0,0.0,0.0,0.0,0.0,0.0,0.0,0.0,0.0,0.0,0.0,0.0,0.0,0.0,0.0,0.0,0.0,1.2978,1.3434,0.0,0.0,0.0,0.0,0.0,0.0,0.0,0.0,1.3362,0.0,0.0,0.0,0.0,0.0,0.0,0.0,0.0,0.0,0.0,0.0,0.0,0.0,0.0,0.0,0.0,0.0,0.0,0.0,0.0,0.0,0.0,0.0,0.0,0.0,0.0,0.0,0.0,0.0,0.0,0.0,0.0,0.0,0.0,0.0,0.0,0.0,0.0,0.0,0.0,0.0,0.0,0.0,0.0,0.0,0.0,0.0,0.0,0.0,0.0,0.0,0.0,0.0,0.0,0.0,0.0,1.6645,1.7664,1.8887,2.0358,2.0599,2.104,2.1773,2.1294,2.0616,1.9878,0.0,0.0,0.0,0.0,0.0,0.0,0.0,0.0,0.0,0.0,0.0,0.0,0.0,0.0,0.0,0.0,0.0,0.0,0.0,0.0,0.0,0.0,0.0,0.0,0.0,0.0,0.0,0.0,0.0,0.0,0.0,0.0,0.0,0.0,0.0,0.0,0.0,0.0,0.0,1.3731,1.4147,0.0,0.0,0.0,0.0,0.0,0.0,0.0,0.0,1.3025,0.0,0.0,0.0,0.0,0.0,0.0,0.0,0.0,0.0,0.0,0.0,0.0,0.0,0.0,0.0,0.0,0.0,0.0,0.0,0.0,0.0,0.0,0.0,0.0,0.0,0.0,0.0,0.0,0.0,0.0,0.0,0.0,0.0,0.0,0.0,0.0,0.0,0.0,0.0,0.0,0.0,0.0,0.0,0.0,0.0,0.0,0.0,0.0,0.0,0.0,0.0,0.0,0.0,0.0,0.0,1.6746,1.8037,1.9252,2.0273,2.0472,2.077,2.1112,2.0666,2.0033,0.0,0.0,0.0,0.0,0.0,0.0,0.0,0.0,0.0,0.0,0.0,0.0,0.0,0.0,0.0,0.0,0.0,0.0,0.0,0.0,0.0,0.0,0.0,0.0,0.0,0.0,0.0,0.0,0.0,0.0,0.0,0.0,0.0,0.0,0.0,0.0,0.0,0.0,0.0,0.0,1.3918,1.4093,1.4093,0.0,0.0,0.0,0.0,0.0,0.0,1.3707,1.3432,0.0,0.0,0.0,0.0,0.0,0.0,0.0,0.0,0.0,0.0,0.0,0.0,0.0,0.0,0.0,0.0,0.0,0.0,0.0,0.0,0.0,0.0,0.0,0.0,0.0,0.0,0.0,0.0,0.0,0.0,0.0,0.0,0.0,0.0,0.0,0.0,0.0,0.0,0.0,0.0,0.0,0.0,0.0,0.0,0.0,0.0,0.0,0.0,0.0,0.0,0.0,0.0,0.0,0.0,0.0,1.6871,1.8207,1.928,2.01,2.0231,2.0359,2.0514,2.0043,1.9444,0.0,0.0,0.0,0.0,0.0,0.0,0.0,0.0,0.0,0.0,0.0,0.0,0.0,0.0,0.0,0.0,0.0,0.0,0.0,0.0,0.0,0.0,0.0,0.0,0.0,0.0,0.0,0.0,0.0,0.0,0.0,0.0,0.0,0.0,0.0,0.0,0.0,0.0,0.0,0.0,0.0,1.3994,1.41,1.4195,0.0,0.0,0.0,0.0,1.4348,1.4124,0.0,0.0,0.0,0.0,0.0,0.0,0.0,0.0,0.0,0.0,0.0,0.0,0.0,0.0,0.0,0.0,0.0,0.0,0.0,0.0,0.0,0.0,0.0,0.0,0.0,0.0,0.0,0.0,0.0,0.0,0.0,0.0,0.0,0.0,0.0,0.0,0.0,0.0,0.0,0.0,0.0,0.0,0.0,0.0,0.0,0.0,0.0,0.0,0.0,0.0,0.0,0.0,0.0,0.0,0.0,0.0,1.7417,1.7826,1.8658,1.9871,1.9754,1.9865,2.0444,2.0043,1.9404,0.0,0.0,0.0,0.0,0.0,0.0,0.0,0.0,0.0,0.0,0.0,0.0,0.0,0.0,0.0,0.0,0.0,0.0,0.0,0.0,0.0,0.0,0.0,0.0,0.0,0.0,0.0,0.0,0.0,0.0,0.0,0.0,0.0,0.0,0.0,0.0,0.0,0.0,0.0,0.0,0.0,1.3957,1.4377,1.4539,1.4786,0.0,0.0,1.5081,1.4904,1.4695,0.0,0.0,0.0,0.0,0.0,0.0,0.0,0.0,0.0,0.0,0.0,0.0,0.0,0.0,0.0,0.0,0.0,0.0,0.0,0.0,0.0,0.0,0.0,0.0,0.0,0.0,0.0,0.0,0.0,0.0,0.0,0.0,0.0,0.0,0.0,0.0,0.0,0.0,0.0,0.0,0.0,0.0,0.0,0.0,0.0,0.0,0.0,0.0,0.0,0.0,0.0,0.0,0.0,0.0,0.0,1.7113,1.7343,1.7947,1.8762,1.9724,1.939,1.9489,2.0187,1.9376,1.8691,0.0,0.0,0.0,0.0,0.0,0.0,0.0,0.0,0.0,0.0,0.0,0.0,0.0,0.0,0.0,0.0,0.0,0.0,0.0,0.0,0.0,0.0,0.0,0.0,0.0,0.0,0.0,0.0,0.0,0.0,0.0,0.0,0.0,0.0,0.0,0.0,0.0,0.0,0.0,0.0,0.0,0.0,1.4737,1.4923,0.0,0.0,0.0,1.5508,1.5252,0.0,0.0,0.0,0.0,0.0,0.0,0.0,0.0,0.0,0.0,0.0,0.0,0.0,0.0,0.0,0.0,0.0,0.0,0.0,0.0,0.0,0.0,0.0,0.0,0.0,0.0,0.0,0.0,0.0,0.0,0.0,0.0,0.0,0.0,0.0,0.0,0.0,0.0,0.0,0.0,0.0,0.0,0.0,0.0,0.0,0.0,0.0,0.0,0.0,0.0,0.0,0.0,0.0,0.0,0.0,0.0,0.0,1.7047,1.7903,1.8745,1.953,1.9049,1.915,1.9855,1.8755,0.0,0.0,0.0,0.0,0.0,0.0,0.0,0.0,0.0,0.0,0.0,0.0,0.0,0.0,0.0,0.0,0.0,0.0,0.0,0.0,0.0,0.0,0.0,0.0,0.0,0.0,0.0,1.3227,0.0,0.0,0.0,0.0,0.0,0.0,0.0,0.0,0.0,0.0,0.0,0.0,0.0,0.0,1.4533,1.5038,1.5173,1.5268,0.0,0.0,1.5856,1.5558,1.5447,1.5223,0.0,0.0,0.0,0.0,0.0,0.0,0.0,0.0,0.0,0.0,0.0,0.0,0.0,0.0,0.0,0.0,0.0,0.0,0.0,0.0,0.0,0.0,0.0,0.0,0.0,0.0,0.0,0.0,0.0,0.0,0.0,0.0,0.0,0.0,0.0,0.0,0.0,0.0,0.0,0.0,0.0,0.0,0.0,0.0,0.0,0.0,0.0,0.0,0.0,0.0,0.0,0.0,0.0,0.0,0.0,1.6566,1.7462,1.8349,1.9171,1.8684,1.8806,1.9564,1.8521,1.7842,0.0,0.0,0.0,0.0,0.0,0.0,0.0,0.0,0.0,0.0,0.0,0.0,0.0,0.0,0.0,0.0,0.0,0.0,0.0,0.0,0.0,0.0,0.0,0.0,0.0,0.0,0.0,0.0,0.0,0.0,0.0,0.0,0.0,0.0,0.0,0.0,0.0,0.0,0.0,0.0,0.0,1.4687,1.5273,1.5389,1.5497,0.0,0.0,1.6005,1.5874,1.5738,1.5565,1.5235,0.0,0.0,0.0,0.0,0.0,0.0,0.0,0.0,0.0,0.0,0.0,0.0,0.0,0.0,0.0,0.0,0.0,0.0,0.0,0.0,0.0,0.0,0.0,0.0,0.0,0.0,0.0,0.0,0.0,0.0,0.0,0.0,0.0,0.0,0.0,0.0,0.0,0.0,0.0,0.0,0.0,0.0,0.0,0.0,0.0,0.0,0.0,0.0,0.0,0.0,0.0,0.0,0.0,1.6318,1.6311,1.7068,1.7854,1.8734,1.8286,1.8323,1.9144,1.8057,1.7406,0.0,0.0,0.0,0.0,0.0,0.0,0.0,0.0,0.0,0.0,0.0,0.0,0.0,0.0,0.0,0.0,0.0,0.0,0.0,0.0,0.0,0.0,0.0,0.0,0.0,0.0,0.0,0.0,1.3409,1.3286,1.2997,0.0,0.0,0.0,0.0,0.0,0.0,0.0,0.0,0.0,0.0,1.5094,1.5649,1.5709,0.0,0.0,1.5972,1.5951,1.5798,1.5604,1.543,1.5156,1.5068,0.0,0.0,0.0,0.0,0.0,0.0,0.0,0.0,0.0,0.0,0.0,0.0,0.0,0.0,0.0,0.0,0.0,0.0,0.0,0.0,0.0,0.0,0.0,0.0,0.0,0.0,0.0,0.0,0.0,0.0,0.0,0.0,0.0,0.0,0.0,0.0,0.0,0.0,0.0,0.0,0.0,0.0,0.0,0.0,0.0,0.0,0.0,0.0,0.0,0.0,0.0,0.0,1.6306,1.6548,1.7029,1.7738,1.8643,1.824,1.8257,1.8642,1.7738,1.7127,0.0,0.0,0.0,0.0,0.0,0.0,0.0,0.0,0.0,0.0,0.0,0.0,0.0,0.0,0.0,0.0,0.0,0.0,0.0,0.0,0.0,0.0,0.0,0.0,0.0,0.0,0.0,0.0,1.3407,1.3244,1.2719,0.0,0.0,0.0,0.0,0.0,0.0,0.0,0.0,0.0,0.0,1.5268,1.5642,1.5682,1.5682,1.5624,1.5781,1.5822,1.5684,1.5663,1.5581,1.5279,0.0,0.0,0.0,0.0,0.0,0.0,0.0,0.0,0.0,0.0,0.0,0.0,0.0,0.0,0.0,0.0,0.0,0.0,0.0,0.0,0.0,0.0,0.0,0.0,0.0,0.0,0.0,0.0,0.0,0.0,1.5439,0.0,0.0,0.0,0.0,0.0,0.0,0.0,0.0,0.0,0.0,0.0,0.0,0.0,0.0,0.0,0.0,0.0,0.0,0.0,0.0,0.0,0.0,1.6578,1.7364,1.7599,1.8092,1.8759,1.8784,1.8585,1.8229,1.7626,1.7074,1.6547,0.0,0.0,0.0,0.0,0.0,0.0,0.0,0.0,0.0,0.0,0.0,0.0,0.0,0.0,0.0,0.0,0.0,0.0,0.0,0.0,0.0,0.0,0.0,0.0,0.0,0.0,1.321,1.3392,1.3292,0.0,0.0,0.0,0.0,0.0,0.0,0.0,0.0,0.0,0.0,1.4696,1.502,1.5215,1.5215,1.5176,1.5058,1.5501,1.577,1.5628,1.5908,1.6083,0.0,0.0,0.0,0.0,0.0,0.0,0.0,0.0,0.0,0.0,0.0,0.0,0.0,0.0,0.0,0.0,0.0,0.0,0.0,0.0,0.0,0.0,0.0,0.0,0.0,0.0,0.0,1.6851,1.6609,0.0,0.0,0.0,0.0,0.0,0.0,0.0,0.0,0.0,0.0,0.0,1.7304,1.7257,0.0,0.0,0.0,0.0,0.0,0.0,0.0,0.0,0.0,0.0,0.0,0.0,1.6426,1.7338,1.7726,1.8115,1.8534,1.8533,1.8485,1.8437,1.7548,1.6831,1.62,0.0,0.0,0.0,0.0,0.0,0.0,0.0,0.0,0.0,0.0,0.0,0.0,0.0,0.0,0.0,0.0,0.0,0.0,0.0,0.0,0.0,0.0,0.0,0.0,0.0,1.35,0.0,0.0,0.0,0.0,0.0,0.0,0.0,0.0,0.0,0.0,0.0,1.375,1.3807,1.4347,1.4758,1.5037,1.5074,1.5167,0.0,0.0,0.0,0.0,0.0,0.0,0.0,0.0,0.0,0.0,0.0,0.0,0.0,0.0,1.4609,1.4095,1.3733,1.353,1.3545,0.0,0.0,0.0,0.0,0.0,0.0,0.0,0.0,0.0,0.0,0.0,0.0,0.0,0.0,0.0,0.0,1.7327,0.0,0.0,0.0,0.0,0.0,0.0,0.0,0.0,1.7142,1.7337,1.7654,1.7654,1.7605,0.0,1.7533,1.7123,0.0,0.0,0.0,0.0,0.0,0.0,0.0,0.0,1.729,1.7946,1.7939,1.8127,1.8497,1.8545,1.8449,1.8307,1.7219,1.6378,1.5804,1.5603,1.5468,0.0,0.0,0.0,0.0,0.0,0.0,0.0,0.0,0.0,0.0,0.0,0.0,0.0,0.0,0.0,0.0,0.0,0.0,0.0,0.0,0.0,0.0,0.0,1.3513,0.0,0.0,0.0,0.0,0.0,0.0,0.0,0.0,0.0,1.3037,1.3402,1.3714,1.3856,1.4225,1.4653,1.4989,0.0,0.0,0.0,0.0,0.0,0.0,0.0,1.5574,1.541,1.5377,1.5455,1.5518,1.553,1.5451,1.5312,0.0,0.0,1.4261,1.3893,1.3615,1.352,1.3273,1.2977,1.2811,1.2625,1.2527,0.0,0.0,0.0,0.0,0.0,0.0,0.0,0.0,1.8714,1.8316,0.0,1.7676,0.0,0.0,0.0,0.0,0.0,1.7436,0.0,0.0,1.746,1.746,1.7508,1.7556,1.7532,1.7484,1.7483,1.7508,1.7411,1.7411,0.0,0.0,0.0,0.0,0.0,0.0,1.8982,1.8955,1.8253,1.8215,1.8762,1.8786,1.8495,1.7796,1.6639,1.58,1.5336,1.5176,1.4971,1.4651,1.4627,0.0,0.0,0.0,0.0,0.0,0.0,0.0,0.0,0.0,0.0,0.0,0.0,0.0,0.0,0.0,0.0,0.0,0.0,0.0,0.0,1.331,0.0,0.0,0.0,0.0,0.0,0.0,0.0,0.0,0.0,0.0,1.3424,1.3666,1.3926,1.4247,0.0,0.0,0.0,0.0,1.5068,1.5085,1.5451,1.5648,1.5547,1.5861,1.6085,1.601,0.0,0.0,1.5327,1.4955,1.4751,1.4673,1.4388,1.4266,1.4892,1.4584,1.4165,1.3738,1.3502,1.3292,1.2935,1.2747,1.2586,2.1713,0.0,0.0,0.0,0.0,1.936,1.9087,1.874,1.832,1.7941,1.7605,1.7484,0.0,0.0,0.0,0.0,0.0,0.0,1.7628,1.7989,1.8374,1.8734,1.9119,1.9504,1.9401,1.8959,1.8959,1.8715,1.8282,1.8177,1.7824,1.7289,0.0,0.0,0.0,0.0,1.89,1.8725,1.8495,1.849,1.8655,1.8572,1.8177,1.7462,1.6637,1.5969,1.5423,1.4875,1.4466,1.4208,1.4093,0.0,0.0,0.0,0.0,0.0,0.0,0.0,0.0,0.0,0.0,0.0,0.0,0.0,0.0,0.0,0.0,0.0,0.0,0.0,1.3459,1.3399,1.3429,0.0,0.0,0.0,0.0,0.0,0.0,0.0,0.0,0.0,1.3494,1.3586,1.3807,0.0,0.0,1.4362,1.4748,1.4799,1.4883,1.5135,0.0,0.0,0.0,1.5733,1.5863,1.5751,1.5668,1.5466,1.5098,1.4999,1.4972,1.4769,1.4572,1.4457,1.4593,1.4131,1.3694,1.3599,1.3553,1.3542,1.3572,1.3511,1.3411,2.2931,2.1434,2.1179,2.0961,2.0845,2.0505,2.0184,1.9837,1.9332,1.88,1.8298,1.7989,1.7716,1.7604,1.867,0.0,0.0,0.0,1.8778,1.9143,1.948,1.9817,2.0129,2.0361,2.028,1.988,1.9823,1.9545,1.9072,1.8904,1.8548,1.7977,0.0,0.0,1.7868,1.8372,1.8513,1.8232,1.8232,1.8255,1.8333,1.8193,1.7778,1.7096,1.6595,1.6063,1.5449,1.4947,1.4552,1.4278,1.4179,1.4132,0.0,0.0,0.0,0.0,0.0,0.0,0.0,0.0,0.0,0.0,0.0,1.2716,0.0,0.0,0.0,0.0,1.2967,1.3286,1.3561,1.356,0.0,0.0,0.0,0.0,0.0,0.0,0.0,1.3152,1.3275,1.3313,1.3384,1.3541,1.3779,1.4061,1.4128,1.4255,1.4757,0.0,1.4952,1.5292,1.5535,1.5589,1.5364,1.5462,1.5498,1.5248,1.5233,1.5101,1.4803,1.4713,1.4638,1.4569,1.4441,1.4307,1.4295,1.3918,1.3639,1.3732,1.3722,1.3762,1.373,1.3701,1.3725,2.4177,2.3632,2.3366,2.3044,2.2777,2.2428,2.2021,2.1579,2.1131,2.0411,1.9586,1.8907,1.8542,1.8417,1.9072,0.0,2.0217,2.0246,2.0366,2.0562,2.0577,2.0625,2.0625,2.0451,2.0369,2.0263,2.017,1.9971,1.969,1.9572,1.9358,1.9015,1.8714,1.8556,1.8533,1.823,1.7952,1.762,1.762,1.7665,1.7843,1.77,1.7335,1.6708,1.6535,1.6105,1.5384,1.5164,1.4934,1.4692,1.4639,1.4471,1.416,0.0,0.0,0.0,0.0,0.0,0.0,0.0,0.0,0.0,0.0,0.0,0.0,0.0,0.0,0.0,1.3055,0.0,1.3501,1.3655,0.0,0.0,0.0,1.3651,1.3333,1.3297,1.3178,1.2961,0.0,0.0,1.3264,0.0,1.378,1.4057,1.4096,1.4332,1.4977,1.504,1.5182,1.5388,1.5482,1.542,1.5265,1.5078,1.49,1.4684,1.4655,1.4587,1.446,1.4263,1.4174,1.4164,1.4193,1.4113,1.3944,1.3853,1.3853,1.3853,1.3841,1.3828,1.3652,1.3585,1.3668,2.6018,2.5706,2.5289,2.4168,2.2616,2.2185,2.169,2.1131,2.0677,2.0203,1.9762,1.9262,1.8708,1.8231,1.931,2.0216,2.0919,2.0427,2.0158,2.0239,2.0641,2.0831,2.0854,2.1195,2.1049,2.0349,2.0349,1.9901,1.9119,1.8999,1.8819,1.8555,1.8382,1.8137,1.7917,1.8014,1.7734,1.7014,1.7014,1.7092,1.7234,1.7179,1.7024,1.6804,1.6187,1.5792,1.5579,1.4961,1.4513,1.4247,1.4247,1.4222,1.4096,1.4083,0.0,0.0,0.0,0.0,0.0,0.0,0.0,0.0,0.0,1.2415,1.2287,0.0,1.2711,0.0,1.302,1.3408,1.3688,1.3606,0.0,0.0,1.342,1.3333,1.3065,1.3089,1.2961,1.2822,1.2884,1.3013,1.3252,1.3351,1.3525,1.3834,1.4106,1.4394,1.4558,1.4572,1.4602,1.4706,1.4914,1.4983,1.4743,1.4607,1.4517,1.4448,1.4372,1.4216,1.413,1.4128,1.4205,1.4214,1.4222,1.408,1.3886,1.3838,1.3838,1.3636,1.3766,1.3942,1.4039,1.4122,1.4096,2.6623,2.6233,2.5735,2.4822,2.3625,2.3306,2.283,2.2287,2.1858,2.1431,2.0912,2.0305,1.9878,1.9521,2.0419,2.1175,2.182,2.1487,2.1362,2.1385,2.1666,2.1719,2.1655,2.1892,2.1675,2.1141,2.1012,2.0618,1.9922,1.9576,1.9254,1.8997,1.885,1.8614,1.815,1.7637,1.7281,1.718,1.7281,1.7217,1.7105,1.7048,1.6848,1.6467,1.6105,1.5757,1.5568,1.5123,1.4763,1.454,1.4409,1.4334,1.4278,1.4126,1.4076,0.0,0.0,0.0,0.0,0.0,0.0,0.0,0.0,0.0,0.0,0.0,1.3037,0.0,1.3092,1.3262,1.3435,1.3323,1.321,1.3142,1.3224,1.316,1.288,1.2828,1.2769,1.2677,1.2769,1.2914,1.306,1.3144,1.32,1.328,1.3494,1.3763,1.4135,1.4106,1.4083,1.4209,1.4458,1.4406,1.4076,1.4045,1.3939,1.3814,1.3623,1.3498,1.3622,1.3689,1.3737,1.3683,1.3814,1.3838,1.3703,1.3738,1.3642,1.3437,1.3522,1.3796,1.4051,1.4202,1.4251,2.6632,2.6096,2.5589,2.5268,2.5073,2.4903,2.4476,2.3845,2.3537,2.2968,2.2259,2.1624,2.1417,2.1399,2.1747,2.2309,2.2803,2.2794,2.2798,2.2775,2.2798,2.2639,2.2434,2.2298,2.2092,2.1885,2.1768,2.149,2.1047,2.0525,2.0128,1.9831,1.9607,1.9228,1.8668,1.7296,1.7019,1.778,1.7801,1.7573,1.7259,1.7059,1.6655,1.611,1.609,1.5818,1.541,1.5294,1.5177,1.4961,1.4784,1.4606,1.4446,1.4194,1.407,0.0,1.3705,0.0,0.0,0.0,0.0,0.0,0.0,0.0,0.0,1.3333,1.3349,1.3463,1.3126,1.2938,1.2984,1.2936,1.2913,1.2699,1.2983,1.3019,1.2648,1.2574,1.2518,1.2606,1.2569,1.2596,1.2657,1.2751,1.2643,1.2527,1.2614,1.2831,1.3391,1.3517,1.3609,1.386,1.3886,1.3776,1.3366,1.3222,1.3138,1.2961,1.2803,1.2719,1.2974,1.3031,1.3108,1.3131,1.329,1.3426,1.3352,1.3352,1.3266,1.3008,1.3183,1.3435,1.3691,1.3959,1.4093,2.6889,2.6786,2.6274,2.5772,2.5453,2.529,2.4599,2.3537,2.3203,2.2887,2.2615,2.25,2.2432,2.2388,2.2321,2.2708,2.3372,2.2617,2.2183,2.2045,2.1976,2.1907,2.1699,2.1699,2.149,2.1118,2.1069,2.0786,2.0288,2.0206,2.0022,1.9808,1.9081,1.8644,1.8439,0.0,0.0,0.0,1.749,1.7036,1.6957,1.677,1.6449,1.6037,1.5897,0.0,1.5293,1.4961,1.4765,1.4606,1.4538,0.0,0.0,0.0,0.0,0.0,0.0,0.0,0.0,0.0,0.0,0.0,1.2875,1.2767,1.2584,1.2579,1.2765,1.3031,1.2697,1.2586,1.2913,1.2843,1.2722,1.2736,1.2762,1.2792,1.2557,1.2308,1.211,1.1976,1.183,1.1858,1.2028,1.1946,1.1885,1.207,1.198,1.1992,1.2116,1.2529,1.2905,1.2954,1.2954,1.2869,1.2625,1.2369,1.2279,1.217,1.2226,1.2242,1.2483,1.2723,1.2876,1.278,1.2931,1.2856,1.2662,1.2565,1.252,1.2422,1.2425,1.2577,1.3099,1.3371,1.3499,2.7314,0.0,2.6448,2.5995,0.0,2.5159,2.4543,2.3839,2.37,2.356,2.3279,2.3208,2.3254,2.3438,2.3041,2.2876,2.3014,2.2661,2.2402,2.2114,2.2136,2.1919,2.1627,2.1627,2.1481,2.1188,2.1188,2.104,2.067,2.028,2.0032,1.9811,1.9243,1.8774,1.8529,1.8347,1.81,1.8006,1.7514,1.7227,1.7031,1.6838,1.6434,1.5989,0.0,0.0,0.0,0.0,0.0,0.0,0.0,0.0,0.0,0.0,0.0,1.3565,1.349,1.3439,1.3302,1.3047,1.29,1.2732,1.2415,1.2389,1.2686,1.2732,1.2802,1.3028,1.2682,1.251,1.2656,1.2402,1.2258,1.2258,1.2226,1.2074,1.1914,1.1594,1.1479,1.1351,1.121,1.1134,1.1376,1.1155,1.1027,1.1133,1.0982,1.0906,1.0906,1.1499,1.2015,1.2015,1.2015,1.1929,1.1757,1.1499,1.1369,1.142,1.1415,1.1435,1.1758,1.19,1.198,1.198,1.198,1.198,1.1883,1.1785,1.1757,1.1773,1.1782,1.1747,1.1954,1.2452,1.2842,2.7508,2.7212,2.6406,2.6041,2.5722,2.5005,2.4549,2.4379,0.0,0.0,0.0,2.3666,2.3756,2.4016,2.3512,2.2818,2.2222,2.2616,2.2671,2.2303,2.2303,2.2116,2.1814,2.1814,2.1737,2.1504,2.1504,2.1348,2.1192,2.0582,2.0213,1.9965,1.9616,1.918,1.8788,1.8471,1.797,1.7492,1.7555,1.7453,1.7111,1.6853,1.6477,1.5873,1.5854,1.5642,1.531,1.5245,1.5033,1.4772,1.462,1.4363,1.4013,1.3778,1.3656,1.355,1.3505,1.3397,1.3272,1.3066,1.2829,1.2388,1.1986,1.2043,1.2803,1.2883,1.2883,1.287,1.2565,1.2313,1.2234,1.1962,1.1664,1.1664,1.1456,1.1246,1.1083,1.0827,1.0677,1.0669,1.0542,1.0434,1.0605,1.0279,1.0028,0.9941,0.9854,0.9795,0.9911,1.0542,1.1152,1.1152,1.1163,1.1055,1.0871,1.0569,1.0465,1.0654,1.0565,1.0632,1.0969,1.11,1.11,1.11,1.11,1.11,1.1002,1.1002,1.0987,1.0923,1.0981,1.1054,1.0856,1.135,1.1882,2.6935,2.6661,2.6387,2.606,2.5678,2.5608,2.5333,2.4857,2.4026,2.3666,2.3593,2.3446,2.3438,2.3624,2.3045,2.2221,2.1419,2.1941,2.2081,0.0,2.1906,2.189,2.1843,2.1762,2.168,2.1516,2.1516,2.137,2.1148,2.0766,2.0556,2.0438,2.0036,1.9637,1.9182,1.83,1.7635,1.7436,1.7134,1.7081,1.7188,1.665,1.6136,1.5744,1.5627,1.5384,1.4985,1.4675,1.4378,1.4115,1.4125,1.4087,1.395,1.402,1.396,1.3726,1.3677,1.3471,1.2897,1.2539,1.2184,1.1734,1.1675,1.1747,1.1938,1.1994,1.1994,1.1994,1.1778,1.1594,1.1364,1.1396,1.1261,1.1023,1.0847,1.0706,1.06,1.0353,1.0115,1.0077,0.973,0.9479,0.9524,0.9165,0.8894,0.8807,0.8807,0.8865,0.9063,0.9768,1.0314,1.0404,1.0404,1.0314,1.007,0.9888,0.9785,0.9947,0.9926,0.9965,1.0342,1.0413,1.0413,1.0511,1.0413,1.0413,1.0216,1.0216,1.0162,1.0219,1.0144,1.0047,1.0233,1.0233,1.0359,2.7152,2.6869,2.6433,2.5926,2.5554,2.5049,2.4679,2.4478,2.3729,2.371,2.4018,2.371,2.338,2.3126,2.2991,2.248,2.1768,2.2007,2.193,2.1644,2.1481,2.1332,2.1256,2.1108,2.1006,2.0941,2.0941,2.0857,2.0755,2.0569,2.0412,2.0311,1.9898,1.9288,1.8632,1.8353,1.7729,1.6765,1.6911,1.7033,1.6942,1.6694,1.6448,1.6114,1.5986,1.5774,1.5446,1.516,1.4872,1.4568,1.4579,1.4364,1.4004,1.3983,1.3754,1.3423,1.3333,1.3024,1.2538,1.2017,1.1562,1.1324,1.1165,1.1038,1.1015,1.1422,1.1672,1.1505,1.1338,1.1088,1.092,1.0763,1.0655,1.0409,1.0154,0.9941,0.9864,0.9515,0.9297,0.9287,0.8874,0.8504,0.8682,0.8167,0.7753,0.7753,0.7753,0.779,0.7864,0.8313,0.891,0.9362,0.9453,0.94,0.9233,0.897,0.8974,0.9208,0.908,0.9139,0.9437,0.9517,0.9517,0.9517,0.9517,0.9517,0.932,0.9229,0.9276,0.9434,0.922,0.9133,0.9275,0.9037,0.9154,2.7185,2.6894,2.6287,2.5806,2.5458,2.46,2.4288,2.4207,2.3801,2.3882,2.4185,2.3752,2.3182,2.2696,2.2798,2.2574,2.2063,2.1918,2.1665,2.1427,2.109,2.0959,2.0778,2.0522,2.0436,2.035,2.035,2.035,2.035,2.026,2.0189,1.9983,1.9418,1.882,1.8222,1.8481,1.7774,1.6323,1.6477,1.6669,1.6656,1.6572,1.6446,1.6201,1.6065,1.5835,1.5605,1.5451,1.5142,1.4754,1.4754,1.4472,1.3915,1.3756,1.348,1.3078,1.2946,1.2646,1.2075,1.1475,1.1068,1.0895,1.0636,1.0386,1.0212,1.0809,1.1154,1.0982,1.0875,1.0626,1.0356,1.0193,0.997,0.9832,0.9411,0.9093,0.903,0.8674,0.8438,0.8442,0.79,0.7588,0.7631,0.721,0.6789,0.6782,0.6782,0.6795,0.6834,0.6937,0.736,0.7913,0.8276,0.8419,0.8359,0.8128,0.8154,0.8328,0.8318,0.8365,0.8586,0.859,0.8627,0.8627,0.8627,0.8627,0.8528,0.8428,0.8362,0.8508,0.8479,0.8368,0.842,0.8152,0.8269,2.6445,2.6279,2.5986,2.5735,2.5441,2.4978,2.4788,2.4703,2.432,2.3978,2.377,2.3103,2.2696,2.2411,2.2369,2.206,2.146,2.1275,2.1165,2.1158,2.088,2.0729,2.0659,2.0604,2.0549,2.0335,2.0228,2.021,2.0193,1.9918,1.9765,1.973,1.8955,1.8539,1.8622,1.848,1.7667,1.6301,1.5376,1.5365,1.6174,1.5934,1.562,1.5374,1.5219,1.4987,1.4799,1.4599,1.4301,1.3881,1.3817,1.3705,1.3398,1.3356,1.3131,1.2771,1.2747,1.2322,1.1466,1.0971,1.0569,1.0376,1.0144,0.9979,0.9708,0.9699,0.9864,1.0057,1.0047,0.997,0.9689,0.9533,0.935,0.9139,0.8705,0.8405,0.8236,0.8109,0.7887,0.7611,0.7099,0.6672,0.6681,0.6186,0.5808,0.5808,0.5808,0.5836,0.5918,0.5951,0.6065,0.635,0.6904,0.7444,0.7486,0.7313,0.7334,0.7471,0.7595,0.7658,0.7828,0.797,0.8038,0.7939,0.8038,0.7932,0.7733,0.764,0.7629,0.7675,0.7675,0.7742,0.7968,0.7715,0.7826,2.6214,2.6,2.5487,2.5126,2.47,2.4358,2.4186,2.4013,2.3667,2.3426,2.3076,2.2746,2.2486,2.2446,2.236,2.2016,2.1429,2.1342,2.1153,2.0873,2.0588,2.0407,2.0184,1.9928,1.9745,1.9654,1.9471,1.9471,1.9347,1.9125,1.9134,1.9479,1.8536,1.7947,1.7902,1.8112,1.7311,1.5652,1.5198,1.5127,1.5404,1.5442,1.5403,1.5322,1.4999,1.4756,1.4607,1.4363,1.4036,1.3543,1.3543,1.3348,1.2962,1.271,1.2492,1.2394,1.2026,1.1568,1.085,1.049,1.0129,0.9768,0.9686,0.9505,0.9042,0.9042,0.9042,0.9034,0.9302,0.9374,0.9018,0.877,0.8535,0.8313,0.7959,0.7522,0.7389,0.712,0.6926,0.6744,0.6258,0.5904,0.5764,0.533,0.4928,0.483,0.4919,0.4942,0.498,0.4985,0.4985,0.4985,0.5345,0.5795,0.6245,0.6477,0.6532,0.6605,0.6795,0.6988,0.6997,0.7087,0.7036,0.7036,0.7036,0.7036,0.6936,0.6753,0.6715,0.6835,0.6845,0.6832,0.7038,0.6937,0.6826,2.6017,2.569,2.5114,2.4641,2.4203,2.385,2.3673,2.3477,2.3094,2.2777,2.2569,2.2336,2.2117,2.2061,2.2133,2.1953,2.1516,2.1352,2.1077,2.0692,2.0415,2.0045,1.9767,1.9301,1.9113,1.9004,1.8754,1.855,1.855,1.8346,1.8486,1.8627,1.7908,1.7254,1.6956,1.7267,1.6522,1.4849,1.463,1.4695,1.463,1.4737,1.4979,1.505,1.4725,1.4528,1.4345,1.401,1.3548,1.3052,1.304,1.2905,1.2388,1.2012,1.1861,1.1858,1.1212,1.0658,1.0288,0.9917,0.9545,0.9274,0.9088,0.8808,0.852,0.8333,0.8168,0.8008,0.8288,0.8451,0.8404,0.8052,0.7792,0.7645,0.7178,0.6709,0.6463,0.6272,0.6107,0.5848,0.5456,0.505,0.4829,0.4369,0.4032,0.3942,0.3942,0.3942,0.3939,0.3942,0.3942,0.3942,0.3942,0.43,0.5102,0.5589,0.5684,0.5789,0.5879,0.6005,0.5971,0.6001,0.5937,0.5937,0.5937,0.5937,0.5937,0.5751,0.5713,0.5917,0.5999,0.6028,0.6154,0.6047,0.5824,2.5785,2.5401,2.4906,2.448,2.4244,2.3782,2.3615,2.3428,2.2741,2.2224,2.2102,2.1777,2.1421,2.1145,2.1492,2.17,2.1605,2.1207,2.0808,2.0537,2.0264,1.991,1.9423,1.9146,1.8822,1.8566,1.8258,1.7978,1.7824,1.7838,1.757,1.7032,1.6758,1.6413,1.5901,1.5923,1.5153,1.379,1.3602,1.3683,1.3857,1.3616,1.382,1.4334,1.4278,1.3873,1.3586,1.3274,1.2808,1.2112,1.2254,1.2037,1.1515,1.1514,1.1354,1.0823,1.0204,0.9749,0.9664,0.9112,0.8636,0.8535,0.8284,0.798,0.782,0.7638,0.74,0.7106,0.7099,0.735,0.7638,0.7171,0.6917,0.6912,0.6549,0.6105,0.5698,0.5589,0.5413,0.4901,0.4536,0.4138,0.3539,0.3361,0.3249,0.3063,0.2964,0.2964,0.3057,0.3051,0.3051,0.3048,0.3045,0.3314,0.4129,0.4718,0.4876,0.4962,0.5079,0.5183,0.5121,0.5062,0.5005,0.4935,0.4935,0.4935,0.4935,0.4875,0.4953,0.5088,0.5255,0.5242,0.5262,0.515,0.4927,2.504,2.4249,2.397,2.3691,2.3392,2.3017,2.2753,2.2546,2.212,2.1742,2.1422,2.1315,2.0964,2.0605,2.0616,2.0654,2.0652,2.0249,1.986,1.9568,1.9275,1.8882,1.839,1.8094,1.7796,1.7598,1.7299,1.7,1.6814,1.66,1.64,1.6098,1.5595,1.5144,1.4932,1.4883,1.412,1.2713,1.252,1.264,1.2929,1.283,1.2881,1.2942,1.3123,1.3171,1.3003,1.245,1.1958,1.151,1.1413,1.1182,1.0847,1.0743,1.0386,0.9923,0.9556,0.9332,0.9131,0.8743,0.8258,0.7771,0.7576,0.7277,0.6991,0.6899,0.6623,0.6361,0.6174,0.6147,0.6126,0.6012,0.6028,0.6064,0.5579,0.5196,0.4926,0.4738,0.4433,0.4024,0.3601,0.3147,0.2954,0.281,0.2707,0.2614,0.252,0.2409,0.2477,0.247,0.2461,0.2431,0.2422,0.2601,0.278,0.365,0.4085,0.416,0.4242,0.4426,0.4377,0.4296,0.4228,0.4232,0.4232,0.4239,0.4145,0.413,0.4191,0.4072,0.4312,0.4355,0.4257,0.4145,0.4033,2.4431,2.3537,2.3327,2.3135,2.2751,2.2443,2.217,2.1959,2.1548,2.1159,2.0802,2.0651,2.0348,1.9852,1.9553,1.9331,1.933,1.92,1.9,1.8699,1.8383,1.7994,1.759,1.7184,1.6981,1.6777,1.6369,1.6061,1.5766,1.5548,1.5354,1.5045,1.4447,1.4207,1.423,1.4071,1.318,1.188,1.1372,1.1378,1.1786,1.1815,1.1678,1.1551,1.1677,1.1941,1.2156,1.1528,1.1027,1.075,1.0529,1.0314,1.0009,0.9652,0.934,0.8968,0.8667,0.8435,0.823,0.7932,0.7534,0.7036,0.6736,0.6537,0.6137,0.6032,0.5737,0.5541,0.5236,0.4935,0.4734,0.473,0.4834,0.4935,0.4734,0.4232,0.3934,0.3732,0.3531,0.3327,0.2924,0.2684,0.252,0.2491,0.2288,0.2004,0.1813,0.1705,0.1688,0.1681,0.1769,0.1745,0.1468,0.147,0.1753,0.2251,0.3011,0.3147,0.3512,0.3676,0.3704,0.3623,0.3528,0.3528,0.3534,0.3543,0.3485,0.3453,0.3417,0.3268,0.3319,0.3474,0.3365,0.3365,0.325,2.38,2.3267,2.332,2.285,2.2432,2.2013,2.1878,2.1492,2.1013,2.0427,2.0005,1.9649,1.9169,1.8755,1.829,1.7857,1.7711,1.8102,1.8206,1.7893,1.7607,1.7397,1.7068,1.6529,1.6212,1.6107,1.5743,1.5316,1.4866,1.4629,1.4201,1.3762,1.3371,1.3435,1.4155,1.3425,1.2417,1.0845,0.9965,0.9969,1.0457,1.0436,1.0367,1.0349,1.0216,1.0405,1.1086,1.0604,1.0157,0.9792,0.9647,0.9421,0.8849,0.8499,0.8322,0.7918,0.7534,0.7235,0.7135,0.6736,0.6437,0.6237,0.5837,0.5536,0.5436,0.5035,0.4638,0.4437,0.4135,0.393,0.3629,0.3327,0.333,0.3833,0.3729,0.3428,0.3027,0.2826,0.2725,0.2624,0.2324,0.2408,0.2365,0.2039,0.1637,0.1058,0.0769,0.0672,0.0668,0.0668,0.0668,0.0665,0.0472,0.0376,0.0572,0.087,0.1635,0.2216,0.2665,0.302,0.3017,0.2924,0.2924,0.2924,0.2924,0.2934,0.2902,0.2959,0.2793,0.2734,0.2662,0.2692,0.2692,0.2692,0.2692,2.2636,2.2232,2.2232,2.1928,2.1318,2.0893,2.0704,2.0483,1.9743,1.9361,1.9109,1.8518,1.8011,1.7542,1.6935,1.6311,1.5885,1.5873,1.6193,1.6617,1.6524,1.6099,1.5672,1.5458,1.5125,1.4589,1.4363,1.4051,1.363,1.3186,1.2861,1.2526,1.2045,1.2262,1.2842,1.2008,1.0692,0.9019,0.8646,0.8793,0.9346,0.9286,0.916,0.905,0.8853,0.8858,0.8907,0.9143,0.9259,0.9049,0.8721,0.828,0.772,0.7428,0.7129,0.6637,0.6542,0.6142,0.5842,0.5636,0.5336,0.5035,0.4738,0.4433,0.4232,0.393,0.3632,0.333,0.3229,0.3128,0.3027,0.2826,0.2826,0.3128,0.3027,0.2924,0.2624,0.2523,0.212,0.1515,0.1314,0.1309,0.1203,0.0993,0.0594,0.0297,-0.0099,-0.0296,-0.0293,-0.0389,-0.0386,-0.0383,-0.0573,-0.0767,-0.058,-0.0293,0.0195,0.0879,0.1493,0.2017,0.212,0.2221,0.2219,0.2122,0.2223,0.2249,0.2301,0.2238,0.2056,0.2088,0.2009,0.202,0.202,0.202,0.1908,2.142,2.0909,2.079,2.0483,2.0086,1.9672,1.9361,1.9138,1.8617,1.8199,1.7779,1.7252,1.6736,1.6299,1.5684,1.5041,1.4266,1.3846,1.3943,1.4589,1.4922,1.4708,1.4169,1.3954,1.363,1.3078,1.2861,1.2536,1.21,1.1773,1.1337,1.1017,1.068,1.0814,1.1296,1.0737,0.9428,0.7666,0.739,0.7559,0.7818,0.7868,0.7737,0.7515,0.7345,0.72,0.709,0.7425,0.773,0.7852,0.7534,0.7036,0.6537,0.6331,0.6037,0.5641,0.534,0.514,0.4738,0.4537,0.4336,0.3937,0.3732,0.3531,0.3428,0.3128,0.2927,0.2725,0.2624,0.2626,0.2526,0.1918,0.1721,0.1734,0.2332,0.2223,0.1918,0.1615,0.1313,0.0606,0.0303,0.0202,0.0101,-0.0,-0.0404,-0.0606,-0.101,-0.1411,-0.1395,-0.139,-0.1375,-0.1367,-0.1568,-0.1666,-0.1759,-0.1573,-0.1189,-0.0497,0.03,0.0806,0.1211,0.1312,0.1414,0.1115,0.1116,0.1033,0.1055,0.1178,0.1196,0.1216,0.1121,0.1121,0.1009,0.1009,0.1009,2.0132,1.9628,1.9301,1.9002,1.8674,1.8464,1.803,1.7582,1.7371,1.6935,1.6299,1.5873,1.5351,1.4934,1.4526,1.3867,1.2861,1.2137,1.1818,1.1937,1.2502,1.284,1.2663,1.2219,1.2001,1.1673,1.1345,1.0899,1.0672,1.0241,0.9809,0.9471,0.9251,0.9382,0.9632,0.9647,0.8387,0.6333,0.6151,0.6221,0.633,0.6353,0.609,0.5771,0.5757,0.5748,0.5744,0.5505,0.5836,0.6491,0.6173,0.566,0.5244,0.514,0.4939,0.4642,0.4236,0.4031,0.383,0.3531,0.333,0.3229,0.3027,0.2826,0.303,0.2725,0.2322,0.2019,0.212,0.2125,0.1823,0.1014,0.0204,-0.0,0.1131,0.1326,0.0203,-0.0101,-0.0304,-0.0304,-0.0608,-0.091,-0.0911,-0.0911,-0.1212,-0.1516,-0.2021,-0.2118,-0.2217,-0.221,-0.2318,-0.241,-0.2396,-0.2392,-0.2382,-0.2384,-0.21,-0.1802,-0.1107,-0.0605,-0.0,0.0303,0.0507,0.0306,-0.0,-0.0104,-0.0213,-0.0216,-0.0219,-0.0334,-0.0336,-0.0112,-0.0224,-0.0224,-0.0224,1.9189,1.8646,1.8537,1.8185,1.7593,1.7257,1.682,1.6324,1.5897,1.5363,1.4708,1.4169,1.3759,1.3078,1.3019,1.2346,1.138,1.058,1.0308,1.0115,1.0349,1.0899,1.116,1.0907,1.0476,1.0147,0.9941,0.9691,0.9361,0.8823,0.8484,0.8374,0.7709,0.7832,0.8301,0.8078,0.6604,0.4689,0.4342,0.4554,0.4997,0.4977,0.497,0.4856,0.4691,0.4557,0.4442,0.4069,0.4348,0.5352,0.4866,0.4526,0.4314,0.397,0.3745,0.3442,0.3234,0.303,0.2929,0.2831,0.2828,0.2826,0.2534,0.2526,0.2528,0.1819,0.1212,0.0707,0.0606,0.0611,0.0514,0.0103,-0.0624,-0.1581,-0.0421,0.021,-0.0627,-0.1439,-0.1938,-0.1876,-0.1951,-0.1941,-0.1947,-0.2041,-0.2228,-0.233,-0.2431,-0.2534,-0.2746,-0.2845,-0.2852,-0.2934,-0.3022,-0.3025,-0.3022,-0.3022,-0.2924,-0.2922,-0.2523,-0.2324,-0.1517,-0.091,-0.0714,-0.0617,-0.104,-0.1161,-0.161,-0.1963,-0.1992,-0.1569,-0.1682,-0.157,-0.1794,-0.1908,-0.1794,1.7772,1.7328,1.7105,1.6685,1.6208,1.5783,1.5315,1.4875,1.4418,1.3993,1.3576,1.3005,1.2358,1.1792,1.1716,1.1036,0.9905,0.883,0.8527,0.8679,0.8512,0.9023,0.9589,0.956,0.9222,0.8771,0.8426,0.817,0.7797,0.7337,0.698,0.6604,0.6154,0.6158,0.627,0.6391,0.5489,0.3916,0.3245,0.3248,0.4033,0.4145,0.3921,0.3804,0.3661,0.3534,0.3421,0.3174,0.3463,0.3947,0.3794,0.3566,0.3564,0.3223,0.2893,0.2686,0.2583,0.2583,0.2377,0.2067,0.1654,0.155,0.1447,0.1343,0.1241,0.0723,0.0207,-0.0207,-0.0724,-0.1039,-0.1153,-0.1268,-0.1812,-0.2475,-0.1949,-0.1514,-0.1711,-0.2316,-0.2626,-0.2643,-0.263,-0.2602,-0.2624,-0.2907,-0.2996,-0.3099,-0.3107,-0.321,-0.3313,-0.3303,-0.3503,-0.3699,-0.3805,-0.392,-0.403,-0.403,-0.392,-0.3911,-0.3696,-0.3485,-0.2764,-0.2046,-0.1755,-0.1671,-0.2002,-0.224,-0.2494,-0.2751,-0.2557,-0.2353,-0.2692,-0.2692,-0.2694,-0.2815,-0.2813,1.6179,1.5852,1.5285,1.5047,1.488,1.4127,1.3719,1.3335,1.299,1.2786,1.2487,1.2065,1.1273,1.064,1.0593,0.9824,0.8537,0.7137,0.6945,0.6965,0.6985,0.7317,0.7891,0.8055,0.7817,0.747,0.692,0.6628,0.6336,0.586,0.548,0.51,0.4852,0.4606,0.4613,0.4942,0.4484,0.3026,0.1903,0.1903,0.2688,0.2914,0.269,0.2354,0.2353,0.2237,0.2239,0.2345,0.2433,0.2576,0.2675,0.267,0.2564,0.2562,0.2339,0.2017,0.1906,0.1908,0.1914,0.106,0.0319,0.0106,-0.0106,-0.0319,-0.0424,-0.0529,-0.074,-0.1266,-0.2022,-0.2339,-0.2461,-0.2819,-0.3062,-0.3184,-0.3107,-0.3196,-0.3142,-0.3029,-0.2927,-0.279,-0.3024,-0.3122,-0.3216,-0.3412,-0.3613,-0.3776,-0.389,-0.4096,-0.4201,-0.4302,-0.4515,-0.4736,-0.4853,-0.4872,-0.5088,-0.5197,-0.5075,-0.4958,-0.4628,-0.4306,-0.3564,-0.2936,-0.2739,-0.2759,-0.2677,-0.2596,-0.2741,-0.2773,-0.2794,-0.2914,-0.3029,-0.2917,-0.2921,-0.3052,-0.3059,1.4831,1.4595,1.4124,1.379,1.3296,1.2892,1.2436,1.2074,1.1617,1.1273,1.0831,1.0409,0.9729,0.891,0.9292,0.869,0.7072,0.5827,0.553,0.573,0.5487,0.524,0.569,0.6077,0.6233,0.5886,0.5643,0.5276,0.5028,0.4674,0.4438,0.4183,0.3905,0.3774,0.3654,0.3503,0.2917,0.1121,0.0112,0.0112,0.056,0.0784,0.0672,0.0561,0.0561,0.0561,0.0561,0.0561,0.0559,0.0775,0.1095,0.1413,0.141,0.0967,0.0642,0.0427,0.0427,0.0426,0.032,0.0107,-0.0213,-0.0641,-0.1178,-0.1599,-0.213,-0.2028,-0.2125,-0.2431,-0.2757,-0.29,-0.3149,-0.3534,-0.3781,-0.3901,-0.4018,-0.4244,-0.4329,-0.3997,-0.3772,-0.3758,-0.3935,-0.4121,-0.4131,-0.4296,-0.4493,-0.4475,-0.4687,-0.5002,-0.5116,-0.5235,-0.5358,-0.5594,-0.5589,-0.5603,-0.5817,-0.5929,-0.5822,-0.5603,-0.5384,-0.5054,-0.4293,-0.3859,-0.3656,-0.335,-0.3043,-0.2964,-0.2992,-0.3003,-0.3026,-0.325,-0.3365,-0.326,-0.327,-0.3403,-0.3317,1.3195,1.2946,1.2586,1.2166,1.1836,1.139,1.1067,1.0771,1.0288,0.9821,0.9255,0.8953,0.8272,0.7313,0.8045,0.7573,0.5893,0.4841,0.4639,0.492,0.4681,0.4315,0.4189,0.4495,0.4567,0.4687,0.4694,0.4435,0.4172,0.3685,0.3317,0.2825,0.3034,0.2444,0.1739,0.1488,0.0909,-0.0113,-0.1238,-0.1682,-0.1682,-0.1681,-0.1457,-0.1345,-0.1233,-0.1233,-0.1234,-0.1234,-0.1234,-0.1231,-0.089,-0.0442,-0.0,-0.0219,-0.0655,-0.1201,-0.131,-0.131,-0.131,-0.1419,-0.1529,-0.1745,-0.2075,-0.2295,-0.2621,-0.2839,-0.2941,-0.3038,-0.3268,-0.351,-0.3865,-0.4114,-0.448,-0.4819,-0.5039,-0.5262,-0.5377,-0.4931,-0.4484,-0.4697,-0.4875,-0.497,-0.5166,-0.523,-0.5347,-0.5465,-0.5473,-0.5687,-0.57,-0.5814,-0.6023,-0.6141,-0.6236,-0.634,-0.6557,-0.6562,-0.6359,-0.6146,-0.5937,-0.5503,-0.4954,-0.4614,-0.4385,-0.396,-0.3529,-0.3434,-0.3461,-0.336,-0.3362,-0.3477,-0.3482,-0.3605,-0.3627,-0.3659,-0.358,1.139,1.1269,1.0664,1.0422,1.04,0.9919,0.9625,0.9499,0.9029,0.8432,0.7845,0.7585,0.6855,0.6141,0.7006,0.6403,0.4674,0.3812,0.3571,0.3697,0.3207,0.296,0.2833,0.2582,0.2701,0.3697,0.3441,0.3176,0.3032,0.2659,0.1805,0.119,0.1894,0.1182,-0.0353,-0.1513,-0.1615,-0.1728,-0.2513,-0.3065,-0.329,-0.34,-0.3172,-0.2817,-0.2705,-0.2699,-0.2697,-0.2692,-0.2807,-0.2807,-0.3031,-0.258,-0.1794,-0.1234,-0.1346,-0.2578,-0.2569,-0.2565,-0.2563,-0.2794,-0.2908,-0.3143,-0.2914,-0.2912,-0.3022,-0.3126,-0.3342,-0.3681,-0.4015,-0.4463,-0.4927,-0.515,-0.5485,-0.5819,-0.5931,-0.6158,-0.627,-0.5712,-0.5601,-0.5485,-0.5579,-0.5682,-0.5802,-0.6001,-0.6144,-0.6386,-0.6386,-0.6386,-0.6497,-0.6487,-0.6564,-0.6659,-0.6748,-0.6738,-0.6848,-0.6963,-0.6759,-0.6559,-0.6362,-0.6038,-0.5708,-0.5456,-0.5103,-0.4457,-0.4136,-0.4033,-0.3921,-0.381,-0.3813,-0.3703,-0.3839,-0.3978,-0.4011,-0.3925,-0.3969,0.9943,0.97,0.9329,0.8958,0.872,0.8453,0.8071,0.7834,0.7459,0.686,0.6372,0.59,0.5418,0.5053,0.5675,0.481,0.2712,0.1971,0.1725,0.1726,0.1111,0.074,0.037,0.0123,0.0123,0.037,0.0739,0.0861,0.0614,0.0246,-0.0122,-0.0122,0.0121,-0.048,-0.2032,-0.3669,-0.4226,-0.3635,-0.3963,-0.4067,-0.4064,-0.4062,-0.4044,-0.3779,-0.3774,-0.3751,-0.36,-0.3479,-0.3477,-0.3474,-0.3477,-0.3477,-0.3362,-0.2802,-0.258,-0.2805,-0.3029,-0.3141,-0.3138,-0.3365,-0.3477,-0.3474,-0.3474,-0.3589,-0.3701,-0.3924,-0.4257,-0.47,-0.5146,-0.5592,-0.5601,-0.6042,-0.6381,-0.6604,-0.6821,-0.7049,-0.7271,-0.716,-0.6826,-0.6492,-0.6381,-0.627,-0.6492,-0.6715,-0.6826,-0.6937,-0.6937,-0.7049,-0.7049,-0.7049,-0.7033,-0.7138,-0.7143,-0.7138,-0.7138,-0.7143,-0.7154,-0.6948,-0.6746,-0.6649,-0.6308,-0.6172,-0.5833,-0.5426,-0.4957,-0.4599,-0.4484,-0.4379,-0.4412,-0.4445,-0.4465,-0.4485,-0.4535,-0.4588,-0.4631,0.8111,0.775,0.7495,0.7128,0.6888,0.6644,0.6399,0.6027,0.5786,0.5667,0.5421,0.4933,0.4069,0.3453,0.3204,0.2219,0.0739,0.0246,-0.0123,-0.0493,-0.0864,-0.148,-0.2219,-0.2589,-0.2712,-0.2587,-0.2218,-0.1849,-0.1974,-0.2219,-0.2342,-0.2583,-0.2199,-0.2558,-0.3643,-0.529,-0.5852,-0.536,-0.509,-0.5182,-0.5174,-0.5291,-0.5377,-0.5362,-0.5338,-0.5414,-0.5123,-0.5104,-0.5081,-0.5046,-0.5039,-0.5039,-0.4927,-0.4592,-0.4033,-0.3698,-0.3586,-0.3698,-0.381,-0.4145,-0.4257,-0.426,-0.4369,-0.4592,-0.4815,-0.5039,-0.5369,-0.5926,-0.626,-0.6594,-0.6715,-0.7049,-0.7271,-0.7598,-0.782,-0.7931,-0.8152,-0.8263,-0.8042,-0.7604,-0.7499,-0.7388,-0.7271,-0.7382,-0.7382,-0.7493,-0.7493,-0.7598,-0.7598,-0.7616,-0.7627,-0.7756,-0.7768,-0.7768,-0.778,-0.7803,-0.7691,-0.7477,-0.7387,-0.729,-0.7198,-0.7074,-0.6873,-0.657,-0.6061,-0.5643,-0.5209,-0.5123,-0.5165,-0.5207,-0.5226,-0.5261,-0.533,-0.5272,-0.5433,0.6276,0.6035,0.5663,0.5418,0.5298,0.5298,0.5053,0.4681,0.4174,0.4055,0.4315,0.3689,0.2704,0.1602,0.0616,-0.0493,-0.1849,-0.1848,-0.2096,-0.2589,-0.2589,-0.3081,-0.4069,-0.4684,-0.4807,-0.4558,-0.4561,-0.4564,-0.3825,-0.3822,-0.4318,-0.4312,-0.4189,-0.4558,-0.5273,-0.6575,-0.6663,-0.6386,-0.6217,-0.6291,-0.6636,-0.7108,-0.7333,-0.7082,-0.7311,-0.7259,-0.6924,-0.6794,-0.6873,-0.6699,-0.6659,-0.6634,-0.6517,-0.6279,-0.5708,-0.515,-0.4596,-0.4592,-0.4704,-0.515,-0.5377,-0.5266,-0.5596,-0.5708,-0.5931,-0.6265,-0.6821,-0.7265,-0.7487,-0.7598,-0.782,-0.7937,-0.8159,-0.8491,-0.8706,-0.8816,-0.9037,-0.9258,-0.9258,-0.8933,-0.8725,-0.851,-0.8295,-0.8042,-0.8042,-0.8042,-0.8152,-0.8152,-0.8269,-0.8332,-0.8357,-0.8382,-0.8401,-0.8401,-0.8433,-0.8489,-0.8502,-0.8394,-0.8311,-0.8226,-0.8141,-0.8043,-0.7945,-0.7817,-0.7508,-0.709,-0.6431,-0.6005,-0.617,-0.621,-0.6124,-0.6178,-0.6381,-0.6417,-0.6449,0.4926,0.4684,0.4561,0.4684,0.4561,0.4558,0.4315,0.3815,0.2673,0.2071,0.184,0.1703,0.0975,-0.0369,-0.1232,-0.2712,-0.3822,-0.4192,-0.4192,-0.4561,-0.4438,-0.4564,-0.5179,-0.5298,-0.5675,-0.5798,-0.579,-0.5172,-0.493,-0.4926,-0.5049,-0.5298,-0.5168,-0.5287,-0.6394,-0.7728,-0.8116,-0.7484,-0.7464,-0.7812,-0.8049,-0.8164,-0.8348,-0.8402,-0.8485,-0.8555,-0.8445,-0.8421,-0.8274,-0.825,-0.7926,-0.7772,-0.7635,-0.7315,-0.7054,-0.671,-0.6154,-0.5596,-0.5712,-0.6047,-0.6381,-0.6487,-0.671,-0.6932,-0.7154,-0.7376,-0.782,-0.782,-0.8374,-0.8706,-0.8816,-0.9037,-0.9154,-0.9389,-0.9618,-0.9839,-1.0059,-1.0277,-1.0262,-1.0381,-1.0204,-0.9594,-0.9224,-0.8954,-0.8809,-0.8809,-0.8816,-0.8836,-0.8981,-0.9188,-0.925,-0.9405,-0.9418,-0.9425,-0.9453,-0.9516,-0.9449,-0.934,-0.9395,-0.9429,-0.9345,-0.9359,-0.9305,-0.9155,-0.8852,-0.8621,-0.82,-0.7774,-0.7562,-0.7364,-0.7417,-0.7491,-0.7702,-0.7601,-0.7474,0.2712,0.3576,0.3576,0.3207,0.271,0.2445,0.207,0.1455,0.0839,0.0239,-0.012,0.0362,-0.085,-0.3075,-0.3697,-0.4189,-0.5053,-0.5544,-0.579,-0.6158,-0.6158,-0.643,-0.6832,-0.6927,-0.6908,-0.7074,-0.7286,-0.7373,-0.6761,-0.6394,-0.6276,-0.6644,-0.639,-0.6634,-0.7622,-0.8861,-0.9105,-0.8848,-0.8964,-0.9086,-0.9214,-0.9329,-0.9539,-0.96,-0.9834,-0.987,-0.9898,-0.9856,-0.9799,-0.9743,-0.9408,-0.9279,-0.9151,-0.899,-0.8729,-0.8729,-0.8268,-0.7522,-0.6847,-0.7059,-0.7282,-0.7499,-0.7826,-0.8042,-0.838,-0.8615,-0.894,-0.9037,-0.9478,-0.9706,-0.9713,-0.9926,-1.0139,-1.0382,-1.0477,-1.0834,-1.1098,-1.131,-1.1481,-1.149,-1.1611,-1.0997,-1.0642,-1.0439,-1.0296,-1.0152,-1.0175,-1.0198,-1.0334,-1.0387,-1.0555,-1.0586,-1.0601,-1.0601,-1.064,-1.0694,-1.0654,-1.0692,-1.0799,-1.0829,-1.0837,-1.0821,-1.0642,-1.0657,-1.068,-1.0324,-0.9842,-0.9334,-0.8847,-0.8797,-0.8757,-0.8818,-0.8744,-0.8494,-0.8506,0.0122,0.1341,0.1959,0.1591,0.0853,0.0361,-0.0359,-0.1195,-0.1296,-0.176,-0.2126,-0.1793,-0.3279,-0.5533,-0.5667,-0.5663,-0.6276,-0.6644,-0.7133,-0.75,-0.776,-0.806,-0.8341,-0.8436,-0.8424,-0.867,-0.8775,-0.897,-0.8958,-0.8593,-0.8349,-0.8355,-0.7734,-0.8099,-0.9086,-1.0079,-1.0572,-1.0308,-1.0301,-1.0308,-1.0429,-1.0664,-1.0785,-1.0899,-1.1133,-1.1335,-1.147,-1.1328,-1.124,-1.1176,-1.0856,-1.0717,-1.0593,-1.0293,-1.0141,-1.0018,-0.9781,-0.9373,-0.8678,-0.8401,-0.8376,-0.8482,-0.8818,-0.9307,-0.9637,-0.9831,-1.0054,-1.0308,-1.0643,-1.0747,-1.0834,-1.0962,-1.1098,-1.1251,-1.1414,-1.1794,-1.1959,-1.2047,-1.2205,-1.2311,-1.2337,-1.2436,-1.209,-1.2026,-1.1777,-1.1578,-1.1578,-1.1603,-1.162,-1.1521,-1.157,-1.1495,-1.1528,-1.1536,-1.1678,-1.1728,-1.1786,-1.1844,-1.196,-1.1985,-1.1831,-1.1823,-1.1782,-1.196,-1.2043,-1.1922,-1.139,-1.0703,-1.0158,-1.0102,-0.9923,-0.9856,-0.9774,-0.9536,-0.9607,-0.2872,-0.3074,-0.0959,-0.0239,-0.0473,-0.1297,-0.2356,-0.3178,-0.3711,-0.3949,-0.4356,-0.478,-0.5694,-0.724,-0.7261,-0.725,-0.8111,-0.8233,-0.8599,-0.897,-0.9226,-0.9568,-0.9861,-0.9971,-0.9924,-1.026,-1.0292,-1.0579,-1.0906,-1.0785,-1.0301,-0.9694,-0.9073,-0.9438,-1.0301,-1.13,-1.1784,-1.1518,-1.1511,-1.1639,-1.1752,-1.1993,-1.1993,-1.2354,-1.2475,-1.2586,-1.2577,-1.244,-1.2414,-1.2482,-1.2014,-1.1719,-1.1695,-1.1378,-1.1213,-1.1197,-1.1197,-1.0917,-1.0509,-0.9989,-0.9781,-0.991,-1.0234,-1.0539,-1.0638,-1.1265,-1.1519,-1.1469,-1.1654,-1.1802,-1.1942,-1.21,-1.2012,-1.2134,-1.2161,-1.2337,-1.2497,-1.2648,-1.28,-1.3011,-1.3086,-1.311,-1.3221,-1.2922,-1.2704,-1.2372,-1.232,-1.2346,-1.2399,-1.2425,-1.2513,-1.2456,-1.2508,-1.2534,-1.2551,-1.2586,-1.2724,-1.2768,-1.2856,-1.2717,-1.2664,-1.2664,-1.2856,-1.2864,-1.2926,-1.2961,-1.2865,-1.2273,-1.1712,-1.1323,-1.1119,-1.0848,-1.082,-1.0621,-1.0854,-0.3677,-0.383,-0.3151,-0.2813,-0.2825,-0.3376,-0.3824,-0.4162,-0.4448,-0.4825,-0.5288,-0.6155,-0.7573,-0.8563,-0.8477,-0.8593,-0.9451,-0.9815,-1.0179,-1.0465,-1.0897,-1.1155,-1.1347,-1.1378,-1.1502,-1.1635,-1.1642,-1.1598,-1.176,-1.2242,-1.2354,-1.1623,-1.0763,-1.077,-1.1518,-1.2259,-1.2371,-1.2492,-1.2483,-1.2603,-1.2483,-1.2475,-1.2595,-1.2715,-1.2964,-1.3084,-1.3204,-1.3324,-1.3324,-1.3186,-1.2884,-1.2738,-1.2473,-1.2268,-1.2115,-1.2107,-1.2107,-1.2107,-1.1946,-1.1362,-1.0886,-1.1109,-1.1454,-1.1701,-1.1611,-1.1931,-1.2038,-1.2135,-1.2285,-1.2542,-1.2497,-1.2602,-1.2698,-1.2754,-1.2818,-1.2892,-1.3082,-1.3128,-1.3203,-1.3485,-1.3532,-1.3618,-1.3731,-1.3714,-1.3564,-1.3296,-1.3131,-1.3122,-1.3205,-1.3131,-1.3213,-1.3259,-1.3184,-1.3359,-1.3377,-1.3405,-1.3563,-1.3478,-1.3533,-1.3505,-1.3478,-1.3701,-1.3757,-1.3738,-1.3605,-1.366,-1.3669,-1.35,-1.3075,-1.2538,-1.2085,-1.1666,-1.1633,-1.1599,-1.1705,-0.4457,-0.479,-0.5009,-0.4818,-0.4518,-0.5039,-0.5127,-0.5115,-0.5518,-0.5808,-0.6089,-0.7397,-0.8959,-0.9889,-0.9694,-0.993,-1.0785,-1.1148,-1.1511,-1.1938,-1.2306,-1.2747,-1.2867,-1.2918,-1.3026,-1.3044,-1.3119,-1.3048,-1.3193,-1.3481,-1.3453,-1.3195,-1.2706,-1.2715,-1.2586,-1.2946,-1.3075,-1.3204,-1.3324,-1.3453,-1.3324,-1.3324,-1.3204,-1.3324,-1.3444,-1.3444,-1.3564,-1.3564,-1.3564,-1.3573,-1.3435,-1.3195,-1.3075,-1.2964,-1.2964,-1.2964,-1.2964,-1.2964,-1.2755,-1.2276,-1.1853,-1.2013,-1.2238,-1.2463,-1.2543,-1.2543,-1.2732,-1.2714,-1.2812,-1.2892,-1.2882,-1.318,-1.3199,-1.3264,-1.3302,-1.3367,-1.3489,-1.3564,-1.3667,-1.3873,-1.391,-1.3948,-1.3986,-1.4081,-1.4033,-1.3789,-1.3779,-1.3761,-1.3779,-1.3807,-1.3807,-1.3836,-1.3836,-1.3892,-1.4071,-1.3976,-1.3871,-1.389,-1.3936,-1.4098,-1.4117,-1.4336,-1.4336,-1.4126,-1.4135,-1.4364,-1.4285,-1.4168,-1.3861,-1.3537,-1.296,-1.2377,-1.225,-1.2208,-1.2224,-0.5886,-0.6274,-0.627,-0.5828,-0.5286,-0.5935,-0.6274,-0.6396,-0.7171,-0.7398,-0.7364,-0.869,-1.0266,-1.1366,-1.1035,-1.1269,-1.2113,-1.2475,-1.2835,-1.325,-1.3704,-1.4004,-1.426,-1.4355,-1.4585,-1.4857,-1.4663,-1.4583,-1.4729,-1.4721,-1.463,-1.462,-1.441,-1.4351,-1.4182,-1.4162,-1.4282,-1.4421,-1.4301,-1.4301,-1.437,-1.436,-1.4101,-1.4038,-1.4,-1.399,-1.387,-1.3822,-1.3813,-1.3813,-1.3813,-1.3684,-1.3564,-1.3684,-1.3693,-1.3684,-1.3684,-1.3684,-1.3555,-1.3057,-1.2773,-1.2738,-1.2931,-1.3077,-1.314,-1.3398,-1.347,-1.3286,-1.3452,-1.3608,-1.3646,-1.3655,-1.3756,-1.3765,-1.3923,-1.401,-1.4135,-1.4202,-1.4288,-1.4327,-1.4318,-1.4288,-1.4298,-1.4317,-1.4336,-1.4307,-1.4298,-1.4279,-1.4222,-1.4175,-1.4137,-1.4128,-1.4118,-1.4213,-1.427,-1.4288,-1.4317,-1.4326,-1.4374,-1.4449,-1.4459,-1.4477,-1.4449,-1.4374,-1.4468,-1.46,-1.4685,-1.4632,-1.4263,-1.3779,-1.3422,-1.2976,-1.2857,-1.266,-1.2636,-0.7182,-0.7487,-0.7709,-0.7814,-0.7814,-0.7482,-0.7598,-0.7943,-0.87,-0.8869,-0.8722,-1.009,-1.1659,-1.2449,-1.2492,-1.2603,-1.3324,-1.3564,-1.3923,-1.4441,-1.4993,-1.5309,-1.5597,-1.5802,-1.6063,-1.6128,-1.594,-1.567,-1.5566,-1.5554,-1.5565,-1.5585,-1.5624,-1.5418,-1.4871,-1.4799,-1.484,-1.4821,-1.4781,-1.4901,-1.5024,-1.4831,-1.4568,-1.4553,-1.4568,-1.4387,-1.4246,-1.4289,-1.4231,-1.411,-1.4231,-1.4221,-1.4211,-1.4211,-1.4311,-1.4311,-1.4301,-1.4291,-1.4291,-1.4043,-1.3803,-1.3573,-1.3463,-1.3592,-1.3573,-1.3564,-1.3684,-1.3712,-1.387,-1.3861,-1.3923,-1.4188,-1.4348,-1.465,-1.4709,-1.4829,-1.5052,-1.4938,-1.4978,-1.4978,-1.4932,-1.4692,-1.4623,-1.4808,-1.4836,-1.4671,-1.476,-1.4402,-1.4336,-1.4298,-1.4251,-1.426,-1.4279,-1.4383,-1.4459,-1.4496,-1.4572,-1.4629,-1.4685,-1.4761,-1.4742,-1.4785,-1.4676,-1.4795,-1.4752,-1.4837,-1.4846,-1.4725,-1.4317,-1.403,-1.3613,-1.3215,-1.2906,-1.2684,-1.2684,-0.8389,-0.8602,-0.8927,-0.9478,-0.9911,-0.9037,-0.8954,-0.9572,-1.0347,-1.044,-1.0435,-1.1585,-1.2794,-1.3536,-1.3583,-1.3564,-1.4291,-1.465,-1.4769,-1.5428,-1.6075,-1.6371,-1.6691,-1.7125,-1.7107,-1.7169,-1.7058,-1.6812,-1.6545,-1.6447,-1.6269,-1.6258,-1.6436,-1.6385,-1.5957,-1.5682,-1.546,-1.5544,-1.5512,-1.5655,-1.5556,-1.5432,-1.5165,-1.5092,-1.5052,-1.4971,-1.4809,-1.4851,-1.4751,-1.4741,-1.4751,-1.4872,-1.4862,-1.4952,-1.5073,-1.5214,-1.5245,-1.5256,-1.5266,-1.5266,-1.5054,-1.4791,-1.4328,-1.4198,-1.4246,-1.4436,-1.4426,-1.4416,-1.4246,-1.4377,-1.465,-1.4809,-1.5094,-1.5391,-1.5566,-1.568,-1.5794,-1.5805,-1.5856,-1.572,-1.5645,-1.5376,-1.5071,-1.5168,-1.5355,-1.5158,-1.509,-1.4836,-1.4614,-1.4604,-1.4595,-1.4604,-1.4623,-1.461,-1.4685,-1.4723,-1.4808,-1.4912,-1.4931,-1.5062,-1.5173,-1.5206,-1.5154,-1.5192,-1.5163,-1.5024,-1.4912,-1.4651,-1.4371,-1.4101,-1.384,-1.3456,-1.2964,-1.2865,-1.2897,-0.9727,-0.9824,-1.0147,-1.0798,-1.1345,-1.0468,-1.0572,-1.1414,-1.175,-1.2074,-1.229,-1.3039,-1.3887,-1.452,-1.4421,-1.4411,-1.4769,-1.5364,-1.5634,-1.5992,-1.673,-1.7111,-1.7485,-1.792,-1.8081,-1.7942,-1.7851,-1.7874,-1.7656,-1.7166,-1.693,-1.6886,-1.7077,-1.7145,-1.6976,-1.6706,-1.6458,-1.6436,-1.6371,-1.6414,-1.6409,-1.6366,-1.6127,-1.6034,-1.5867,-1.5701,-1.5535,-1.5484,-1.5474,-1.5484,-1.5504,-1.5649,-1.5866,-1.5894,-1.6194,-1.6349,-1.636,-1.6473,-1.6451,-1.6429,-1.6495,-1.6317,-1.5729,-1.5525,-1.5299,-1.5299,-1.5278,-1.5289,-1.5278,-1.5329,-1.5515,-1.567,-1.5939,-1.622,-1.6366,-1.6484,-1.6762,-1.671,-1.6647,-1.6573,-1.6497,-1.6291,-1.6012,-1.5964,-1.6104,-1.5934,-1.5853,-1.5724,-1.5515,-1.5158,-1.5148,-1.5029,-1.5067,-1.4985,-1.5024,-1.5115,-1.5135,-1.5323,-1.5463,-1.5463,-1.5593,-1.5724,-1.5583,-1.5583,-1.5463,-1.5332,-1.5202,-1.4931,-1.453,-1.4277,-1.4041,-1.3567,-1.3062,-1.2994,-1.3035,-1.1067,-1.1126,-1.1564,-1.211,-1.2446,-1.2327,-1.2534,-1.2956,-1.2975,-1.3433,-1.4203,-1.4193,-1.4708,-1.5634,-1.5375,-1.5483,-1.5828,-1.6216,-1.6567,-1.7,-1.7352,-1.7854,-1.8363,-1.874,-1.8896,-1.892,-1.886,-1.8673,-1.8302,-1.7805,-1.7655,-1.7701,-1.7874,-1.8036,-1.8047,-1.7955,-1.7702,-1.7326,-1.7202,-1.7166,-1.7267,-1.713,-1.691,-1.6816,-1.6614,-1.6444,-1.6412,-1.6284,-1.6241,-1.6209,-1.6323,-1.656,-1.6538,-1.6752,-1.7022,-1.7391,-1.7649,-1.7772,-1.7784,-1.7784,-1.7866,-1.7894,-1.77,-1.6976,-1.6593,-1.622,-1.6344,-1.6387,-1.6398,-1.6431,-1.6588,-1.6871,-1.7041,-1.72,-1.7496,-1.761,-1.7735,-1.7757,-1.7708,-1.7591,-1.7529,-1.7271,-1.7001,-1.6872,-1.6872,-1.6742,-1.6742,-1.6613,-1.6353,-1.5974,-1.5714,-1.5714,-1.5714,-1.5714,-1.5714,-1.5814,-1.5694,-1.5714,-1.5844,-1.5984,-1.5974,-1.6104,-1.5974,-1.5974,-1.5984,-1.5724,-1.5463,-1.5202,-1.4931,-1.4481,-1.4253,-1.3776,-1.3311,-1.3402,-1.3341,-1.2119,-1.2228,-1.2654,-1.3247,-1.3764,-1.3983,-1.4256,-1.45,-1.4127,-1.4351,-1.4976,-1.5007,-1.5493,-1.599,-1.585,-1.5946,-1.6419,-1.6773,-1.7091,-1.7351,-1.8106,-1.8545,-1.9075,-1.9512,-1.9559,-1.9584,-1.9584,-1.9559,-1.9212,-1.8944,-1.8792,-1.864,-1.8676,-1.8944,-1.9048,-1.9152,-1.8976,-1.859,-1.8254,-1.7932,-1.7851,-1.7757,-1.7697,-1.7708,-1.7479,-1.7457,-1.7423,-1.7359,-1.7462,-1.7451,-1.7713,-1.785,-1.7987,-1.825,-1.8613,-1.8888,-1.9013,-1.915,-1.9275,-1.9137,-1.9199,-1.9274,-1.9311,-1.8872,-1.8297,-1.8034,-1.7771,-1.7656,-1.7634,-1.7622,-1.7794,-1.7966,-1.8265,-1.8451,-1.8685,-1.8792,-1.8804,-1.8804,-1.8804,-1.8676,-1.8431,-1.8173,-1.7916,-1.7916,-1.7787,-1.7916,-1.7916,-1.7916,-1.7518,-1.6882,-1.6613,-1.6353,-1.6353,-1.6353,-1.6494,-1.6494,-1.6494,-1.6494,-1.6623,-1.6753,-1.6623,-1.6764,-1.6904,-1.6634,-1.6364,-1.6124,-1.6045,-1.5603,-1.5342,-1.5044,-1.492,-1.4754,-1.4467,-1.419,-1.4122,-1.2989,-1.3098,-1.3532,-1.4179,-1.4911,-1.5164,-1.5557,-1.6103,-1.5113,-1.4814,-1.5161,-1.5461,-1.5957,-1.6324,-1.6324,-1.6549,-1.6891,-1.7361,-1.7657,-1.7657,-1.8651,-1.9183,-1.9534,-1.9939,-2.0055,-2.0106,-2.0106,-2.0106,-2.0106,-1.9966,-1.9839,-1.9711,-1.9966,-2.0094,-2.0234,-2.0234,-2.0068,-2.0017,-1.9484,-1.9,-1.8512,-1.8279,-1.8162,-1.8291,-1.8536,-1.8676,-1.8804,-1.8932,-1.92,-1.9188,-1.9176,-1.9291,-1.9661,-1.9916,-2.0297,-2.041,-2.0346,-2.0472,-2.0459,-2.0446,-2.0371,-2.0297,-2.0221,-2.0284,-1.9941,-1.941,-1.9006,-1.9006,-1.9108,-1.9108,-1.9271,-1.9283,-1.9447,-1.9599,-1.9776,-1.9839,-1.9839,-1.9839,-1.9839,-1.9711,-1.9584,-1.9328,-1.9328,-1.9188,-1.9188,-1.92,-1.92,-1.92,-1.8944,-1.8162,-1.7776,-1.7389,-1.7389,-1.7389,-1.7389,-1.7389,-1.7389,-1.7389,-1.7529,-1.7529,-1.7529,-1.768,-1.7832,-1.7651,-1.7227,-1.6901,-1.676,-1.6488,-1.6287,-1.6175,-1.6047,-1.605,-1.5777,-1.5496,-1.5162,-1.3954,-1.418,-1.4611,-1.486,-1.5036,-1.5327,-1.5701,-1.6238,-1.5932,-1.5903,-1.6138,-1.6301,-1.6419,-1.6785,-1.702,-1.7256,-1.7608,-1.796,-1.8307,-1.8483,-1.921,-1.9698,-2.0067,-2.0506,-2.0703,-2.0602,-2.0615,-2.0602,-2.0488,-2.0602,-2.0742,-2.0475,-2.0729,-2.0982,-2.1109,-2.1109,-2.1109,-2.1109,-2.0856,-2.0221,-1.9711,-1.9584,-1.9596,-1.9596,-1.9724,-1.9724,-1.9724,-1.9851,-1.9851,-1.9851,-2.0106,-2.0348,-2.0729,-2.0996,-2.1235,-2.1362,-2.1488,-2.1488,-2.1488,-2.1488,-2.1362,-2.1475,-2.1488,-2.1614,-2.1348,-2.0729,-2.0348,-2.0475,-2.0602,-2.0602,-2.0602,-2.0602,-2.0729,-2.0729,-2.0856,-2.0856,-2.0856,-2.0856,-2.0856,-2.0729,-2.0602,-2.0602,-2.0602,-2.0602,-2.0602,-2.0602,-2.0602,-2.0602,-2.0475,-2.0081,-1.9444,-1.906,-1.8688,-1.8688,-1.8559,-1.8547,-1.8419,-1.8325,-1.8466,-1.8466,-1.8337,-1.8606,-1.8746,-1.8467,-1.8271,-1.806,-1.7873,-1.762,-1.7443,-1.7325,-1.7318,-1.7318,-1.7454,-1.7323,-1.6728,-1.4511,-1.4815,-1.5256,-1.554,-1.5778,-1.6246,-1.6622,-1.7001,-1.7153,-1.7229,-1.7232,-1.7009,-1.6891,-1.7244,-1.7467,-1.783,-1.8194,-1.8661,-1.8829,-1.9168,-1.9787,-2.0267,-2.0821,-2.1284,-2.142,-2.1362,-2.1362,-2.1362,-2.0982,-2.1235,-2.1488,-2.1235,-2.1488,-2.1601,-2.1853,-2.1853,-2.1853,-2.1866,-2.1866,-2.1488,-2.0856,-2.0729,-2.0615,-2.0488,-2.0615,-2.0729,-2.0856,-2.0856,-2.0982,-2.0982,-2.1222,-2.1348,-2.1475,-2.1727,-2.1853,-2.1978,-2.2118,-2.2118,-2.223,-2.223,-2.2104,-2.2104,-2.2104,-2.1992,-2.223,-2.1601,-2.1488,-2.1488,-2.1475,-2.1475,-2.1475,-2.1475,-2.1475,-2.1475,-2.1475,-2.1488,-2.1488,-2.1488,-2.1475,-2.1475,-2.1475,-2.1475,-2.1475,-2.1362,-2.1488,-2.1475,-2.1488,-2.1515,-2.1502,-2.1611,-2.1062,-2.0654,-2.0323,-1.9876,-1.9711,-1.9711,-1.9584,-1.9621,-1.9567,-1.9609,-1.9732,-1.9698,-1.9555,-1.9518,-1.9421,-1.9338,-1.917,-1.8916,-1.8753,-1.8643,-1.863,-1.8479,-1.8749,-1.8849,-1.8347,-1.4918,-1.5232,-1.5779,-1.6233,-1.6804,-1.73,-1.7789,-1.8058,-1.8352,-1.8493,-1.8415,-1.7701,-1.7596,-1.7584,-1.7677,-1.8156,-1.8635,-1.9113,-1.9372,-1.9834,-2.0598,-2.1008,-2.1408,-2.1824,-2.202,-2.2104,-2.2104,-2.1978,-2.1853,-2.2104,-2.223,-2.2244,-2.223,-2.223,-2.223,-2.2244,-2.223,-2.2355,-2.2355,-2.2244,-2.1978,-2.1601,-2.1362,-2.1362,-2.1488,-2.1601,-2.174,-2.1866,-2.2118,-2.2104,-2.1964,-2.2104,-2.223,-2.2215,-2.2355,-2.248,-2.248,-2.248,-2.2606,-2.2495,-2.2355,-2.223,-2.223,-2.2355,-2.2606,-2.2606,-2.2369,-2.2355,-2.223,-2.223,-2.223,-2.223,-2.223,-2.223,-2.223,-2.223,-2.223,-2.223,-2.223,-2.223,-2.2244,-2.2244,-2.2244,-2.2244,-2.2258,-2.2258,-2.2286,-2.2286,-2.2356,-2.2539,-2.2382,-2.2226,-2.1984,-2.1491,-2.0922,-2.0834,-2.0873,-2.0824,-2.0812,-2.094,-2.0882,-2.0693,-2.0622,-2.0818,-2.0697,-2.0526,-2.0379,-2.0124,-1.9975,-1.9835,-1.9929,-1.9886,-1.9945,-2.0039,-1.9924,-1.5971,-1.6418,-1.6511,-1.6774,-1.709,-1.7456,-1.7838,-1.8348,-1.8651,-1.8889,-1.9163,-1.9332,-1.9113,-1.8648,-1.8493,-1.8842,-1.9448,-1.9809,-2.0233,-2.06,-2.1131,-2.1534,-2.1954,-2.2267,-2.2438,-2.248,-2.248,-2.2355,-2.2355,-2.2606,-2.2731,-2.248,-2.2731,-2.2856,-2.2856,-2.2856,-2.2856,-2.2731,-2.2856,-2.2731,-2.2606,-2.2355,-2.1978,-2.1978,-2.1992,-2.1978,-2.1992,-2.2118,-2.2104,-2.223,-2.2355,-2.2606,-2.2731,-2.2731,-2.2856,-2.2856,-2.2731,-2.2856,-2.2856,-2.2856,-2.2731,-2.2731,-2.2731,-2.2731,-2.2981,-2.2981,-2.2856,-2.2856,-2.2731,-2.2731,-2.2731,-2.2731,-2.2731,-2.2731,-2.2731,-2.2731,-2.2731,-2.2731,-2.2731,-2.2745,-2.2774,-2.2788,-2.2803,-2.2817,-2.2875,-2.2918,-2.3062,-2.3091,-2.3134,-2.342,-2.358,-2.3422,-2.3264,-2.2737,-2.2117,-2.2071,-2.2025,-2.2093,-2.21,-2.1872,-2.1684,-2.1373,-2.1449,-2.1636,-2.1513,-2.1353,-2.1217,-2.1057,-2.1157,-2.0997,-2.1233,-2.1308,-2.1346,-2.1069,-2.0931]},{"header":{"parameterUnit":"m.s-1","parameterCategory":1,"la1":31.0,"la2":29.5877,"lo1":-88.7671,"lo2":-86.6584,"dy":0.0162,"dx":0.0185,"nx":115,"ny":88,"refTime":"2023-04-30T12:00:00:Z","depth":0,"parameterNumber":3,"parameterNumberName":"V-component_of_WINDS"},"data":[0.0,0.0,0.0,0.0,0.0,0.0,0.0,0.0,0.0,0.0,0.0,0.0,0.0,0.0,0.0,0.0,0.0,0.0,0.0,0.0,0.0,0.0,0.0,0.0,0.0,0.0,0.0,0.0,0.0,0.0,0.0,0.0,0.0,0.0,0.0,0.0,0.0,0.0,0.0,0.0,0.0,0.0,0.0,0.0,0.0,0.0,0.0,0.0,0.0,0.0,0.0,0.0,0.0,0.0,0.0,0.0,0.0,0.0,0.0,0.0,0.0,0.0,0.0,0.0,0.0,0.0,0.0,0.0,0.0,0.0,0.0,0.0,0.0,0.0,0.0,0.0,0.0,0.0,0.0,0.0,0.0,0.0,0.0,0.0,0.0,0.0,0.0,0.0,0.0,0.0,0.0,0.0,0.0,0.0,0.0,0.0,0.0,0.0,0.0,0.0,0.0,0.0,0.0,0.0,0.0,0.0,0.0,0.0,0.0,0.0,0.0,0.0,0.0,0.0,0.0,0.0,0.0,0.0,0.0,0.0,0.0,0.0,0.0,0.0,0.0,0.0,0.0,0.0,0.0,0.0,0.0,0.0,0.0,0.0,0.0,0.0,0.0,0.0,0.0,0.0,0.0,0.0,0.0,0.0,0.0,0.0,0.0,0.0,0.0,0.0,0.0,0.0,0.0,0.0,0.0,0.0,0.0,0.0,0.0,0.0,0.0,0.0,0.0,0.0,0.0,0.0,0.0,0.0,0.0,0.0,0.0,0.0,0.0,0.0,0.0,0.0,0.0,0.0,0.0,0.0,0.0,0.0,0.0,0.0,0.0,0.0,0.0,0.0,0.0,0.0,0.0,0.0,0.0,0.0,0.0,0.0,0.0,0.0,0.0,0.0,0.0,0.0,0.0,0.0,0.0,0.0,0.0,0.0,0.0,0.0,0.0,0.0,0.0,0.0,0.0,0.0,0.0,0.0,0.0,0.0,0.0,0.0,0.0,0.0,0.0,0.0,0.0,0.0,0.0,0.0,0.0,0.0,0.0,0.0,0.0,0.0,0.0,0.0,0.0,0.0,0.0,0.0,0.0,0.0,0.0,0.0,0.0,0.0,0.0,0.0,0.0,0.0,0.0,0.0,0.0,0.0,0.0,0.0,0.0,0.0,0.0,0.0,0.0,0.0,0.0,0.0,0.0,0.0,0.0,0.0,0.0,0.0,0.0,0.0,0.0,0.0,0.0,0.0,0.0,0.0,0.0,0.0,0.0,0.0,0.0,0.0,0.0,0.0,0.0,0.0,0.0,0.0,0.0,0.0,0.0,0.0,0.0,0.0,0.0,0.0,0.0,0.0,0.0,0.0,0.0,0.0,0.0,0.0,0.0,0.0,0.0,0.0,0.0,0.0,0.0,0.0,0.0,0.0,0.0,0.0,0.0,0.0,0.0,0.0,0.0,0.0,0.0,0.0,0.0,0.0,0.0,0.0,0.0,0.0,0.0,0.0,0.0,0.0,0.0,0.0,0.0,0.0,0.0,0.0,0.0,0.0,0.0,0.0,0.0,0.0,0.0,0.0,0.0,0.0,0.0,0.0,0.0,0.0,0.0,0.0,0.0,0.0,0.0,0.0,0.0,0.0,0.0,0.0,0.0,0.0,0.0,0.0,0.0,0.0,0.0,0.0,0.0,0.0,0.0,0.0,0.0,0.0,0.0,0.0,0.0,0.0,0.0,0.0,0.0,0.0,0.0,0.0,0.0,0.0,0.0,0.0,0.0,0.0,0.0,0.0,0.0,0.0,0.0,0.0,0.0,0.0,0.0,0.0,0.0,0.0,0.0,0.0,0.0,0.0,0.0,0.0,0.0,0.0,0.0,0.0,0.0,0.0,0.0,0.0,0.0,0.0,0.0,0.0,0.0,0.0,0.0,0.0,0.0,0.0,0.0,0.0,0.0,0.0,0.0,0.0,0.0,0.0,0.0,0.0,0.0,0.0,0.0,0.0,0.0,0.0,0.0,0.0,0.0,0.0,0.0,0.0,0.0,0.0,0.0,0.0,0.0,0.0,0.0,0.0,0.0,0.0,0.0,0.0,0.0,0.0,0.0,0.0,0.0,0.0,0.0,0.0,0.0,0.0,0.0,0.0,0.0,0.0,0.0,0.0,0.0,0.0,0.0,0.0,0.0,0.0,0.0,0.0,0.0,0.0,0.0,0.0,0.0,0.0,0.0,0.0,0.0,0.0,0.0,0.0,0.0,0.0,0.0,0.0,0.0,0.0,0.0,0.0,0.0,0.0,0.0,0.0,0.0,0.0,0.0,0.0,0.0,0.0,0.0,0.0,0.0,0.0,0.0,0.0,0.0,0.0,0.0,0.0,0.0,0.0,0.0,0.0,0.0,0.0,0.0,0.0,0.0,0.0,0.0,0.0,0.0,0.0,0.0,0.0,0.0,0.0,0.0,0.0,0.0,0.0,0.0,0.0,0.0,0.0,0.0,0.0,0.0,0.0,0.0,0.0,0.0,0.0,0.0,0.0,0.0,0.0,0.0,0.0,0.0,0.0,0.0,0.0,0.0,0.0,0.0,0.0,0.0,0.0,0.0,0.0,0.0,0.0,0.0,0.0,0.0,0.0,0.0,0.0,0.0,0.0,0.0,0.0,0.0,0.0,0.0,0.0,0.0,0.0,0.0,0.0,0.0,0.0,0.0,0.0,0.0,0.0,0.0,0.0,0.0,0.0,0.0,0.0,0.0,0.0,0.0,0.0,0.0,0.0,0.0,0.0,0.0,0.0,0.0,0.0,0.0,0.0,0.0,0.0,0.0,0.0,0.0,0.0,0.0,0.0,0.0,0.0,0.0,0.0,0.0,0.0,0.0,0.0,0.0,0.0,0.0,0.0,0.0,0.0,0.0,0.0,0.0,0.0,0.0,0.0,0.0,0.0,0.0,0.0,0.0,0.0,0.0,0.0,0.0,0.0,0.0,0.0,0.0,0.0,0.0,0.0,0.0,0.0,0.0,0.0,0.0,0.0,0.0,0.0,0.0,0.0,0.0,0.0,0.0,0.0,0.0,0.0,0.0,0.0,0.0,0.0,0.0,0.0,0.0,0.0,0.0,0.0,0.0,0.0,0.0,0.0,0.0,0.0,0.0,0.0,0.0,0.0,0.0,0.0,0.0,0.0,0.0,0.0,0.0,0.0,0.0,0.0,0.0,0.0,0.0,0.0,0.0,0.0,0.0,0.0,0.0,0.0,0.0,0.0,0.0,0.0,0.0,0.0,0.0,0.0,0.0,0.0,0.0,0.0,0.0,0.0,0.0,0.0,0.0,0.0,0.0,0.0,0.0,0.0,0.0,0.0,0.0,0.0,0.0,0.0,0.0,0.0,0.0,0.0,0.0,0.0,0.0,0.0,0.0,0.0,0.0,0.0,0.0,0.0,0.0,0.0,0.0,0.0,0.0,0.0,0.0,0.0,0.0,0.0,0.0,0.0,0.0,0.0,0.0,0.0,0.0,0.0,0.0,0.0,0.0,0.0,0.0,0.0,0.0,0.0,0.0,0.0,0.0,0.0,0.0,0.0,0.0,0.0,0.0,0.0,0.0,0.0,0.0,0.0,0.0,0.0,0.0,0.0,0.0,0.0,0.0,0.0,0.0,0.0,0.0,0.0,0.0,0.0,0.0,0.0,0.0,0.0,0.0,0.0,0.0,0.0,0.0,0.0,0.0,0.0,0.0,0.0,0.0,0.0,0.0,0.0,0.0,0.0,0.0,0.0,0.0,0.0,0.0,0.0,0.0,0.0,0.0,0.0,0.0,0.0,0.0,0.0,0.0,0.0,0.0,0.0,0.0,0.0,0.0,0.0,0.0,0.0,0.0,0.0,0.0,0.0,0.0,0.0,0.0,0.0,0.0,0.0,0.0,0.0,0.0,0.0,0.0,0.0,0.0,0.0,0.0,0.0,0.0,0.0,0.0,0.0,0.0,0.0,0.0,0.0,0.0,0.0,0.0,0.0,0.0,0.0,0.0,0.0,0.0,0.0,0.0,0.0,0.0,0.0,0.0,0.0,0.0,0.0,0.0,0.0,0.0,0.0,0.0,0.0,0.0,0.0,0.0,0.0,0.0,0.0,0.0,0.0,0.0,0.0,0.0,0.0,0.0,0.0,0.0,0.0,0.0,0.0,0.0,0.0,0.0,0.0,0.0,0.0,0.0,0.0,0.0,0.0,0.0,0.0,0.0,0.0,0.0,0.0,0.0,0.0,0.0,0.0,0.0,0.0,0.0,0.0,0.0,0.0,-0.7869,0.0,0.0,0.0,0.0,0.0,0.0,0.0,0.0,0.0,0.0,0.0,0.0,0.0,0.0,0.0,0.0,0.0,0.0,0.0,0.0,0.0,0.0,0.0,0.0,0.0,0.0,0.0,0.0,0.0,0.0,0.0,0.0,0.0,0.0,0.0,0.0,0.0,0.0,0.0,0.0,0.0,0.0,0.0,0.0,0.0,0.0,0.0,0.0,0.0,0.0,0.0,0.0,0.0,0.0,0.0,0.0,0.0,0.0,0.0,0.0,0.0,0.0,0.0,0.0,0.0,0.0,0.0,0.0,0.0,0.0,0.0,0.0,0.0,0.0,0.0,0.0,0.0,0.0,0.0,0.0,0.0,0.0,0.0,0.0,0.0,0.0,0.0,0.0,0.0,0.0,0.0,0.0,0.0,0.0,0.0,0.0,0.0,0.0,0.0,0.0,0.0,0.0,0.0,0.0,0.0,0.0,0.0,0.0,0.0,0.0,-0.7556,-0.7808,-0.7808,-0.7977,-0.8326,0.0,0.0,0.0,0.0,0.0,0.0,0.0,0.0,0.0,0.0,0.0,0.0,0.0,0.0,0.0,0.0,0.0,0.0,0.0,0.0,0.0,0.0,0.0,0.0,0.0,0.0,0.0,0.0,0.0,0.0,0.0,0.0,0.0,0.0,0.0,0.0,0.0,0.0,0.0,0.0,0.0,0.0,0.0,0.0,0.0,0.0,0.0,0.0,0.0,0.0,0.0,0.0,0.0,0.0,0.0,0.0,0.0,0.0,0.0,0.0,0.0,0.0,0.0,0.0,0.0,0.0,0.0,0.0,0.0,0.0,0.0,0.0,0.0,0.0,0.0,0.0,0.0,0.0,0.0,0.0,0.0,0.0,0.0,0.0,0.0,0.0,0.0,0.0,0.0,0.0,0.0,0.0,0.0,0.0,0.0,0.0,0.0,0.0,0.0,0.0,0.0,0.0,0.0,0.0,0.0,0.0,0.0,0.0,0.0,0.0,0.0,0.0,-0.8469,-0.861,-0.8856,0.0,0.0,0.0,0.0,0.0,0.0,0.0,0.0,0.0,0.0,0.0,0.0,0.0,0.0,0.0,0.0,0.0,0.0,0.0,0.0,0.0,0.0,0.0,0.0,0.0,0.0,0.0,0.0,0.0,0.0,0.0,0.0,0.0,0.0,0.0,0.0,0.0,0.0,0.0,0.0,0.0,0.0,0.0,0.0,0.0,0.0,0.0,0.0,0.0,0.0,0.0,0.0,0.0,0.0,0.0,0.0,0.0,0.0,0.0,0.0,0.0,0.0,0.0,0.0,0.0,0.0,0.0,0.0,0.0,0.0,0.0,0.0,0.0,0.0,0.0,0.0,0.0,0.0,0.0,0.0,0.0,0.0,0.0,0.0,0.0,0.0,0.0,0.0,0.0,0.0,0.0,0.0,0.0,0.0,0.0,0.0,0.0,0.0,0.0,0.0,0.0,0.0,0.0,0.0,0.0,0.0,0.0,0.0,0.0,0.0,-0.8417,-0.8385,-0.8474,0.0,-0.9586,0.0,0.0,0.0,0.0,0.0,0.0,0.0,0.0,0.0,0.0,0.0,0.0,0.0,0.0,0.0,0.0,0.0,0.0,0.0,0.0,0.0,0.0,0.0,0.0,0.0,0.0,0.0,0.0,0.0,0.0,0.0,0.0,0.0,0.0,0.0,0.0,0.0,0.0,0.0,0.0,0.0,0.0,0.0,0.0,0.0,0.0,0.0,0.0,0.0,0.0,0.0,0.0,0.0,0.0,0.0,0.0,0.0,0.0,0.0,0.0,0.0,0.0,0.0,0.0,0.0,0.0,0.0,0.0,0.0,0.0,0.0,0.0,0.0,0.0,0.0,0.0,0.0,0.0,0.0,0.0,0.0,0.0,0.0,0.0,0.0,0.0,0.0,0.0,0.0,0.0,0.0,0.0,0.0,0.0,0.0,0.0,0.0,0.0,0.0,0.0,0.0,0.0,0.0,0.0,0.0,0.0,0.0,0.0,0.0,0.0,-0.9052,-0.9334,-0.9405,-0.97,0.0,0.0,0.0,0.0,0.0,0.0,0.0,0.0,0.0,0.0,0.0,0.0,0.0,0.0,0.0,0.0,0.0,0.0,0.0,0.0,0.0,0.0,0.0,0.0,0.0,0.0,0.0,0.0,0.0,0.0,0.0,0.0,0.0,0.0,0.0,0.0,0.0,0.0,0.0,0.0,0.0,0.0,0.0,0.0,0.0,0.0,0.0,0.0,0.0,0.0,0.0,0.0,0.0,0.0,0.0,0.0,0.0,0.0,0.0,0.0,0.0,0.0,0.0,0.0,0.0,0.0,0.0,0.0,0.0,0.0,0.0,0.0,0.0,0.0,0.0,0.0,0.0,0.0,0.0,0.0,0.0,0.0,0.0,0.0,0.0,0.0,0.0,0.0,0.0,0.0,0.0,0.0,0.0,0.0,0.0,0.0,0.0,0.0,0.0,0.0,0.0,0.0,0.0,0.0,0.0,0.0,0.0,0.0,0.0,0.0,-0.9431,-0.9716,-1.025,-1.0482,-1.0717,-1.0977,0.0,0.0,0.0,0.0,0.0,0.0,0.0,0.0,0.0,0.0,0.0,0.0,0.0,0.0,0.0,0.0,0.0,0.0,0.0,0.0,0.0,0.0,0.0,0.0,0.0,0.0,0.0,0.0,0.0,0.0,0.0,0.0,0.0,0.0,0.0,0.0,0.0,0.0,0.0,0.0,0.0,0.0,0.0,0.0,0.0,0.0,0.0,0.0,0.0,0.0,0.0,0.0,0.0,0.0,0.0,0.0,0.0,0.0,0.0,0.0,0.0,0.0,0.0,0.0,0.0,0.0,0.0,0.0,0.0,0.0,0.0,0.0,0.0,0.0,0.0,0.0,0.0,0.0,0.0,0.0,0.0,0.0,0.0,0.0,0.0,0.0,0.0,0.0,0.0,0.0,0.0,0.0,0.0,0.0,0.0,0.0,0.0,0.0,0.0,0.0,0.0,0.0,0.0,0.0,0.0,0.0,0.0,0.0,-0.9419,-0.9814,-1.0328,-1.0945,-1.1513,-1.1942,0.0,0.0,0.0,0.0,0.0,0.0,0.0,0.0,0.0,0.0,0.0,0.0,0.0,0.0,0.0,0.0,0.0,0.0,0.0,0.0,0.0,0.0,0.0,0.0,0.0,0.0,0.0,0.0,0.0,0.0,0.0,0.0,0.0,0.0,0.0,0.0,0.0,0.0,0.0,0.0,0.0,0.0,0.0,0.0,0.0,0.0,0.0,0.0,0.0,0.0,0.0,0.0,0.0,0.0,0.0,0.0,0.0,0.0,0.0,0.0,0.0,0.0,0.0,0.0,0.0,0.0,0.0,0.0,0.0,0.0,0.0,0.0,0.0,0.0,0.0,0.0,0.0,0.0,0.0,0.0,0.0,0.0,0.0,0.0,0.0,0.0,0.0,0.0,0.0,0.0,0.0,0.0,0.0,0.0,0.0,0.0,0.0,0.0,0.0,0.0,0.0,0.0,0.0,0.0,0.0,0.0,0.0,0.0,0.0,-0.9988,-1.0353,-1.0862,-1.1481,-1.1741,-1.1991,0.0,0.0,0.0,0.0,0.0,0.0,0.0,0.0,0.0,0.0,0.0,0.0,0.0,0.0,0.0,0.0,0.0,0.0,0.0,0.0,0.0,0.0,0.0,0.0,0.0,0.0,0.0,0.0,0.0,0.0,0.0,0.0,0.0,0.0,0.0,0.0,0.0,0.0,0.0,0.0,0.0,0.0,0.0,0.0,0.0,0.0,0.0,0.0,0.0,0.0,0.0,0.0,0.0,0.0,0.0,0.0,0.0,0.0,0.0,0.0,0.0,0.0,0.0,0.0,0.0,0.0,0.0,0.0,0.0,0.0,0.0,0.0,0.0,0.0,0.0,0.0,0.0,0.0,0.0,0.0,0.0,0.0,0.0,0.0,0.0,0.0,0.0,0.0,0.0,0.0,0.0,0.0,0.0,0.0,0.0,0.0,0.0,0.0,0.0,0.0,0.0,0.0,0.0,0.0,0.0,0.0,0.0,0.0,0.0,-1.0535,0.0,-1.1568,-1.201,-1.225,-1.2533,0.0,0.0,0.0,0.0,0.0,0.0,0.0,0.0,0.0,0.0,0.0,0.0,0.0,0.0,0.0,0.0,0.0,0.0,0.0,0.0,0.0,0.0,0.0,0.0,0.0,0.0,0.0,0.0,0.0,0.0,0.0,0.0,0.0,0.0,0.0,0.0,0.0,0.0,0.0,0.0,0.0,0.0,0.0,0.0,0.0,0.0,0.0,0.0,0.0,0.0,0.0,0.0,0.0,0.0,0.0,0.0,0.0,0.0,0.0,0.0,0.0,0.0,0.0,0.0,0.0,0.0,0.0,0.0,0.0,0.0,0.0,0.0,0.0,0.0,0.0,0.0,0.0,0.0,0.0,0.0,0.0,0.0,0.0,0.0,0.0,0.0,0.0,0.0,0.0,0.0,0.0,0.0,0.0,0.0,0.0,0.0,0.0,0.0,0.0,0.0,0.0,0.0,0.0,0.0,0.0,0.0,0.0,0.0,-1.0766,-1.1022,-1.1954,-1.245,-1.2526,-1.318,-1.3656,0.0,0.0,0.0,0.0,0.0,0.0,0.0,0.0,0.0,0.0,0.0,0.0,0.0,0.0,0.0,0.0,0.0,0.0,0.0,0.0,0.0,0.0,0.0,0.0,0.0,0.0,0.0,0.0,0.0,0.0,0.0,0.0,0.0,0.0,0.0,0.0,0.0,0.0,0.0,0.0,0.0,0.0,0.0,0.0,0.0,0.0,0.0,0.0,0.0,0.0,0.0,0.0,0.0,0.0,0.0,0.0,0.0,0.0,0.0,0.0,0.0,0.0,0.0,0.0,0.0,0.0,0.0,0.0,0.0,0.0,0.0,0.0,0.0,0.0,0.0,0.0,0.0,0.0,0.0,0.0,0.0,0.0,0.0,0.0,0.0,0.0,0.0,0.0,0.0,0.0,0.0,0.0,0.0,0.0,0.0,0.0,0.0,0.0,0.0,0.0,0.0,0.0,0.0,0.0,0.0,0.0,0.0,0.0,0.0,-1.2091,-1.2418,-1.2742,-1.3124,-1.3403,-1.3641,0.0,0.0,0.0,0.0,0.0,0.0,0.0,0.0,0.0,0.0,0.0,0.0,0.0,0.0,0.0,0.0,0.0,0.0,0.0,0.0,0.0,0.0,0.0,0.0,0.0,0.0,0.0,0.0,0.0,0.0,0.0,0.0,0.0,0.0,0.0,0.0,0.0,0.0,0.0,0.0,0.0,0.0,0.0,0.0,0.0,0.0,0.0,0.0,0.0,0.0,0.0,0.0,0.0,0.0,0.0,0.0,0.0,0.0,0.0,0.0,0.0,0.0,0.0,0.0,0.0,0.0,0.0,0.0,0.0,0.0,0.0,0.0,0.0,0.0,0.0,0.0,0.0,0.0,0.0,0.0,0.0,0.0,0.0,0.0,0.0,0.0,0.0,0.0,0.0,0.0,0.0,0.0,0.0,0.0,0.0,0.0,0.0,0.0,0.0,0.0,0.0,0.0,0.0,0.0,0.0,0.0,0.0,0.0,0.0,-1.3349,-1.3275,-1.3489,-1.4014,-1.3881,-1.3882,-1.402,0.0,0.0,0.0,0.0,0.0,0.0,0.0,0.0,0.0,0.0,0.0,0.0,0.0,0.0,0.0,0.0,0.0,0.0,0.0,0.0,0.0,0.0,0.0,0.0,0.0,0.0,0.0,0.0,0.0,0.0,0.0,0.0,0.0,0.0,0.0,0.0,0.0,0.0,0.0,0.0,0.0,0.0,0.0,0.0,0.0,0.0,0.0,0.0,0.0,0.0,0.0,0.0,0.0,0.0,0.0,0.0,0.0,0.0,0.0,0.0,0.0,0.0,0.0,0.0,0.0,0.0,0.0,0.0,0.0,0.0,0.0,0.0,0.0,0.0,0.0,0.0,0.0,0.0,0.0,0.0,0.0,0.0,0.0,0.0,0.0,0.0,0.0,0.0,0.0,0.0,0.0,0.0,0.0,0.0,0.0,0.0,0.0,0.0,0.0,0.0,0.0,0.0,0.0,0.0,0.0,0.0,0.0,0.0,-1.4725,-1.4536,-1.4611,-1.4968,-1.4585,-1.4377,0.0,0.0,0.0,0.0,0.0,0.0,0.0,0.0,0.0,0.0,0.0,0.0,0.0,0.0,0.0,0.0,0.0,0.0,0.0,0.0,0.0,0.0,0.0,0.0,0.0,0.0,0.0,0.0,0.0,0.0,0.0,0.0,0.0,0.0,0.0,0.0,0.0,0.0,0.0,0.0,0.0,0.0,0.0,0.0,0.0,0.0,0.0,0.0,0.0,0.0,0.0,0.0,0.0,0.0,0.0,0.0,0.0,0.0,0.0,0.0,0.0,0.0,0.0,0.0,0.0,0.0,0.0,0.0,0.0,0.0,0.0,0.0,0.0,0.0,0.0,0.0,0.0,0.0,0.0,0.0,0.0,0.0,0.0,0.0,0.0,0.0,0.0,0.0,0.0,0.0,0.0,0.0,0.0,0.0,0.0,0.0,0.0,0.0,0.0,0.0,0.0,0.0,0.0,0.0,0.0,0.0,0.0,0.0,0.0,-1.603,-1.6125,-1.5823,-1.5108,-1.5031,-1.4992,0.0,0.0,0.0,0.0,0.0,0.0,0.0,0.0,0.0,0.0,0.0,0.0,0.0,0.0,0.0,0.0,0.0,0.0,0.0,0.0,0.0,0.0,0.0,0.0,0.0,0.0,0.0,0.0,0.0,0.0,0.0,0.0,0.0,0.0,0.0,0.0,0.0,0.0,0.0,0.0,0.0,0.0,0.0,0.0,0.0,0.0,0.0,0.0,0.0,0.0,0.0,0.0,0.0,0.0,0.0,0.0,0.0,0.0,0.0,0.0,0.0,0.0,0.0,0.0,0.0,0.0,0.0,0.0,0.0,0.0,0.0,0.0,0.0,0.0,0.0,0.0,0.0,0.0,0.0,0.0,0.0,0.0,0.0,0.0,0.0,0.0,0.0,0.0,0.0,0.0,0.0,0.0,0.0,0.0,0.0,0.0,0.0,0.0,0.0,0.0,0.0,0.0,0.0,0.0,0.0,0.0,0.0,0.0,-1.5861,-1.6957,-1.7209,-1.7127,-1.6674,-1.6145,-1.5786,0.0,0.0,0.0,0.0,0.0,0.0,0.0,0.0,0.0,0.0,0.0,0.0,0.0,0.0,0.0,0.0,0.0,0.0,0.0,0.0,0.0,0.0,0.0,0.0,0.0,0.0,0.0,0.0,0.0,0.0,0.0,0.0,0.0,0.0,0.0,0.0,0.0,0.0,0.0,0.0,0.0,0.0,0.0,0.0,0.0,0.0,0.0,0.0,0.0,0.0,0.0,0.0,0.0,0.0,0.0,0.0,0.0,0.0,0.0,0.0,0.0,0.0,0.0,0.0,0.0,0.0,0.0,0.0,0.0,0.0,0.0,0.0,0.0,0.0,0.0,0.0,0.0,0.0,0.0,0.0,0.0,0.0,0.0,0.0,0.0,0.0,0.0,0.0,0.0,0.0,0.0,0.0,0.0,0.0,0.0,0.0,0.0,0.0,0.0,0.0,0.0,0.0,0.0,0.0,0.0,0.0,0.0,0.0,-1.6514,-1.7583,-1.7965,-1.8382,-1.876,-1.7547,-1.6709,0.0,0.0,0.0,0.0,0.0,0.0,0.0,0.0,0.0,0.0,0.0,0.0,0.0,0.0,0.0,0.0,0.0,0.0,0.0,0.0,0.0,0.0,0.0,0.0,0.0,0.0,0.0,0.0,0.0,0.0,0.0,0.0,0.0,0.0,0.0,0.0,0.0,0.0,0.0,0.0,0.0,0.0,0.0,0.0,0.0,0.0,0.0,0.0,0.0,0.0,0.0,0.0,0.0,0.0,0.0,0.0,0.0,0.0,0.0,0.0,0.0,0.0,0.0,0.0,0.0,0.0,0.0,0.0,0.0,0.0,0.0,0.0,0.0,0.0,0.0,0.0,0.0,0.0,0.0,0.0,0.0,0.0,0.0,0.0,0.0,0.0,0.0,0.0,0.0,0.0,0.0,0.0,0.0,0.0,0.0,0.0,0.0,0.0,0.0,0.0,0.0,0.0,0.0,0.0,0.0,0.0,0.0,0.0,-1.7103,-1.8179,-1.8543,-1.8728,-1.8766,-1.8067,-1.7653,0.0,0.0,0.0,0.0,0.0,0.0,0.0,0.0,0.0,0.0,0.0,0.0,0.0,0.0,0.0,0.0,0.0,0.0,0.0,0.0,0.0,0.0,0.0,0.0,0.0,0.0,0.0,0.0,0.0,0.0,0.0,0.0,0.0,0.0,0.0,0.0,0.0,0.0,0.0,0.0,0.0,0.0,0.0,0.0,0.0,0.0,0.0,0.0,-2.1853,0.0,0.0,0.0,0.0,0.0,0.0,0.0,0.0,0.0,0.0,0.0,0.0,0.0,0.0,0.0,0.0,0.0,0.0,0.0,0.0,0.0,0.0,0.0,0.0,0.0,0.0,0.0,0.0,0.0,0.0,0.0,0.0,0.0,0.0,0.0,0.0,0.0,0.0,0.0,0.0,0.0,0.0,0.0,0.0,0.0,0.0,0.0,0.0,0.0,0.0,0.0,0.0,0.0,0.0,0.0,0.0,0.0,0.0,0.0,-1.7585,-1.8869,-1.902,-1.9173,-1.9316,-1.8721,-1.8304,0.0,0.0,0.0,0.0,0.0,0.0,0.0,0.0,0.0,0.0,0.0,0.0,0.0,0.0,0.0,0.0,0.0,0.0,0.0,0.0,0.0,0.0,0.0,0.0,0.0,0.0,0.0,0.0,0.0,0.0,0.0,0.0,0.0,0.0,0.0,0.0,0.0,0.0,0.0,0.0,0.0,0.0,0.0,0.0,0.0,0.0,0.0,0.0,0.0,0.0,0.0,0.0,0.0,0.0,0.0,0.0,0.0,0.0,0.0,0.0,0.0,0.0,0.0,0.0,0.0,0.0,0.0,0.0,0.0,0.0,0.0,0.0,0.0,0.0,0.0,0.0,0.0,0.0,0.0,0.0,0.0,0.0,0.0,0.0,0.0,0.0,0.0,0.0,0.0,0.0,0.0,0.0,0.0,0.0,0.0,0.0,0.0,0.0,0.0,0.0,0.0,0.0,0.0,0.0,0.0,0.0,0.0,-1.693,-1.795,-1.9431,-1.9378,-1.9535,-1.9951,-1.9304,-1.8662,-1.8157,0.0,0.0,0.0,0.0,0.0,0.0,0.0,0.0,0.0,0.0,0.0,0.0,0.0,0.0,0.0,0.0,0.0,0.0,0.0,0.0,0.0,0.0,0.0,0.0,0.0,0.0,0.0,0.0,0.0,0.0,0.0,0.0,0.0,0.0,0.0,0.0,0.0,0.0,-1.9423,-2.001,0.0,0.0,0.0,0.0,0.0,0.0,0.0,0.0,-2.1911,0.0,0.0,0.0,0.0,0.0,0.0,0.0,0.0,0.0,0.0,0.0,0.0,0.0,0.0,0.0,0.0,0.0,0.0,0.0,0.0,0.0,0.0,0.0,0.0,0.0,0.0,0.0,0.0,0.0,0.0,0.0,0.0,0.0,0.0,0.0,0.0,0.0,0.0,0.0,0.0,0.0,0.0,0.0,0.0,0.0,0.0,0.0,0.0,0.0,0.0,0.0,0.0,0.0,0.0,0.0,0.0,-1.65,-1.7358,-1.8399,-1.9574,-1.9378,-1.9535,-1.9951,-1.9258,-1.8726,-1.8375,0.0,0.0,0.0,0.0,0.0,0.0,0.0,0.0,0.0,0.0,0.0,0.0,0.0,0.0,0.0,0.0,0.0,0.0,0.0,0.0,0.0,0.0,0.0,0.0,0.0,0.0,0.0,0.0,0.0,0.0,0.0,0.0,0.0,0.0,0.0,0.0,0.0,0.0,0.0,-2.0845,-2.1272,0.0,0.0,0.0,0.0,0.0,0.0,0.0,0.0,-2.2113,0.0,0.0,0.0,0.0,0.0,0.0,0.0,0.0,0.0,0.0,0.0,0.0,0.0,0.0,0.0,0.0,0.0,0.0,0.0,0.0,0.0,0.0,0.0,0.0,0.0,0.0,0.0,0.0,0.0,0.0,0.0,0.0,0.0,0.0,0.0,0.0,0.0,0.0,0.0,0.0,0.0,0.0,0.0,0.0,0.0,0.0,0.0,0.0,0.0,0.0,0.0,0.0,0.0,0.0,0.0,-1.7116,-1.8037,-1.8919,-1.9663,-1.9512,-1.9538,-1.9687,-1.902,-1.8438,0.0,0.0,0.0,0.0,0.0,0.0,0.0,0.0,0.0,0.0,0.0,0.0,0.0,0.0,0.0,0.0,0.0,0.0,0.0,0.0,0.0,0.0,0.0,0.0,0.0,0.0,0.0,0.0,0.0,0.0,0.0,0.0,0.0,0.0,0.0,0.0,0.0,0.0,0.0,0.0,-2.133,-2.1495,-2.1495,0.0,0.0,0.0,0.0,0.0,0.0,-2.2478,-2.2689,0.0,0.0,0.0,0.0,0.0,0.0,0.0,0.0,0.0,0.0,0.0,0.0,0.0,0.0,0.0,0.0,0.0,0.0,0.0,0.0,0.0,0.0,0.0,0.0,0.0,0.0,0.0,0.0,0.0,0.0,0.0,0.0,0.0,0.0,0.0,0.0,0.0,0.0,0.0,0.0,0.0,0.0,0.0,0.0,0.0,0.0,0.0,0.0,0.0,0.0,0.0,0.0,0.0,0.0,0.0,-1.7701,-1.8528,-1.928,-1.9839,-1.9537,-1.9404,-1.9467,-1.8772,-1.8211,0.0,0.0,0.0,0.0,0.0,0.0,0.0,0.0,0.0,0.0,0.0,0.0,0.0,0.0,0.0,0.0,0.0,0.0,0.0,0.0,0.0,0.0,0.0,0.0,0.0,0.0,0.0,0.0,0.0,0.0,0.0,0.0,0.0,0.0,0.0,0.0,0.0,0.0,0.0,0.0,0.0,-2.1653,-2.1817,-2.1755,0.0,0.0,0.0,0.0,-2.3185,-2.3276,0.0,0.0,0.0,0.0,0.0,0.0,0.0,0.0,0.0,0.0,0.0,0.0,0.0,0.0,0.0,0.0,0.0,0.0,0.0,0.0,0.0,0.0,0.0,0.0,0.0,0.0,0.0,0.0,0.0,0.0,0.0,0.0,0.0,0.0,0.0,0.0,0.0,0.0,0.0,0.0,0.0,0.0,0.0,0.0,0.0,0.0,0.0,0.0,0.0,0.0,0.0,0.0,0.0,0.0,0.0,0.0,-1.788,-1.8299,-1.907,-1.9958,-1.9244,-1.9017,-1.9485,-1.8772,-1.8254,0.0,0.0,0.0,0.0,0.0,0.0,0.0,0.0,0.0,0.0,0.0,0.0,0.0,0.0,0.0,0.0,0.0,0.0,0.0,0.0,0.0,0.0,0.0,0.0,0.0,0.0,0.0,0.0,0.0,0.0,0.0,0.0,0.0,0.0,0.0,0.0,0.0,0.0,0.0,0.0,0.0,-2.1908,-2.2567,-2.2603,-2.2769,0.0,0.0,-2.3786,-2.3851,-2.398,0.0,0.0,0.0,0.0,0.0,0.0,0.0,0.0,0.0,0.0,0.0,0.0,0.0,0.0,0.0,0.0,0.0,0.0,0.0,0.0,0.0,0.0,0.0,0.0,0.0,0.0,0.0,0.0,0.0,0.0,0.0,0.0,0.0,0.0,0.0,0.0,0.0,0.0,0.0,0.0,0.0,0.0,0.0,0.0,0.0,0.0,0.0,0.0,0.0,0.0,0.0,0.0,0.0,0.0,0.0,-1.8757,-1.8598,-1.8995,-1.9514,-2.0159,-1.939,-1.9235,-1.9751,-1.8793,-1.8208,0.0,0.0,0.0,0.0,0.0,0.0,0.0,0.0,0.0,0.0,0.0,0.0,0.0,0.0,0.0,0.0,0.0,0.0,0.0,0.0,0.0,0.0,0.0,0.0,0.0,0.0,0.0,0.0,0.0,0.0,0.0,0.0,0.0,0.0,0.0,0.0,0.0,0.0,0.0,0.0,0.0,0.0,-2.3357,-2.3424,0.0,0.0,0.0,-2.4579,-2.4647,0.0,0.0,0.0,0.0,0.0,0.0,0.0,0.0,0.0,0.0,0.0,0.0,0.0,0.0,0.0,0.0,0.0,0.0,0.0,0.0,0.0,0.0,0.0,0.0,0.0,0.0,0.0,0.0,0.0,0.0,0.0,0.0,0.0,0.0,0.0,0.0,0.0,0.0,0.0,0.0,0.0,0.0,0.0,0.0,0.0,0.0,0.0,0.0,0.0,0.0,0.0,0.0,0.0,0.0,0.0,0.0,0.0,-1.9184,-1.9623,-2.0014,-2.0401,-1.9726,-1.9573,-2.0029,-1.892,0.0,0.0,0.0,0.0,0.0,0.0,0.0,0.0,0.0,0.0,0.0,0.0,0.0,0.0,0.0,0.0,0.0,0.0,0.0,0.0,0.0,0.0,0.0,0.0,0.0,0.0,0.0,-2.1168,0.0,0.0,0.0,0.0,0.0,0.0,0.0,0.0,0.0,0.0,0.0,0.0,0.0,0.0,-2.3484,-2.4182,-2.4282,-2.4315,0.0,0.0,-2.5375,-2.5513,-2.5581,-2.5715,0.0,0.0,0.0,0.0,0.0,0.0,0.0,0.0,0.0,0.0,0.0,0.0,0.0,0.0,0.0,0.0,0.0,0.0,0.0,0.0,0.0,0.0,0.0,0.0,0.0,0.0,0.0,0.0,0.0,0.0,0.0,0.0,0.0,0.0,0.0,0.0,0.0,0.0,0.0,0.0,0.0,0.0,0.0,0.0,0.0,0.0,0.0,0.0,0.0,0.0,0.0,0.0,0.0,0.0,0.0,-1.9396,-1.9912,-2.0378,-2.0739,-2.0124,-1.9904,-2.0259,-1.9095,-1.8556,0.0,0.0,0.0,0.0,0.0,0.0,0.0,0.0,0.0,0.0,0.0,0.0,0.0,0.0,0.0,0.0,0.0,0.0,0.0,0.0,0.0,0.0,0.0,0.0,0.0,0.0,0.0,0.0,0.0,0.0,0.0,0.0,0.0,0.0,0.0,0.0,0.0,0.0,0.0,0.0,0.0,-2.4443,-2.5046,-2.5113,-2.5413,0.0,0.0,-2.6247,-2.6418,-2.6454,-2.6556,-2.6791,0.0,0.0,0.0,0.0,0.0,0.0,0.0,0.0,0.0,0.0,0.0,0.0,0.0,0.0,0.0,0.0,0.0,0.0,0.0,0.0,0.0,0.0,0.0,0.0,0.0,0.0,0.0,0.0,0.0,0.0,0.0,0.0,0.0,0.0,0.0,0.0,0.0,0.0,0.0,0.0,0.0,0.0,0.0,0.0,0.0,0.0,0.0,0.0,0.0,0.0,0.0,0.0,0.0,-1.9707,-1.9611,-2.0251,-2.0813,-2.1082,-2.0487,-2.0349,-2.071,-1.9534,-1.8912,0.0,0.0,0.0,0.0,0.0,0.0,0.0,0.0,0.0,0.0,0.0,0.0,0.0,0.0,0.0,0.0,0.0,0.0,0.0,0.0,0.0,0.0,0.0,0.0,0.0,0.0,0.0,0.0,-2.1882,-2.2003,-2.2175,0.0,0.0,0.0,0.0,0.0,0.0,0.0,0.0,0.0,0.0,-2.5246,-2.5915,-2.6016,0.0,0.0,-2.645,-2.6417,-2.6554,-2.6623,-2.6725,-2.6926,-2.7466,0.0,0.0,0.0,0.0,0.0,0.0,0.0,0.0,0.0,0.0,0.0,0.0,0.0,0.0,0.0,0.0,0.0,0.0,0.0,0.0,0.0,0.0,0.0,0.0,0.0,0.0,0.0,0.0,0.0,0.0,0.0,0.0,0.0,0.0,0.0,0.0,0.0,0.0,0.0,0.0,0.0,0.0,0.0,0.0,0.0,0.0,0.0,0.0,0.0,0.0,0.0,0.0,-1.9869,-2.0074,-2.0842,-2.1422,-2.1732,-2.1357,-2.1188,-2.1164,-2.0138,-1.953,0.0,0.0,0.0,0.0,0.0,0.0,0.0,0.0,0.0,0.0,0.0,0.0,0.0,0.0,0.0,0.0,0.0,0.0,0.0,0.0,0.0,0.0,0.0,0.0,0.0,0.0,0.0,0.0,-2.2204,-2.2483,-2.2829,0.0,0.0,0.0,0.0,0.0,0.0,0.0,0.0,0.0,0.0,-2.605,-2.6556,-2.6623,-2.6623,-2.6657,-2.6791,-2.6994,-2.7029,-2.7267,-2.7539,-2.7707,0.0,0.0,0.0,0.0,0.0,0.0,0.0,0.0,0.0,0.0,0.0,0.0,0.0,0.0,0.0,0.0,0.0,0.0,0.0,0.0,0.0,0.0,0.0,0.0,0.0,0.0,0.0,0.0,0.0,0.0,-1.7374,0.0,0.0,0.0,0.0,0.0,0.0,0.0,0.0,0.0,0.0,0.0,0.0,0.0,0.0,0.0,0.0,0.0,0.0,0.0,0.0,0.0,0.0,-2.0201,-2.0971,-2.1637,-2.2243,-2.2757,-2.2787,-2.2445,-2.1724,-2.1006,-2.0348,-1.972,0.0,0.0,0.0,0.0,0.0,0.0,0.0,0.0,0.0,0.0,0.0,0.0,0.0,0.0,0.0,0.0,0.0,0.0,0.0,0.0,0.0,0.0,0.0,0.0,0.0,0.0,-2.2094,-2.2849,-2.3493,0.0,0.0,0.0,0.0,0.0,0.0,0.0,0.0,0.0,0.0,-2.6512,-2.6957,-2.6893,-2.6893,-2.696,-2.7026,-2.7538,-2.8015,-2.8049,-2.8698,-2.9315,0.0,0.0,0.0,0.0,0.0,0.0,0.0,0.0,0.0,0.0,0.0,0.0,0.0,0.0,0.0,0.0,0.0,0.0,0.0,0.0,0.0,0.0,0.0,0.0,0.0,0.0,0.0,-1.8309,-1.8528,0.0,0.0,0.0,0.0,0.0,0.0,0.0,0.0,0.0,0.0,0.0,-2.1273,-2.1311,0.0,0.0,0.0,0.0,0.0,0.0,0.0,0.0,0.0,0.0,0.0,0.0,-2.1024,-2.1797,-2.2486,-2.2876,-2.2991,-2.3092,-2.293,-2.2566,-2.1477,-2.06,-2.0005,0.0,0.0,0.0,0.0,0.0,0.0,0.0,0.0,0.0,0.0,0.0,0.0,0.0,0.0,0.0,0.0,0.0,0.0,0.0,0.0,0.0,0.0,0.0,0.0,0.0,-2.3148,0.0,0.0,0.0,0.0,0.0,0.0,0.0,0.0,0.0,0.0,0.0,-2.6135,-2.6105,-2.6702,-2.7324,-2.7839,-2.7908,-2.808,0.0,0.0,0.0,0.0,0.0,0.0,0.0,0.0,0.0,0.0,0.0,0.0,0.0,0.0,-3.3005,-3.0752,-3.0487,-3.0749,-3.1339,0.0,0.0,0.0,0.0,0.0,0.0,0.0,0.0,0.0,0.0,0.0,0.0,0.0,0.0,0.0,0.0,-2.0287,0.0,0.0,0.0,0.0,0.0,0.0,0.0,0.0,-2.1454,-2.1698,-2.2095,-2.2095,-2.2133,0.0,-2.224,-2.1818,0.0,0.0,0.0,0.0,0.0,0.0,0.0,0.0,-2.1835,-2.2561,-2.3064,-2.3412,-2.3569,-2.3631,-2.3508,-2.3222,-2.1941,-2.0962,-2.032,-2.0426,-2.0527,0.0,0.0,0.0,0.0,0.0,0.0,0.0,0.0,0.0,0.0,0.0,0.0,0.0,0.0,0.0,0.0,0.0,0.0,0.0,0.0,0.0,0.0,0.0,-2.413,0.0,0.0,0.0,0.0,0.0,0.0,0.0,0.0,0.0,-2.6149,-2.6446,-2.677,-2.7048,-2.7473,-2.7999,-2.8793,0.0,0.0,0.0,0.0,0.0,0.0,0.0,-3.0732,-3.1077,-3.1702,-3.2401,-3.3278,-3.4476,-3.5323,-3.5426,0.0,0.0,-3.2603,-3.2337,-3.2667,-3.3255,-3.3481,-3.3806,-3.4495,-3.4688,-3.489,0.0,0.0,0.0,0.0,0.0,0.0,0.0,0.0,-2.1152,-2.1446,0.0,-2.1926,0.0,0.0,0.0,0.0,0.0,-2.2217,0.0,0.0,-2.2347,-2.2347,-2.2409,-2.2471,-2.244,-2.2378,-2.2478,-2.2409,-2.2385,-2.2385,0.0,0.0,0.0,0.0,0.0,0.0,-2.2622,-2.3303,-2.3363,-2.3739,-2.4451,-2.4482,-2.4213,-2.3616,-2.2384,-2.145,-2.0821,-2.0793,-2.0893,-2.1119,-2.1183,0.0,0.0,0.0,0.0,0.0,0.0,0.0,0.0,0.0,0.0,0.0,0.0,0.0,0.0,0.0,0.0,0.0,0.0,0.0,0.0,-2.4643,0.0,0.0,0.0,0.0,0.0,0.0,0.0,0.0,0.0,0.0,-2.783,-2.7712,-2.7932,-2.8732,0.0,0.0,0.0,0.0,-2.9894,-2.9929,-3.0488,-3.1045,-3.1183,-3.1812,-3.2617,-3.3565,0.0,0.0,-3.5249,-3.5663,-3.5833,-3.5865,-3.6064,-3.5986,-3.5732,-3.5648,-3.5732,-3.6024,-3.6113,-3.6274,-3.6527,-3.6759,-3.6814,-2.1431,0.0,0.0,0.0,0.0,-2.067,-2.0922,-2.1181,-2.1545,-2.1862,-2.2133,-2.2279,0.0,0.0,0.0,0.0,0.0,0.0,-2.2563,-2.3025,-2.3517,-2.3979,-2.4471,-2.4964,-2.4945,-2.4596,-2.4596,-2.4389,-2.3933,-2.4013,-2.3546,-2.243,0.0,0.0,0.0,0.0,-2.3549,-2.4184,-2.4213,-2.4315,-2.4533,-2.4645,-2.4453,-2.3815,-2.3111,-2.2388,-2.1722,-2.1343,-2.1246,-2.1466,-2.1495,0.0,0.0,0.0,0.0,0.0,0.0,0.0,0.0,0.0,0.0,0.0,0.0,0.0,0.0,0.0,0.0,0.0,0.0,0.0,-2.5582,-2.5877,-2.6214,0.0,0.0,0.0,0.0,0.0,0.0,0.0,0.0,0.0,-2.9781,-2.9136,-2.8946,0.0,0.0,-3.011,-3.0921,-3.1026,-3.1203,-3.1731,0.0,0.0,0.0,-3.3739,-3.441,-3.4762,-3.5398,-3.5998,-3.645,-3.7123,-3.7766,-3.8474,-3.8716,-3.8925,-3.9292,-3.7546,-3.6625,-3.7617,-3.8007,-3.8508,-3.9697,-4.0089,-4.0081,-2.3031,-2.1434,-2.1741,-2.1897,-2.2062,-2.2377,-2.2615,-2.292,-2.3348,-2.3529,-2.3526,-2.3764,-2.3725,-2.3467,-2.3682,0.0,0.0,0.0,-2.4143,-2.4502,-2.4933,-2.5364,-2.5764,-2.6178,-2.6192,-2.5908,-2.5951,-2.5819,-2.554,-2.5664,-2.5296,-2.4406,0.0,0.0,-2.4147,-2.416,-2.4346,-2.4752,-2.4752,-2.4784,-2.4775,-2.4926,-2.4696,-2.4079,-2.3811,-2.3372,-2.2797,-2.2476,-2.2408,-2.263,-2.2692,-2.2399,0.0,0.0,0.0,0.0,0.0,0.0,0.0,0.0,0.0,0.0,0.0,-2.3543,0.0,0.0,0.0,0.0,-2.5177,-2.5936,-2.676,-2.7198,0.0,0.0,0.0,0.0,0.0,0.0,0.0,-2.9891,-3.0349,-3.0801,-3.1153,-3.0957,-3.0766,-3.0853,-3.0823,-3.128,-3.2382,0.0,-3.2808,-3.3555,-3.4088,-3.4406,-3.4508,-3.4934,-3.5431,-3.5921,-3.6775,-3.7377,-3.758,-3.8328,-3.915,-3.9758,-4.022,-4.0683,-4.1224,-3.9577,-3.8516,-3.9601,-3.9852,-4.0251,-4.1334,-4.1549,-4.1623,-2.471,-2.4259,-2.4515,-2.4604,-2.4533,-2.48,-2.511,-2.5491,-2.5863,-2.5891,-2.5641,-2.5904,-2.5638,-2.5004,-2.554,0.0,-2.5645,-2.6267,-2.6421,-2.6318,-2.6456,-2.6517,-2.6517,-2.6652,-2.6665,-2.6647,-2.6767,-2.6867,-2.6977,-2.7063,-2.7264,-2.741,-2.5996,-2.5192,-2.5161,-2.5092,-2.5052,-2.5048,-2.5048,-2.5112,-2.513,-2.5278,-2.5104,-2.4539,-2.4515,-2.4332,-2.3917,-2.3918,-2.4016,-2.4211,-2.4243,-2.3614,-2.2335,0.0,0.0,0.0,0.0,0.0,0.0,0.0,0.0,0.0,0.0,0.0,0.0,0.0,0.0,0.0,-2.6184,0.0,-2.7836,-2.8629,0.0,0.0,0.0,-3.0481,-3.0664,-3.0765,-3.0859,-3.0908,0.0,0.0,-3.222,0.0,-3.3064,-3.2138,-3.2036,-3.2572,-3.4038,-3.4181,-3.4503,-3.518,-3.5395,-3.5464,-3.5531,-3.5738,-3.6194,-3.7039,-3.7931,-3.8501,-3.8674,-3.9454,-4.0025,-4.0277,-4.0929,-4.1576,-4.1674,-4.1705,-4.1705,-4.1705,-4.1668,-4.163,-4.2017,-4.2121,-4.2382,-2.706,-2.7088,-2.7478,-2.6491,-2.4681,-2.4966,-2.5396,-2.5863,-2.6228,-2.6448,-2.6585,-2.6757,-2.6718,-2.6527,-2.6577,-2.6585,-2.6535,-2.6621,-2.6629,-2.6616,-2.7145,-2.7394,-2.7425,-2.8,-2.8061,-2.7753,-2.7753,-2.7644,-2.7432,-2.7515,-2.7639,-2.777,-2.751,-2.7016,-2.6315,-2.5726,-2.5445,-2.5464,-2.5464,-2.5459,-2.5551,-2.5589,-2.5598,-2.5509,-2.5165,-2.4908,-2.4811,-2.4413,-2.4273,-2.443,-2.443,-2.4264,-2.393,-2.5019,0.0,0.0,0.0,0.0,0.0,0.0,0.0,0.0,0.0,-2.5454,-2.5473,0.0,-2.6352,0.0,-2.7763,-2.8918,-2.9692,-3.003,0.0,0.0,-3.0498,-3.0664,-3.0779,-3.1405,-3.188,-3.1936,-3.25,-3.3247,-3.4076,-3.4331,-3.4557,-3.4897,-3.4914,-3.4966,-3.5363,-3.5399,-3.5471,-3.5724,-3.623,-3.6624,-3.6721,-3.7321,-3.7817,-3.8136,-3.8957,-3.9595,-3.9626,-4.0456,-4.1256,-4.1872,-4.2199,-4.2699,-4.3379,-4.3558,-4.3558,-4.358,-4.3007,-4.2909,-4.4191,-4.4451,-4.4705,-2.8425,-2.8254,-2.8708,-2.8057,-2.6821,-2.7047,-2.745,-2.7893,-2.823,-2.8311,-2.8261,-2.8075,-2.7997,-2.8009,-2.8234,-2.8357,-2.8309,-2.8514,-2.8607,-2.8638,-2.9014,-2.9218,-2.9265,-2.9721,-2.9832,-2.9639,-2.9731,-2.972,-2.9675,-2.9436,-2.9368,-2.9535,-2.9026,-2.8527,-2.8083,-2.7158,-2.6738,-2.6709,-2.6738,-2.6639,-2.6339,-2.6377,-2.6319,-2.6099,-2.5773,-2.5712,-2.5782,-2.5547,-2.5441,-2.5569,-2.5598,-2.5595,-2.5627,-2.6289,-2.733,0.0,0.0,0.0,0.0,0.0,0.0,0.0,0.0,0.0,0.0,0.0,-2.8443,0.0,-2.9405,-3.0141,-3.0534,-3.1009,-3.1312,-3.134,-3.173,-3.1968,-3.2081,-3.2565,-3.3049,-3.346,-3.3927,-3.454,-3.5402,-3.5871,-3.6266,-3.6736,-3.7074,-3.7058,-3.6583,-3.651,-3.6687,-3.7015,-3.7421,-3.7776,-3.79,-3.8328,-3.8823,-3.9282,-3.9845,-4.0341,-4.0711,-4.1512,-4.2277,-4.2746,-4.3155,-4.3558,-4.4132,-4.4244,-4.4274,-4.4296,-4.4229,-4.4431,-4.5251,-4.5736,-4.6253,-2.932,-2.8856,-2.9307,-2.9584,-2.9749,-2.9943,-3.0091,-3.0247,-3.0536,-3.0479,-3.0082,-2.9627,-2.9343,-2.9453,-3.007,-3.0288,-3.0261,-3.0804,-3.1092,-3.1061,-3.1092,-3.116,-3.1307,-3.1405,-3.155,-3.1694,-3.1821,-3.201,-3.2256,-3.1757,-3.1594,-3.1735,-3.0629,-3.0037,-3.0021,-2.9072,-2.8464,-2.818,-2.8213,-2.7987,-2.7354,-2.7433,-2.7178,-2.6549,-2.6516,-2.6588,-2.6691,-2.6758,-2.6825,-2.699,-2.7087,-2.7184,-2.7313,-2.7709,-2.8689,0.0,-2.9727,0.0,0.0,0.0,0.0,0.0,0.0,0.0,0.0,-3.0664,-3.07,-3.0778,-3.0923,-3.1044,-3.1153,-3.2017,-3.2573,-3.2657,-3.3385,-3.3915,-3.4055,-3.4083,-3.4394,-3.511,-3.5248,-3.557,-3.65,-3.7295,-3.7785,-3.7988,-3.8535,-3.8628,-3.7816,-3.7647,-3.7904,-3.8603,-3.8676,-3.8633,-3.8818,-3.895,-3.9266,-4.0188,-4.0607,-4.0961,-4.1782,-4.2623,-4.3212,-4.3287,-4.381,-4.4258,-4.4362,-4.4362,-4.4429,-4.4627,-4.5227,-4.5723,-4.5851,-4.6382,-4.7199,-3.0661,-3.0543,-3.1036,-3.1403,-3.1713,-3.1793,-3.1344,-3.0536,-3.0791,-3.093,-3.0984,-3.0826,-3.0875,-3.0956,-3.1148,-3.1255,-3.1299,-3.1417,-3.1534,-3.163,-3.1678,-3.1726,-3.1869,-3.1869,-3.201,-3.221,-3.2289,-3.2471,-3.2785,-3.2652,-3.2673,-3.2804,-3.2555,-3.2131,-3.1618,0.0,0.0,0.0,-2.8682,-2.8636,-2.8501,-2.8612,-2.8347,-2.7637,-2.7673,0.0,-2.6893,-2.699,-2.7053,-2.7184,-2.7927,0.0,0.0,0.0,0.0,0.0,0.0,0.0,0.0,0.0,0.0,0.0,-3.3761,-3.3259,-3.1148,-3.0939,-3.1201,-3.1852,-3.2028,-3.2365,-3.2993,-3.3899,-3.4486,-3.4522,-3.5303,-3.5873,-3.5956,-3.6001,-3.6192,-3.6318,-3.6408,-3.6768,-3.7575,-3.7888,-3.8275,-3.8872,-3.9186,-3.9223,-3.9021,-3.885,-3.885,-3.8998,-3.8998,-3.9027,-3.9147,-3.9229,-3.9544,-4.0435,-4.1274,-4.2002,-4.2827,-4.3652,-4.4177,-4.4205,-4.4365,-4.4468,-4.4524,-4.4551,-4.4766,-4.5563,-4.6372,-4.6938,-4.6835,-4.7408,-4.8265,-3.2408,0.0,-3.2516,-3.268,0.0,-3.2788,-3.2422,-3.1925,-3.2029,-3.2132,-3.2336,-3.2387,-3.245,-3.2558,-3.2602,-3.267,-3.2716,-3.2819,-3.2902,-3.3096,-3.3129,-3.3273,-3.3463,-3.3463,-3.3557,-3.3743,-3.3743,-3.3835,-3.4063,-3.3751,-3.3671,-3.3802,-3.3499,-3.3182,-3.2917,-3.2929,-3.1992,-2.9967,-3.0032,-2.9837,-2.9499,-2.961,-2.9344,-2.8698,0.0,0.0,0.0,0.0,0.0,0.0,0.0,0.0,0.0,0.0,0.0,-3.2349,-3.2169,-3.2444,-3.3343,-3.3988,-3.4503,-3.4981,-3.5551,-3.5229,-3.3707,-3.3606,-3.3789,-3.4162,-3.4376,-3.4605,-3.5009,-3.5514,-3.5853,-3.5853,-3.6276,-3.6615,-3.6668,-3.677,-3.697,-3.7418,-3.7542,-3.789,-3.8715,-3.8901,-3.91,-3.9476,-3.9599,-3.9661,-3.9661,-3.9452,-3.9298,-3.9298,-3.9298,-3.9324,-3.9376,-3.9452,-3.9977,-4.118,-4.187,-4.2674,-4.3882,-4.441,-4.4712,-4.4712,-4.4712,-4.4712,-4.4738,-4.4764,-4.5054,-4.5937,-4.6821,-4.7555,-4.7946,-4.8586,-4.9211,-3.397,-3.4057,-3.3798,-3.3785,-3.3979,-3.3638,-3.3634,-3.371,0.0,0.0,0.0,-3.3642,-3.377,-3.3825,-3.3893,-3.3989,-3.4055,-3.417,-3.4415,-3.484,-3.484,-3.5051,-3.5424,-3.5424,-3.5471,-3.5613,-3.5613,-3.5706,-3.5799,-3.5116,-3.4834,-3.4931,-3.4321,-3.4074,-3.4069,-3.402,-3.3269,-3.1884,-3.1671,-3.1325,-3.0711,-3.072,-3.0347,-2.9696,-2.9661,-2.973,-2.9726,-2.976,-2.9824,-2.9954,-2.9811,-3.0282,-3.1474,-3.1876,-3.2565,-3.3749,-3.3851,-3.4229,-3.5031,-3.5899,-3.6482,-3.6758,-3.6891,-3.679,-3.6408,-3.638,-3.638,-3.6343,-3.6491,-3.6535,-3.6562,-3.6816,-3.6994,-3.6994,-3.7181,-3.7368,-3.7416,-3.7451,-3.7859,-3.847,-3.8667,-3.8939,-3.958,-3.9747,-3.9851,-3.9873,-3.9895,-4.003,-4.0122,-4.0042,-3.9876,-3.9876,-3.9914,-3.9863,-3.9873,-3.9792,-4.0465,-4.1949,-4.2375,-4.3042,-4.4407,-4.4938,-4.4938,-4.4938,-4.4938,-4.4938,-4.4962,-4.4962,-4.5328,-4.6388,-4.7096,-4.7881,-4.8967,-4.9657,-4.9974,-3.4475,-3.4589,-3.4701,-3.4898,-3.518,-3.5086,-3.5189,-3.5336,-3.4154,-3.3642,-3.3694,-3.3797,-3.3944,-3.4053,-3.4165,-3.4382,-3.4612,-3.4607,-3.5166,0.0,-3.61,-3.6611,-3.7455,-3.7503,-3.755,-3.7644,-3.7644,-3.7772,-3.7763,-3.7081,-3.6706,-3.6683,-3.6146,-3.5608,-3.5145,-3.4599,-3.4241,-3.4036,-3.3269,-3.2812,-3.2668,-3.2156,-3.1498,-3.0733,-3.0836,-3.0522,-2.9892,-3.0088,-3.0145,-3.0269,-3.0995,-3.1826,-3.2865,-3.364,-3.4552,-3.5526,-3.5629,-3.5791,-3.6168,-3.6417,-3.6949,-3.779,-3.7891,-3.7541,-3.6742,-3.6642,-3.6642,-3.6642,-3.6794,-3.677,-3.6883,-3.7567,-3.8016,-3.8126,-3.8785,-3.927,-3.9218,-3.9324,-3.9467,-3.9678,-3.9764,-3.9865,-4.0055,-4.0099,-4.012,-4.0139,-4.0139,-4.0406,-4.0882,-4.1081,-4.0988,-4.0965,-4.0965,-4.0988,-4.0767,-4.0409,-4.0756,-4.2243,-4.2569,-4.3161,-4.4798,-4.5103,-4.5103,-4.508,-4.5103,-4.5103,-4.5148,-4.5148,-4.584,-4.7067,-4.7723,-4.8302,-4.9739,-5.0298,-5.0352,-3.6032,-3.6146,-3.5886,-3.6014,-3.6326,-3.6107,-3.6077,-3.612,-3.5682,-3.5318,-3.511,-3.5318,-3.5491,-3.5611,-3.5744,-3.5976,-3.6229,-3.6267,-3.6678,-3.73,-3.7394,-3.7704,-3.815,-3.8277,-3.8288,-3.8368,-3.8368,-3.8414,-3.8425,-3.8081,-3.7988,-3.7998,-3.7819,-3.7652,-3.737,-3.6811,-3.6552,-3.6575,-3.4865,-3.3977,-3.3979,-3.3666,-3.3352,-3.3038,-3.3143,-3.3071,-3.2751,-3.2885,-3.3016,-3.3108,-3.353,-3.4047,-3.4661,-3.5048,-3.5599,-3.6142,-3.6633,-3.7034,-3.7202,-3.7824,-3.8415,-3.8852,-3.8939,-3.8812,-3.8413,-3.8253,-3.8177,-3.8228,-3.8278,-3.8351,-3.8399,-3.8809,-3.9081,-3.9188,-3.9618,-3.9873,-3.9933,-4.0017,-4.0269,-4.0632,-4.0444,-4.0444,-4.0845,-4.0593,-4.0356,-4.0356,-4.0356,-4.0547,-4.0931,-4.132,-4.1475,-4.1376,-4.1355,-4.1127,-4.0804,-4.0463,-4.0902,-4.241,-4.2717,-4.3463,-4.4878,-4.526,-4.526,-4.526,-4.526,-4.526,-4.5301,-4.536,-4.6107,-4.743,-4.7989,-4.8682,-5.0046,-5.0606,-5.0624,-3.7417,-3.7531,-3.7195,-3.7199,-3.739,-3.7166,-3.7045,-3.7098,-3.736,-3.7308,-3.7065,-3.6927,-3.6919,-3.7036,-3.7203,-3.7385,-3.7643,-3.7773,-3.8099,-3.8457,-3.8643,-3.8803,-3.9077,-3.9212,-3.9257,-3.9302,-3.9302,-3.9302,-3.9302,-3.9128,-3.8989,-3.9008,-3.9161,-3.9236,-3.9301,-3.8964,-3.8777,-3.869,-3.6791,-3.5543,-3.5117,-3.4941,-3.4871,-3.4942,-3.5048,-3.5153,-3.5256,-3.5323,-3.5457,-3.562,-3.562,-3.582,-3.6249,-3.6309,-3.6538,-3.6932,-3.7599,-3.8072,-3.8298,-3.9052,-3.9575,-3.9623,-3.9693,-3.98,-3.9845,-3.9647,-3.9551,-3.9599,-3.9548,-3.9656,-3.9687,-3.9769,-3.9987,-4.0182,-4.0363,-4.0596,-4.073,-4.0807,-4.1016,-4.1494,-4.1123,-4.0943,-4.1174,-4.0893,-4.0569,-4.053,-4.053,-4.0607,-4.0838,-4.1455,-4.1739,-4.1677,-4.1607,-4.1379,-4.0633,-4.0401,-4.0994,-4.2353,-4.2793,-4.354,-4.469,-4.5246,-4.5438,-4.5438,-4.5438,-4.5438,-4.5457,-4.5475,-4.6242,-4.7645,-4.8086,-4.87,-5.0316,-5.0756,-5.0776,-3.7943,-3.8059,-3.8165,-3.8334,-3.8437,-3.8646,-3.8722,-3.8776,-3.911,-3.932,-3.9172,-3.7886,-3.7402,-3.7483,-3.7599,-3.7826,-3.8125,-3.8184,-3.878,-3.9583,-3.9686,-4.0249,-4.0986,-4.1101,-4.1216,-4.1235,-4.1244,-4.1209,-4.1174,-4.0613,-4.0079,-3.9573,-3.9517,-3.9757,-3.9934,-4.0086,-4.0152,-4.0094,-3.9286,-3.8029,-3.6328,-3.5579,-3.5291,-3.5357,-3.5424,-3.5522,-3.5728,-3.5684,-3.5846,-3.5927,-3.5994,-3.6413,-3.7316,-3.7456,-3.7866,-3.873,-3.8943,-3.908,-3.9339,-3.9561,-3.9792,-3.9762,-3.9943,-4.0025,-4.0051,-4.0013,-3.9933,-3.9965,-3.9927,-3.9987,-3.9975,-4.0093,-4.0497,-4.1226,-4.1399,-4.178,-4.2371,-4.2713,-4.2556,-4.2091,-4.1863,-4.1538,-4.1022,-4.0783,-4.0681,-4.0681,-4.0681,-4.0875,-4.1455,-4.1687,-4.1828,-4.1865,-4.1817,-4.1684,-4.1399,-4.0954,-4.1069,-4.1838,-4.253,-4.3431,-4.4393,-4.5201,-4.5586,-4.5603,-4.5586,-4.5565,-4.5599,-4.5654,-4.621,-4.7786,-4.8458,-4.8883,-5.031,-5.0863,-5.0846,-3.9048,-3.9097,-3.8874,-3.8876,-3.9148,-3.9362,-3.9468,-3.9573,-3.9781,-3.9969,-4.0172,-4.0,-3.9744,-3.9272,-3.9321,-3.9515,-3.9881,-3.9928,-4.0205,-4.0746,-4.0847,-4.1156,-4.1613,-4.178,-4.1866,-4.1909,-4.1995,-4.1995,-4.1966,-4.1724,-4.1505,-4.1301,-4.139,-4.1522,-4.1669,-4.1407,-4.1283,-4.1314,-4.065,-3.9926,-3.9107,-3.7745,-3.6958,-3.6991,-3.7123,-3.7221,-3.7321,-3.7416,-3.754,-3.772,-3.772,-3.7956,-3.846,-3.8544,-3.9026,-3.9917,-4.06,-4.1017,-4.1213,-4.1306,-4.1396,-4.1483,-4.1542,-4.1584,-4.1647,-4.1647,-4.1647,-4.1609,-4.1109,-4.1013,-4.1532,-4.1705,-4.1953,-4.2276,-4.2424,-4.2662,-4.3002,-4.3127,-4.3119,-4.3188,-4.251,-4.2009,-4.1673,-4.118,-4.0876,-4.0809,-4.0798,-4.0992,-4.1302,-4.1341,-4.1341,-4.1341,-4.1296,-4.1235,-4.117,-4.0896,-4.1244,-4.23,-4.2903,-4.3505,-4.4808,-4.5387,-4.5712,-4.5712,-4.5712,-4.5712,-4.5727,-4.5873,-4.6312,-4.7874,-4.949,-5.0201,-5.0883,-5.0975,-5.099,-4.0254,-4.0325,-3.9996,-4.0014,-4.028,-4.049,-4.0593,-4.0663,-4.0612,-4.088,-4.1351,-4.1788,-4.1816,-4.1492,-4.1409,-4.1505,-4.1777,-4.1905,-4.2044,-4.2191,-4.2326,-4.2502,-4.2633,-4.2846,-4.2929,-4.2935,-4.313,-4.3176,-4.3176,-4.322,-4.3288,-4.3355,-4.3235,-4.3248,-4.3323,-4.2737,-4.2486,-4.2521,-4.1894,-4.1498,-4.1314,-3.9946,-3.9021,-3.8951,-3.8866,-3.8857,-3.8884,-3.8756,-3.8796,-3.9007,-3.9258,-3.9426,-3.9591,-3.9911,-4.0364,-4.1016,-4.1844,-4.2351,-4.2443,-4.2531,-4.2616,-4.2716,-4.2756,-4.2814,-4.2833,-4.2869,-4.302,-4.3209,-4.2639,-4.2488,-4.2736,-4.2923,-4.309,-4.3355,-4.3474,-4.3588,-4.3902,-4.3929,-4.415,-4.4421,-4.3645,-4.2671,-4.2382,-4.1568,-4.0935,-4.0943,-4.0943,-4.0943,-4.0904,-4.0943,-4.0943,-4.0943,-4.0943,-4.0907,-4.0815,-4.1067,-4.1763,-4.2537,-4.3195,-4.4124,-4.5351,-4.5583,-4.5867,-4.5867,-4.5867,-4.5867,-4.5867,-4.6009,-4.6525,-4.8193,-4.9757,-5.0933,-5.1037,-5.1089,-5.1114,-4.1465,-4.1655,-4.1862,-4.1977,-4.2204,-4.2466,-4.2603,-4.2484,-4.2102,-4.2466,-4.3145,-4.274,-4.2964,-4.3839,-4.3582,-4.3523,-4.357,-4.3722,-4.387,-4.4041,-4.421,-4.4456,-4.4671,-4.4833,-4.4885,-4.4822,-4.4907,-4.5062,-4.5249,-4.5285,-4.5474,-4.5553,-4.4821,-4.4491,-4.4593,-4.4046,-4.3697,-4.3737,-4.3141,-4.2746,-4.2649,-4.1906,-4.1304,-4.1046,-4.032,-4.0007,-4.0023,-3.9386,-3.9129,-3.9309,-4.0083,-4.0637,-4.0829,-4.1519,-4.2008,-4.2229,-4.2503,-4.265,-4.2709,-4.287,-4.2929,-4.2909,-4.3118,-4.3056,-4.3244,-4.3316,-4.3635,-4.4238,-4.4199,-4.392,-4.3316,-4.3435,-4.3674,-4.4268,-4.4481,-4.486,-4.5583,-4.5517,-4.5735,-4.5675,-4.5046,-4.3985,-4.2588,-4.1544,-4.1279,-4.1214,-4.1104,-4.1104,-4.1136,-4.1059,-4.1059,-4.102,-4.0981,-4.096,-4.1003,-4.1412,-4.1983,-4.2721,-4.3729,-4.4622,-4.4944,-4.5304,-4.5703,-4.5986,-4.5986,-4.5986,-4.5986,-4.6385,-4.7123,-4.8405,-4.9998,-5.0942,-5.1136,-5.1147,-5.1169,-4.2509,-4.2426,-4.2584,-4.274,-4.286,-4.3062,-4.3247,-4.3311,-4.3179,-4.3371,-4.3921,-4.419,-4.4703,-4.5214,-4.5766,-4.532,-4.4289,-4.4432,-4.4607,-4.4736,-4.4863,-4.5029,-4.5233,-4.5352,-4.5469,-4.5547,-4.5661,-4.5773,-4.5883,-4.592,-4.5992,-4.6098,-4.5941,-4.5927,-4.5955,-4.5807,-4.5475,-4.5077,-4.4766,-4.4448,-4.3999,-4.3662,-4.3484,-4.3343,-4.194,-4.1146,-4.1241,-4.1044,-4.1027,-4.1155,-4.1506,-4.1731,-4.194,-4.2692,-4.3263,-4.3412,-4.4013,-4.4381,-4.4383,-4.4461,-4.4554,-4.4641,-4.4675,-4.4685,-4.477,-4.4824,-4.4984,-4.5258,-4.5363,-4.5169,-4.5015,-4.4912,-4.5028,-4.5299,-4.544,-4.5603,-4.5908,-4.6046,-4.6037,-4.5996,-4.5757,-4.5007,-4.3611,-4.2877,-4.2727,-4.2733,-4.2738,-4.2432,-4.1997,-4.188,-4.1724,-4.1217,-4.1061,-4.105,-4.1039,-4.1716,-4.2421,-4.3199,-4.4054,-4.4939,-4.5454,-4.5658,-4.6017,-4.6056,-4.6056,-4.6134,-4.6221,-4.7202,-4.7903,-4.9011,-5.0559,-5.1064,-5.123,-5.1239,-5.1248,-4.3849,-4.3804,-4.3871,-4.3973,-4.4173,-4.4286,-4.4467,-4.4528,-4.4425,-4.4611,-4.5123,-4.5579,-4.5971,-4.6485,-4.7204,-4.6958,-4.5816,-4.5786,-4.5869,-4.5992,-4.6078,-4.6273,-4.6428,-4.658,-4.6654,-4.6728,-4.6872,-4.6979,-4.712,-4.7151,-4.7256,-4.7355,-4.7255,-4.7205,-4.728,-4.7124,-4.6732,-4.6353,-4.6038,-4.5634,-4.5167,-4.4877,-4.4751,-4.4663,-4.358,-4.2697,-4.2393,-4.2285,-4.2257,-4.2328,-4.2625,-4.2959,-4.3352,-4.3993,-4.4419,-4.4576,-4.5112,-4.5514,-4.5512,-4.5565,-4.5632,-4.5712,-4.5757,-4.5786,-4.5841,-4.5815,-4.5893,-4.5956,-4.5953,-4.5986,-4.6007,-4.5968,-4.5997,-4.5986,-4.6007,-4.6056,-4.6122,-4.6138,-4.6154,-4.613,-4.6157,-4.5507,-4.4382,-4.3875,-4.3651,-4.3704,-4.3712,-4.3404,-4.2975,-4.2779,-4.2659,-4.2073,-4.2045,-4.2084,-4.2268,-4.2949,-4.3059,-4.3637,-4.4628,-4.5437,-4.5788,-4.6029,-4.6115,-4.6115,-4.6193,-4.631,-4.6902,-4.7883,-4.8865,-4.9854,-5.0633,-5.1289,-5.1335,-5.1335,-5.1303,-4.5477,-4.5664,-4.5768,-4.583,-4.5993,-4.6152,-4.6389,-4.6354,-4.5843,-4.615,-4.6845,-4.6572,-4.6855,-4.7611,-4.7959,-4.808,-4.8009,-4.7779,-4.774,-4.7858,-4.8047,-4.8124,-4.82,-4.8346,-4.8453,-4.8489,-4.8813,-4.8949,-4.9006,-4.8995,-4.9121,-4.9205,-4.8625,-4.8445,-4.8565,-4.8002,-4.7586,-4.7448,-4.6882,-4.6402,-4.6214,-4.5658,-4.5354,-4.5278,-4.5148,-4.4623,-4.3653,-4.2928,-4.2715,-4.284,-4.3514,-4.4322,-4.4998,-4.5303,-4.5455,-4.5488,-4.5632,-4.568,-4.5696,-4.5757,-4.58,-4.5827,-4.588,-4.5917,-4.5929,-4.5975,-4.6056,-4.6076,-4.6104,-4.6083,-4.6107,-4.613,-4.6169,-4.613,-4.6099,-4.6123,-4.619,-4.6203,-4.6209,-4.6215,-4.627,-4.5952,-4.5133,-4.4484,-4.411,-4.4089,-4.4056,-4.3979,-4.3745,-4.3706,-4.3706,-4.355,-4.3279,-4.3045,-4.3668,-4.4288,-4.4071,-4.4124,-4.5195,-4.6073,-4.6034,-4.6157,-4.6157,-4.6157,-4.6157,-4.6313,-4.745,-4.8386,-4.9178,-5.0082,-5.079,-5.1375,-5.1375,-5.1375,-5.1375,-4.6154,-4.635,-4.635,-4.6495,-4.6778,-4.6926,-4.7053,-4.7107,-4.7083,-4.7325,-4.7596,-4.762,-4.7855,-4.8196,-4.8495,-4.875,-4.889,-4.8853,-4.8748,-4.8605,-4.8678,-4.882,-4.8959,-4.9027,-4.909,-4.9252,-4.9277,-4.9408,-4.9566,-4.9646,-4.9731,-4.9776,-4.9694,-4.9641,-4.9655,-4.9542,-4.9243,-4.8663,-4.8414,-4.803,-4.7527,-4.7221,-4.7126,-4.7107,-4.6628,-4.611,-4.5822,-4.4939,-4.4516,-4.4479,-4.4863,-4.5225,-4.5522,-4.561,-4.5658,-4.5771,-4.5824,-4.588,-4.5919,-4.5905,-4.5941,-4.5975,-4.6046,-4.6037,-4.6056,-4.6083,-4.6146,-4.6169,-4.6176,-4.6183,-4.619,-4.6203,-4.6203,-4.6183,-4.619,-4.6157,-4.6215,-4.622,-4.624,-4.6264,-4.6309,-4.6153,-4.5922,-4.5497,-4.5348,-4.535,-4.5351,-4.5233,-4.4765,-4.4569,-4.4256,-4.3865,-4.3785,-4.3939,-4.4332,-4.4726,-4.4804,-4.4757,-4.56,-4.6206,-4.624,-4.6236,-4.6197,-4.6279,-4.6275,-4.6821,-4.7913,-4.8816,-4.9567,-5.0347,-5.1132,-5.1406,-5.1406,-5.1406,-5.141,-4.6731,-4.6962,-4.6972,-4.7107,-4.732,-4.7493,-4.7621,-4.7669,-4.7875,-4.8035,-4.8192,-4.8383,-4.8605,-4.8713,-4.8996,-4.9197,-4.9346,-4.9506,-4.9439,-4.9252,-4.9193,-4.9257,-4.9415,-4.9476,-4.9566,-4.9674,-4.9731,-4.9814,-4.9922,-5.0,-5.01,-5.0212,-5.0245,-5.0336,-5.043,-5.0512,-5.0256,-4.9804,-4.9451,-4.9109,-4.8673,-4.8309,-4.8172,-4.8128,-4.7719,-4.7465,-4.7442,-4.6877,-4.6194,-4.5697,-4.5632,-4.5712,-4.5786,-4.5775,-4.5854,-4.5944,-4.598,-4.6003,-4.6046,-4.6066,-4.6085,-4.616,-4.6138,-4.6154,-4.6123,-4.6183,-4.6196,-4.6209,-4.6215,-4.6254,-4.6259,-4.6249,-4.6374,-4.6726,-4.6426,-4.6275,-4.6249,-4.6261,-4.627,-4.6285,-4.6288,-4.6289,-4.6289,-4.6289,-4.6287,-4.6285,-4.6278,-4.6189,-4.5643,-4.5486,-4.5018,-4.4745,-4.4894,-4.4891,-4.477,-4.5051,-4.5414,-4.5583,-4.5897,-4.6165,-4.6234,-4.6231,-4.6267,-4.6471,-4.651,-4.7332,-4.8348,-4.9087,-4.9829,-5.0649,-5.1394,-5.1394,-5.1396,-5.1396,-5.1396,-4.7427,-4.768,-4.7772,-4.7933,-4.802,-4.8101,-4.8224,-4.8306,-4.8382,-4.8495,-4.8713,-4.8853,-4.9061,-4.923,-4.9433,-4.9582,-4.9731,-5.0073,-5.019,-5.0202,-5.0144,-5.0099,-4.9862,-4.9933,-4.9986,-5.0063,-5.0139,-5.0197,-5.0206,-5.0336,-5.0462,-5.0486,-5.0527,-5.0622,-5.0734,-5.0811,-5.0797,-5.066,-5.0092,-4.9769,-4.9755,-4.9083,-4.8722,-4.8761,-4.8645,-4.8567,-4.8528,-4.832,-4.7534,-4.6187,-4.6112,-4.6099,-4.603,-4.6003,-4.6025,-4.6095,-4.6095,-4.6074,-4.6091,-4.6154,-4.6169,-4.6176,-4.619,-4.6203,-4.6229,-4.6209,-4.6231,-4.6245,-4.624,-4.6357,-4.6409,-4.6473,-4.6835,-4.7383,-4.7135,-4.6739,-4.6523,-4.6445,-4.6444,-4.6522,-4.6441,-4.6358,-4.6397,-4.6397,-4.6273,-4.6303,-4.6284,-4.6201,-4.6158,-4.6002,-4.6153,-4.5991,-4.5718,-4.564,-4.5445,-4.5484,-4.5811,-4.5863,-4.6119,-4.6207,-4.6289,-4.6288,-4.6521,-4.6718,-4.707,-4.789,-4.871,-4.9453,-5.0195,-5.0975,-5.1366,-5.1367,-5.1406,-5.1406,-5.1406,-4.9664,-4.987,-4.9911,-4.9625,-4.934,-4.9417,-4.9196,-4.8787,-4.8927,-4.9098,-4.9257,-4.9415,-4.9612,-4.9674,-4.9892,-4.9982,-5.0291,-5.0864,-5.1239,-5.1437,-5.2027,-5.1276,-5.034,-5.0236,-5.0367,-5.0435,-5.0555,-5.0445,-5.0507,-5.0683,-5.0701,-5.072,-5.0825,-5.0885,-5.0969,-5.1005,-5.102,-5.1035,-5.0909,-5.0773,-5.0731,-5.0537,-5.0459,-5.0431,-4.9858,-4.9596,-4.9528,-4.8972,-4.8477,-4.7905,-4.7289,-4.7009,-4.6951,-4.655,-4.6294,-4.6317,-4.6254,-4.6229,-4.6235,-4.6281,-4.6242,-4.6203,-4.6415,-4.6259,-4.6298,-4.6292,-4.6273,-4.6284,-4.6324,-4.6637,-4.7106,-4.7304,-4.7691,-4.8294,-4.8279,-4.8124,-4.7886,-4.7087,-4.6718,-4.7736,-4.703,-4.6796,-4.6952,-4.6752,-4.6392,-4.6387,-4.6382,-4.6415,-4.656,-4.6515,-4.6632,-4.6313,-4.6112,-4.6151,-4.6112,-4.6112,-4.6157,-4.6118,-4.622,-4.627,-4.6342,-4.6358,-4.6752,-4.7144,-4.7645,-4.8384,-4.9192,-4.9961,-5.0703,-5.1343,-5.1379,-5.1382,-5.1375,-5.141,-5.1375,-5.0892,-5.1045,-5.112,-5.0971,-5.0633,-5.044,-5.0094,-4.9819,-4.9872,-5.0033,-5.0229,-5.0743,-5.0984,-5.1078,-5.1256,-5.1367,-5.1557,-5.2069,-5.2357,-5.2569,-5.2993,-5.2512,-5.1736,-5.1582,-5.1644,-5.1722,-5.174,-5.1583,-5.1404,-5.1393,-5.1285,-5.102,-5.1037,-5.1075,-5.1062,-5.1125,-5.1152,-5.1178,-5.1225,-5.1264,-5.1248,-5.1239,-5.1256,-5.1187,-5.0766,-5.0541,-5.0509,-5.0095,-4.9527,-4.8786,-4.821,-4.7993,-4.7954,-4.7586,-4.7294,-4.7306,-4.7312,-4.7312,-4.7323,-4.7338,-4.7354,-4.7357,-4.7361,-4.7325,-4.7406,-4.7338,-4.7343,-4.746,-4.7377,-4.7606,-4.8033,-4.8421,-4.8833,-4.9274,-4.961,-4.9547,-4.8993,-4.8226,-4.8092,-4.8404,-4.817,-4.7663,-4.8053,-4.7528,-4.7288,-4.7281,-4.7398,-4.7391,-4.7384,-4.7228,-4.7136,-4.7003,-4.7034,-4.7181,-4.725,-4.725,-4.7181,-4.7064,-4.6964,-4.6902,-4.6872,-4.6869,-4.7311,-4.7861,-4.8279,-4.8855,-4.9664,-5.0394,-5.0912,-5.1313,-5.1375,-5.1375,-5.1414,-5.1564,-5.1525,-5.1707,-5.185,-5.2019,-5.2048,-5.1893,-5.1374,-5.1201,-5.1101,-5.115,-5.1282,-5.1516,-5.2258,-5.2474,-5.2886,-5.2656,-5.3003,-5.3147,-5.3313,-5.3654,-5.3809,-5.3964,-5.3762,-5.3602,-5.3103,-5.3099,-5.3149,-5.346,-5.3025,-5.2549,-5.2447,-5.2135,-5.1781,-5.1569,-5.1356,-5.1434,-5.1325,-5.1249,-5.1317,-5.1293,-5.1293,-5.1297,-5.1323,-5.1336,-5.1352,-5.1313,-5.124,-5.1279,-5.1157,-5.0645,-4.9151,-4.8989,-4.8911,-4.8917,-4.8878,-4.8694,-4.863,-4.8517,-4.8556,-4.8712,-4.8582,-4.8749,-4.8633,-4.8672,-4.8788,-4.8592,-4.8513,-4.8471,-4.8343,-4.8747,-4.8694,-4.9001,-4.9646,-5.0063,-5.0251,-5.0803,-5.0446,-4.9588,-4.9517,-4.964,-4.9139,-4.9439,-4.9276,-4.9074,-4.8787,-4.8616,-4.7977,-4.8085,-4.8029,-4.802,-4.7971,-4.7991,-4.8088,-4.8194,-4.8388,-4.8405,-4.8433,-4.8289,-4.8183,-4.8059,-4.801,-4.7954,-4.7996,-4.8242,-4.8593,-4.9028,-4.9541,-5.0199,-5.0784,-5.1174,-5.1323,-5.1356,-5.1362,-5.144,-5.1746,-5.1863,-5.3935,-5.4,-5.4125,-5.3808,-5.3328,-5.3186,-5.2813,-5.2296,-5.24,-5.2474,-5.2647,-5.2931,-5.314,-5.3244,-5.3377,-5.3359,-5.3716,-5.4298,-5.4917,-5.5682,-5.5707,-5.5691,-5.5294,-5.4388,-5.3663,-5.3741,-5.3689,-5.3569,-5.3436,-5.3429,-5.341,-5.3156,-5.255,-5.2325,-5.2255,-5.1717,-5.1362,-5.1394,-5.1406,-5.1367,-5.1364,-5.1361,-5.1363,-5.1403,-5.1403,-5.1403,-5.1403,-5.1403,-5.1208,-5.0775,-5.0183,-4.9824,-4.9706,-4.9248,-4.9019,-4.8982,-4.8943,-4.8865,-4.8827,-4.8984,-4.8867,-4.898,-4.9087,-4.8841,-4.8782,-4.8903,-4.8664,-4.8415,-4.8554,-4.9172,-4.9705,-5.0541,-5.0875,-5.0984,-5.1053,-5.1074,-5.0753,-5.078,-5.0758,-5.0564,-5.0002,-4.9595,-4.9711,-4.9109,-4.8895,-4.8701,-4.8681,-4.861,-4.8677,-4.8782,-4.8926,-4.9096,-4.9057,-4.9174,-4.9149,-4.9175,-4.9188,-4.9174,-4.9159,-4.9116,-4.907,-4.9028,-4.92,-4.9457,-4.9751,-5.0264,-5.0732,-5.0927,-5.1317,-5.1303,-5.1335,-5.1459,-5.1615,-5.192,-5.2356,-5.4962,-5.4981,-5.5064,-5.4878,-5.4511,-5.4167,-5.3795,-5.3537,-5.3552,-5.364,-5.3859,-5.4227,-5.4532,-5.463,-5.4645,-5.4752,-5.4919,-5.5335,-5.5823,-5.623,-5.6329,-5.6398,-5.6368,-5.5561,-5.4967,-5.4957,-5.5034,-5.4821,-5.4528,-5.4406,-5.4234,-5.391,-5.3429,-5.3303,-5.3135,-5.244,-5.2062,-5.1914,-5.1587,-5.1379,-5.1379,-5.134,-5.1346,-5.1349,-5.1352,-5.1352,-5.1391,-5.1391,-5.1391,-5.1274,-5.0969,-5.0701,-5.0664,-5.0273,-5.0035,-5.0025,-5.0022,-5.0022,-5.0022,-5.0019,-5.0055,-4.9969,-5.0035,-5.0064,-5.0009,-4.9997,-4.9874,-4.9673,-4.9854,-5.019,-5.0516,-5.0849,-5.1211,-5.1219,-5.1159,-5.1136,-5.1163,-5.1208,-5.1249,-5.1113,-5.0625,-5.0459,-5.0204,-4.9765,-4.9831,-4.9897,-4.9975,-4.9911,-5.0028,-5.0054,-4.9951,-5.0015,-4.9885,-4.9833,-4.9804,-4.9843,-4.9988,-5.0054,-5.0158,-5.0246,-5.0303,-5.0218,-5.0121,-5.0313,-5.0463,-5.0704,-5.1094,-5.1257,-5.1296,-5.1328,-5.1406,-5.1554,-5.1865,-5.2333,-5.2848,-5.5364,-5.5389,-5.5508,-5.5554,-5.5439,-5.4852,-5.4587,-5.457,-5.4689,-5.4784,-5.4951,-5.5736,-5.5831,-5.6071,-5.6048,-5.6199,-5.6251,-5.6277,-5.6371,-5.6402,-5.6471,-5.6485,-5.6413,-5.6308,-5.6224,-5.6402,-5.6262,-5.5925,-5.5542,-5.5366,-5.5127,-5.4518,-5.4225,-5.4167,-5.3983,-5.3338,-5.2866,-5.2784,-5.2322,-5.198,-5.1927,-5.1881,-5.1856,-5.1603,-5.1609,-5.1492,-5.1453,-5.1375,-5.1408,-5.1408,-5.1395,-5.138,-5.1375,-5.1391,-5.1389,-5.1341,-5.1146,-5.1068,-5.1029,-5.1174,-5.1206,-5.1388,-5.1323,-5.1284,-5.1239,-5.1115,-5.0984,-5.1039,-5.1014,-5.1016,-5.1169,-5.1147,-5.1113,-5.1076,-5.1063,-5.1075,-5.1062,-5.1127,-5.1139,-5.1113,-5.0945,-5.0855,-5.092,-5.0701,-5.0959,-5.1087,-5.1087,-5.1087,-5.1073,-5.0995,-5.071,-5.0579,-5.041,-5.0332,-5.0317,-5.0341,-5.0487,-5.0671,-5.0893,-5.1011,-5.1088,-5.0841,-5.0681,-5.0938,-5.1122,-5.1248,-5.1256,-5.1265,-5.1304,-5.1351,-5.1654,-5.1996,-5.2425,-5.2823,-5.3407,-5.5682,-5.5724,-5.5748,-5.5769,-5.5847,-5.573,-5.5668,-5.5741,-5.5714,-5.5869,-5.5927,-5.6136,-5.6263,-5.6336,-5.6356,-5.6397,-5.6458,-5.645,-5.6458,-5.6497,-5.6551,-5.6558,-5.6483,-5.6484,-5.6484,-5.6483,-5.6479,-5.636,-5.6286,-5.6288,-5.5976,-5.5859,-5.5351,-5.4998,-5.4767,-5.4173,-5.3701,-5.3666,-5.3329,-5.3165,-5.3126,-5.3087,-5.2853,-5.2403,-5.2325,-5.2013,-5.1476,-5.1367,-5.1328,-5.1289,-5.1328,-5.1328,-5.1296,-5.133,-5.138,-5.1369,-5.1356,-5.1349,-5.131,-5.1335,-5.1328,-5.1289,-5.1289,-5.132,-5.1312,-5.1295,-5.123,-5.1152,-5.1109,-5.1062,-5.1139,-5.105,-5.1048,-5.102,-5.0952,-5.096,-5.0929,-5.0945,-5.099,-5.1034,-5.1048,-5.1062,-5.1034,-5.1005,-5.099,-5.0975,-5.0975,-5.096,-5.096,-5.096,-5.0844,-5.079,-5.0828,-5.079,-5.079,-5.0828,-5.0906,-5.1053,-5.1237,-5.1368,-5.1372,-5.1192,-5.1192,-5.163,-5.1481,-5.1278,-5.1249,-5.1337,-5.1726,-5.2115,-5.2349,-5.2582,-5.3166,-5.3789,-5.4295,-5.5938,-5.6029,-5.5985,-5.6033,-5.6102,-5.6132,-5.616,-5.6162,-5.6226,-5.6278,-5.6302,-5.6386,-5.6416,-5.6457,-5.6432,-5.648,-5.6479,-5.6484,-5.6484,-5.6521,-5.6556,-5.6504,-5.648,-5.6464,-5.6458,-5.6425,-5.6441,-5.6493,-5.6528,-5.648,-5.6475,-5.6347,-5.5972,-5.5801,-5.5584,-5.4941,-5.4531,-5.4424,-5.4097,-5.3813,-5.3736,-5.3724,-5.3402,-5.3246,-5.3013,-5.2613,-5.2014,-5.1819,-5.1586,-5.1236,-5.1159,-5.1159,-5.1169,-5.1201,-5.1248,-5.1273,-5.1281,-5.1273,-5.1265,-5.1239,-5.123,-5.1269,-5.122,-5.1201,-5.118,-5.1159,-5.1086,-5.1024,-5.0984,-5.0942,-5.1005,-5.096,-5.0929,-5.0841,-5.0808,-5.0791,-5.0756,-5.0738,-5.0773,-5.088,-5.0935,-5.0951,-5.0929,-5.0913,-5.0913,-5.0897,-5.0897,-5.0841,-5.0841,-5.0957,-5.1035,-5.1134,-5.1211,-5.1211,-5.1288,-5.1443,-5.146,-5.157,-5.1741,-5.1873,-5.2043,-5.1982,-5.2206,-5.256,-5.2188,-5.1528,-5.173,-5.2014,-5.2441,-5.2869,-5.3063,-5.3413,-5.4113,-5.4747,-5.5163,-5.6174,-5.6239,-5.6239,-5.6263,-5.6314,-5.6314,-5.6336,-5.6329,-5.6173,-5.6221,-5.6398,-5.6285,-5.6302,-5.6462,-5.6481,-5.6482,-5.6493,-5.6454,-5.6484,-5.6464,-5.6464,-5.6439,-5.6416,-5.6368,-5.6358,-5.6339,-5.6378,-5.6417,-5.6472,-5.6433,-5.6437,-5.6359,-5.6368,-5.6339,-5.6041,-5.555,-5.5264,-5.4982,-5.4569,-5.4167,-5.4047,-5.3987,-5.3878,-5.3794,-5.3723,-5.3336,-5.2593,-5.2492,-5.2206,-5.1756,-5.1446,-5.1252,-5.1228,-5.1139,-5.1088,-5.1147,-5.124,-5.1201,-5.119,-5.1147,-5.1163,-5.1175,-5.1101,-5.1088,-5.1063,-5.1023,-5.0952,-5.089,-5.0858,-5.0841,-5.0808,-5.0829,-5.0794,-5.074,-5.0664,-5.0645,-5.0606,-5.0566,-5.0566,-5.0664,-5.0779,-5.0855,-5.093,-5.0773,-5.0773,-5.0773,-5.0756,-5.0756,-5.0776,-5.1162,-5.1316,-5.147,-5.1586,-5.1586,-5.1779,-5.2126,-5.2203,-5.226,-5.2471,-5.2682,-5.2893,-5.3026,-5.3159,-5.3099,-5.2592,-5.2098,-5.238,-5.2706,-5.3119,-5.3469,-5.3754,-5.4219,-5.4943,-5.5253,-5.5525,-5.6308,-5.6368,-5.6378,-5.6368,-5.6378,-5.6339,-5.6398,-5.6316,-5.5639,-5.5821,-5.622,-5.5755,-5.5851,-5.6366,-5.6471,-5.6458,-5.6433,-5.6407,-5.6407,-5.6378,-5.6388,-5.6417,-5.6364,-5.6314,-5.6356,-5.6343,-5.6265,-5.6286,-5.6347,-5.6308,-5.6297,-5.6314,-5.6247,-5.6197,-5.6121,-5.5874,-5.5977,-5.5907,-5.5752,-5.5586,-5.5513,-5.5457,-5.5034,-5.4591,-5.4341,-5.4014,-5.332,-5.3165,-5.2991,-5.2836,-5.2254,-5.2,-5.1863,-5.1238,-5.0999,-5.0966,-5.1037,-5.1101,-5.1127,-5.1089,-5.1048,-5.0995,-5.0966,-5.0937,-5.0906,-5.0874,-5.0808,-5.0808,-5.072,-5.0664,-5.0645,-5.0606,-5.0624,-5.0661,-5.0657,-5.0615,-5.0572,-5.1086,-5.1009,-5.1025,-5.13,-5.1139,-5.1009,-5.0779,-5.0606,-5.0606,-5.0645,-5.076,-5.0933,-5.1452,-5.1798,-5.2008,-5.2085,-5.2123,-5.2277,-5.2623,-5.2913,-5.2972,-5.328,-5.3472,-5.3685,-5.3762,-5.3454,-5.3282,-5.2897,-5.2935,-5.3279,-5.3619,-5.3807,-5.411,-5.4497,-5.5039,-5.5681,-5.5852,-5.583,-5.6458,-5.6449,-5.6449,-5.6471,-5.6419,-5.6001,-5.5782,-5.5567,-5.4915,-5.4687,-5.5039,-5.5233,-5.5657,-5.6322,-5.6402,-5.6368,-5.6336,-5.629,-5.6265,-5.6226,-5.6226,-5.6432,-5.666,-5.6412,-5.6257,-5.6591,-5.6288,-5.6001,-5.6078,-5.6121,-5.6174,-5.6132,-5.6082,-5.6054,-5.6007,-5.5943,-5.5904,-5.5866,-5.5808,-5.5788,-5.5807,-5.5748,-5.5514,-5.5147,-5.5066,-5.4583,-5.4062,-5.3832,-5.3524,-5.3217,-5.2682,-5.2626,-5.2569,-5.2319,-5.2165,-5.2165,-5.2201,-5.1879,-5.1145,-5.1037,-5.1006,-5.0935,-5.0846,-5.0773,-5.0758,-5.0798,-5.0702,-5.0606,-5.0525,-5.0521,-5.056,-5.0478,-5.0396,-5.0466,-5.0926,-5.0971,-5.1114,-5.1547,-5.1789,-5.1827,-5.184,-5.1735,-5.1729,-5.189,-5.1759,-5.1628,-5.1743,-5.1858,-5.1951,-5.2219,-5.2464,-5.2617,-5.2694,-5.2694,-5.2886,-5.3154,-5.356,-5.3752,-5.4288,-5.4441,-5.4479,-5.4403,-5.412,-5.4196,-5.4311,-5.438,-5.443,-5.4321,-5.4323,-5.4767,-5.5287,-5.5673,-5.6001,-5.6,-5.6077,-5.6093,-5.5882,-5.6098,-5.6071,-5.5853,-5.5194,-5.4921,-5.4752,-5.4008,-5.376,-5.4099,-5.4775,-5.5606,-5.6173,-5.6278,-5.6239,-5.6174,-5.6132,-5.6071,-5.6024,-5.6106,-5.6459,-5.6655,-5.6443,-5.6366,-5.7159,-5.6194,-5.5847,-5.5769,-5.5827,-5.5864,-5.5902,-5.5913,-5.5861,-5.5788,-5.5737,-5.5685,-5.5615,-5.5577,-5.5615,-5.5593,-5.5508,-5.5485,-5.5423,-5.5336,-5.5096,-5.4549,-5.4459,-5.4039,-5.3733,-5.336,-5.3269,-5.3253,-5.2954,-5.2785,-5.2768,-5.2773,-5.249,-5.1857,-5.1586,-5.1432,-5.1375,-5.1318,-5.147,-5.1369,-5.1173,-5.113,-5.1239,-5.117,-5.1109,-5.0971,-5.1023,-5.1114,-5.128,-5.1484,-5.1599,-5.1801,-5.2182,-5.2346,-5.2281,-5.2395,-5.2813,-5.2894,-5.3148,-5.3124,-5.2768,-5.2768,-5.2883,-5.2959,-5.306,-5.329,-5.3506,-5.3658,-5.3697,-5.3786,-5.4015,-5.4282,-5.4549,-5.5084,-5.5198,-5.5071,-5.5033,-5.4842,-5.5084,-5.5465,-5.5492,-5.5364,-5.5063,-5.4809,-5.5176,-5.5566,-5.5895,-5.6148,-5.6228,-5.6652,-5.4807,-5.4131,-5.4952,-5.4882,-5.4256,-5.4047,-5.3972,-5.3891,-5.3073,-5.3135,-5.3847,-5.4635,-5.5333,-5.5939,-5.6094,-5.6017,-5.5938,-5.5921,-5.5865,-5.5847,-5.5884,-5.6421,-5.6648,-5.6549,-5.628,-5.6736,-5.6214,-5.5723,-5.5461,-5.5485,-5.5577,-5.5686,-5.5711,-5.5651,-5.5577,-5.5542,-5.5441,-5.5377,-5.5339,-5.5352,-5.5288,-5.5236,-5.5236,-5.5157,-5.513,-5.5064,-5.5026,-5.4977,-5.4863,-5.4607,-5.4192,-5.3977,-5.3862,-5.3531,-5.3326,-5.3249,-5.3249,-5.3068,-5.2832,-5.2615,-5.2773,-5.2828,-5.2647,-5.2388,-5.2288,-5.2436,-5.2501,-5.2272,-5.2031,-5.2158,-5.2246,-5.241,-5.203,-5.2041,-5.2156,-5.2395,-5.2558,-5.2683,-5.2807,-5.2675,-5.2978,-5.3575,-5.4031,-5.4344,-5.3954,-5.359,-5.3362,-5.3476,-5.3704,-5.3819,-5.4199,-5.4493,-5.4721,-5.4836,-5.4912,-5.5064,-5.5113,-5.5303,-5.5684,-5.5635,-5.5407,-5.5407,-5.5684,-5.5722,-5.5988,-5.614,-5.6283,-5.5935,-5.5696,-5.5657,-5.5897,-5.6467,-5.699,-5.7305,-5.7858,-5.429,-5.3104,-5.3423,-5.3676,-5.391,-5.3291,-5.3026,-5.2883,-5.2154,-5.2513,-5.3685,-5.4025,-5.4752,-5.5634,-5.5884,-5.5827,-5.5728,-5.5665,-5.5599,-5.5785,-5.606,-5.6726,-5.7046,-5.72,-5.7175,-5.7188,-5.6588,-5.576,-5.5326,-5.5222,-5.5157,-5.5275,-5.537,-5.5408,-5.5377,-5.5298,-5.5233,-5.5206,-5.5168,-5.514,-5.5168,-5.513,-5.5102,-5.5075,-5.5057,-5.5028,-5.5,-5.4971,-5.4971,-5.4924,-5.4714,-5.4628,-5.4569,-5.4215,-5.4089,-5.4051,-5.4051,-5.4051,-5.3887,-5.3454,-5.2915,-5.2829,-5.2755,-5.2781,-5.2921,-5.2729,-5.2665,-5.2563,-5.2688,-5.2748,-5.2558,-5.2493,-5.2389,-5.2617,-5.2883,-5.3186,-5.3462,-5.3651,-5.3955,-5.4086,-5.4276,-5.4617,-5.5072,-5.5519,-5.4912,-5.4334,-5.4173,-5.4135,-5.4477,-5.4696,-5.5038,-5.5227,-5.5446,-5.5645,-5.5721,-5.5835,-5.5958,-5.6139,-5.6367,-5.6253,-5.6139,-5.6527,-5.6755,-5.6679,-5.6671,-5.6899,-5.6937,-5.6776,-5.6635,-5.6556,-5.6855,-5.7341,-5.7826,-5.8311,-5.8847,-5.3643,-5.2124,-5.2025,-5.2435,-5.2972,-5.2336,-5.2053,-5.1936,-5.1423,-5.1981,-5.3443,-5.3475,-5.4265,-5.5374,-5.5686,-5.5605,-5.5485,-5.5413,-5.5339,-5.5568,-5.6088,-5.691,-5.7444,-5.7672,-5.7568,-5.7644,-5.6825,-5.596,-5.5484,-5.5093,-5.4979,-5.4962,-5.5037,-5.5075,-5.5064,-5.4981,-5.499,-5.5,-5.4971,-5.4979,-5.4971,-5.4971,-5.5,-5.4971,-5.4941,-5.4941,-5.4912,-5.4912,-5.4912,-5.495,-5.4903,-5.4962,-5.499,-5.5057,-5.5057,-5.5057,-5.5057,-5.5057,-5.4704,-5.4253,-5.3467,-5.3632,-5.3541,-5.3449,-5.327,-5.327,-5.3546,-5.347,-5.3366,-5.3186,-5.3148,-5.3357,-5.3433,-5.3698,-5.385,-5.4116,-5.4609,-5.4912,-5.5329,-5.564,-5.5792,-5.5943,-5.6095,-5.6474,-5.6285,-5.5822,-5.5784,-5.5708,-5.5784,-5.5898,-5.5898,-5.6012,-5.6012,-5.6239,-5.6436,-5.6581,-5.6687,-5.6763,-5.6952,-5.7074,-5.7149,-5.7497,-5.7497,-5.7187,-5.7225,-5.7611,-5.7832,-5.7901,-5.7734,-5.749,-5.7863,-5.823,-5.8896,-5.9343,-5.942,-5.268,-5.1101,-5.1062,-5.1153,-5.1369,-5.1102,-5.1101,-5.1164,-5.1022,-5.1818,-5.3243,-5.3359,-5.4073,-5.5249,-5.5476,-5.5389,-5.521,-5.513,-5.5047,-5.5189,-5.6004,-5.6694,-5.7194,-5.7573,-5.7959,-5.797,-5.7213,-5.6387,-5.5945,-5.5422,-5.5082,-5.5044,-5.5221,-5.4994,-5.4836,-5.4761,-5.473,-5.4774,-5.4805,-5.4805,-5.507,-5.5032,-5.5019,-5.5276,-5.5125,-5.5087,-5.5117,-5.4928,-5.489,-5.489,-5.489,-5.4882,-5.4912,-5.4882,-5.492,-5.4882,-5.4882,-5.4882,-5.4874,-5.4914,-5.478,-5.4628,-5.4382,-5.4468,-5.4734,-5.4752,-5.4533,-5.4296,-5.4457,-5.4579,-5.4731,-5.4769,-5.4663,-5.4701,-5.4822,-5.5163,-5.5655,-5.592,-5.6261,-5.6412,-5.6898,-5.7308,-5.7346,-5.7422,-5.7497,-5.7384,-5.7346,-5.727,-5.7043,-5.6853,-5.6702,-5.6664,-5.6626,-5.7005,-5.7232,-5.7308,-5.7422,-5.746,-5.7649,-5.7952,-5.799,-5.8066,-5.7952,-5.7649,-5.8028,-5.8559,-5.89,-5.9235,-5.8843,-5.8517,-5.872,-5.914,-5.9845,-6.0207,-6.0092,-5.1927,-5.0858,-5.0825,-5.0769,-5.0769,-5.0819,-5.0841,-5.0868,-5.1299,-5.23,-5.3552,-5.3788,-5.4269,-5.5015,-5.5206,-5.514,-5.4971,-5.4912,-5.4822,-5.485,-5.5956,-5.6639,-5.7209,-5.7962,-5.8417,-5.8156,-5.7479,-5.6986,-5.661,-5.6086,-5.6124,-5.6199,-5.5864,-5.5597,-5.5018,-5.4754,-5.4905,-5.5314,-5.5163,-5.5131,-5.6069,-5.5837,-5.5826,-5.6273,-5.5826,-5.5631,-5.5586,-5.5252,-5.5025,-5.5056,-5.5025,-5.4988,-5.495,-5.495,-5.4843,-5.4843,-5.4805,-5.4767,-5.4767,-5.4791,-5.4852,-5.495,-5.5017,-5.5026,-5.495,-5.4912,-5.4882,-5.4996,-5.5117,-5.508,-5.4822,-5.5359,-5.5479,-5.5643,-5.5869,-5.6323,-5.6668,-5.6738,-5.6889,-5.6889,-5.7224,-5.7851,-5.811,-5.8305,-5.8419,-5.8299,-5.8116,-5.7763,-5.7497,-5.7346,-5.7156,-5.7194,-5.727,-5.7687,-5.799,-5.8142,-5.8445,-5.8672,-5.89,-5.9203,-5.9127,-5.8754,-5.8862,-5.8792,-5.9165,-5.9506,-5.9544,-5.9614,-5.9633,-5.9581,-5.9558,-5.9607,-6.0074,-6.0321,-6.0321,-5.1509,-5.0721,-5.0625,-5.0525,-5.0402,-5.0606,-5.0779,-5.1024,-5.143,-5.2487,-5.3683,-5.3926,-5.4334,-5.4798,-5.4988,-5.4912,-5.4767,-5.4673,-5.4641,-5.4702,-5.6061,-5.6626,-5.7265,-5.8278,-5.869,-5.8428,-5.8053,-5.7678,-5.7227,-5.6889,-5.6737,-5.6699,-5.6851,-5.6215,-5.5648,-5.5604,-5.5747,-5.6049,-5.5936,-5.5977,-5.6572,-5.6606,-5.6597,-5.6819,-5.6668,-5.6366,-5.6247,-5.5913,-5.5535,-5.5497,-5.5535,-5.5503,-5.5465,-5.5319,-5.5287,-5.5329,-5.5442,-5.548,-5.5517,-5.5517,-5.5697,-5.5686,-5.5404,-5.5397,-5.5586,-5.582,-5.5782,-5.5744,-5.5586,-5.5593,-5.5643,-5.6247,-5.6333,-5.6455,-5.661,-5.7024,-5.7438,-5.7476,-5.7664,-5.7661,-5.7884,-5.84,-5.8802,-5.9181,-5.9375,-5.9143,-5.8878,-5.8419,-5.8072,-5.8034,-5.7996,-5.8034,-5.811,-5.8597,-5.89,-5.9051,-5.9393,-5.9809,-5.9885,-5.9853,-5.9744,-5.9332,-5.9668,-5.982,-5.9706,-5.9701,-5.9809,-5.9874,-5.9861,-5.9885,-5.9946,-6.0074,-6.0342,-6.0523,-6.0676,-5.1233,-5.0538,-5.0435,-5.0259,-5.0139,-5.0329,-5.0826,-5.1484,-5.1408,-5.2296,-5.3769,-5.3794,-5.4186,-5.4667,-5.4774,-5.4736,-5.4641,-5.4476,-5.4521,-5.4865,-5.6032,-5.6407,-5.7191,-5.8161,-5.8684,-5.8686,-5.8387,-5.8012,-5.7752,-5.7492,-5.7155,-5.7005,-5.7192,-5.6968,-5.6855,-5.6854,-5.6926,-5.6851,-5.6626,-5.6776,-5.7225,-5.7075,-5.7183,-5.7331,-5.7215,-5.7099,-5.6983,-5.6794,-5.6756,-5.6794,-5.687,-5.6911,-5.6729,-5.6356,-5.6474,-5.6551,-5.6589,-5.6515,-5.644,-5.6365,-5.659,-5.6439,-5.624,-5.6459,-5.6602,-5.6602,-5.6526,-5.6564,-5.6526,-5.6715,-5.6907,-5.6986,-5.6993,-5.7035,-5.7075,-5.7488,-5.7977,-5.8276,-5.8538,-5.8762,-5.8986,-5.9246,-5.9241,-5.9578,-5.9581,-5.9465,-5.9163,-5.9197,-5.8929,-5.9143,-5.9105,-5.9176,-5.9327,-5.955,-5.9701,-5.9517,-5.9592,-5.9786,-5.9791,-5.9791,-5.9757,-5.9723,-5.9719,-5.9719,-5.9791,-5.9824,-5.9857,-5.9885,-5.9944,-6.0045,-6.022,-6.0569,-6.08,-6.1134,-6.1325,-5.0441,-5.0188,-5.0089,-4.9959,-4.9917,-4.9906,-5.074,-5.1964,-5.204,-5.2891,-5.4427,-5.439,-5.4414,-5.4521,-5.4514,-5.4443,-5.4303,-5.431,-5.4613,-5.5175,-5.5883,-5.6627,-5.7367,-5.8107,-5.8591,-5.8665,-5.8479,-5.8334,-5.8492,-5.8237,-5.8201,-5.8351,-5.8012,-5.8084,-5.8122,-5.8273,-5.7901,-5.7566,-5.7155,-5.7492,-5.7829,-5.7829,-5.8015,-5.8165,-5.7938,-5.7824,-5.7712,-5.7261,-5.711,-5.6998,-5.6925,-5.6815,-5.674,-5.6555,-5.6556,-5.6444,-5.6405,-5.6366,-5.6403,-5.6403,-5.6664,-5.7188,-5.7003,-5.6855,-5.6928,-5.7035,-5.7,-5.715,-5.7187,-5.73,-5.7377,-5.7416,-5.7529,-5.7604,-5.7678,-5.8052,-5.8463,-5.8538,-5.8838,-5.8914,-5.9177,-5.9253,-5.929,-5.9327,-5.9327,-5.9364,-5.9364,-5.94,-5.9472,-5.9616,-5.9685,-5.9685,-5.9685,-5.9685,-5.9685,-5.9537,-5.9609,-5.9685,-5.965,-5.9653,-5.9616,-5.9581,-5.9616,-5.9616,-5.9653,-5.9723,-5.9791,-5.9857,-5.9885,-6.0317,-6.0532,-6.0883,-6.1306,-6.1726,-6.2099,-4.9997,-4.9971,-4.9824,-4.9872,-5.0056,-4.9995,-5.0974,-5.2284,-5.2265,-5.3095,-5.4463,-5.4576,-5.448,-5.4418,-5.4378,-5.4268,-5.4127,-5.4018,-5.4205,-5.4615,-5.5726,-5.624,-5.701,-5.7894,-5.8455,-5.8529,-5.8529,-5.8455,-5.8693,-5.8739,-5.8706,-5.8673,-5.8784,-5.8739,-5.8624,-5.8508,-5.8401,-5.8074,-5.7893,-5.8198,-5.8387,-5.8538,-5.8801,-5.8838,-5.854,-5.8465,-5.8353,-5.7679,-5.7566,-5.7528,-5.7489,-5.7488,-5.7486,-5.7444,-5.7286,-5.7279,-5.7237,-5.7233,-5.7191,-5.7196,-5.7381,-5.7603,-5.7714,-5.7654,-5.7593,-5.7635,-5.7676,-5.7752,-5.7677,-5.764,-5.775,-5.7861,-5.7931,-5.8077,-5.8371,-5.8706,-5.8743,-5.8743,-5.8743,-5.8784,-5.8902,-5.8982,-5.9061,-5.9061,-5.91,-5.9061,-5.9061,-5.9061,-5.914,-5.9365,-5.94,-5.9472,-5.9472,-5.9472,-5.9474,-5.9474,-5.9474,-5.9474,-5.9438,-5.9401,-5.9438,-5.9439,-5.944,-5.9475,-5.951,-5.9656,-5.988,-5.9794,-5.9862,-6.034,-6.0974,-6.1457,-6.2046,-6.2711,-6.3047,-4.9778,-4.975,-4.9634,-4.9859,-5.0338,-5.0385,-5.1286,-5.2671,-5.2273,-5.2967,-5.4209,-5.4368,-5.4306,-5.4237,-5.4237,-5.4128,-5.3981,-5.3832,-5.3941,-5.3941,-5.534,-5.6108,-5.6731,-5.75,-5.8245,-5.8393,-5.8393,-5.8393,-5.8393,-5.84,-5.8443,-5.8486,-5.84,-5.8356,-5.8349,-5.8349,-5.8282,-5.8134,-5.8233,-5.8475,-5.8713,-5.8868,-5.8945,-5.8905,-5.8788,-5.8784,-5.8743,-5.8702,-5.8656,-5.8619,-5.8582,-5.8503,-5.8338,-5.8252,-5.812,-5.8039,-5.7855,-5.781,-5.7773,-5.7737,-5.7929,-5.812,-5.8312,-5.8083,-5.7913,-5.8011,-5.8062,-5.8062,-5.7946,-5.7946,-5.8016,-5.8053,-5.8122,-5.8153,-5.8258,-5.8443,-5.8443,-5.8443,-5.8443,-5.8486,-5.8529,-5.8614,-5.8614,-5.8619,-5.8619,-5.8656,-5.8656,-5.8656,-5.8739,-5.8945,-5.9063,-5.9178,-5.9178,-5.9178,-5.9178,-5.9178,-5.9178,-5.9178,-5.9177,-5.9177,-5.9177,-5.9213,-5.925,-5.9589,-6.0079,-5.9928,-5.9927,-5.9962,-6.0259,-6.0896,-6.1495,-6.206,-6.2694,-6.3327,-6.3769,-4.9476,-4.9452,-4.9327,-4.9375,-4.9566,-5.0131,-5.0956,-5.1894,-5.2519,-5.3262,-5.4048,-5.4163,-5.4127,-5.4055,-5.3982,-5.3907,-5.3793,-5.3676,-5.3931,-5.4448,-5.5397,-5.6012,-5.6669,-5.7508,-5.806,-5.8179,-5.8215,-5.8179,-5.826,-5.8179,-5.817,-5.8223,-5.8133,-5.8042,-5.7997,-5.7997,-5.7997,-5.7997,-5.8088,-5.8312,-5.8486,-5.8529,-5.8566,-5.8566,-5.8523,-5.8523,-5.8523,-5.848,-5.848,-5.848,-5.8393,-5.8268,-5.8133,-5.8079,-5.795,-5.7904,-5.7857,-5.7857,-5.7857,-5.7857,-5.7904,-5.7821,-5.7857,-5.781,-5.7867,-5.8133,-5.8268,-5.8223,-5.8179,-5.8179,-5.8179,-5.8179,-5.8133,-5.8133,-5.8088,-5.8088,-5.8088,-5.8088,-5.8088,-5.8133,-5.8179,-5.8179,-5.8179,-5.8179,-5.8179,-5.8179,-5.8179,-5.8179,-5.8223,-5.8319,-5.8535,-5.8661,-5.8821,-5.8821,-5.8862,-5.8825,-5.8865,-5.9017,-5.9014,-5.9014,-5.9054,-5.9462,-5.9909,-6.0404,-6.0708,-6.0486,-6.0338,-6.0453,-6.083,-6.1432,-6.1921,-6.2448,-6.2937,-6.354,-6.4103,-4.899,-4.9225,-4.9131,-4.9288,-4.9663,-5.0375,-5.1156,-5.1937,-5.2791,-5.3423,-5.3833,-5.3944,-5.3981,-5.387,-5.3757,-5.3678,-5.3598,-5.3437,-5.3543,-5.4128,-5.511,-5.5684,-5.6438,-5.7308,-5.7674,-5.7904,-5.7904,-5.7904,-5.8042,-5.795,-5.7857,-5.795,-5.7857,-5.7774,-5.7679,-5.7679,-5.7679,-5.7715,-5.7715,-5.7857,-5.8088,-5.8133,-5.8215,-5.826,-5.8215,-5.8133,-5.8088,-5.8088,-5.8042,-5.8042,-5.7914,-5.7867,-5.7821,-5.7726,-5.7679,-5.7631,-5.7619,-5.7619,-5.7534,-5.7534,-5.7583,-5.7583,-5.7583,-5.7667,-5.7534,-5.7774,-5.7857,-5.7857,-5.7821,-5.7821,-5.7821,-5.7821,-5.7821,-5.7821,-5.7821,-5.7857,-5.7857,-5.7857,-5.7821,-5.7821,-5.7821,-5.7821,-5.7821,-5.7904,-5.7857,-5.7821,-5.7857,-5.793,-5.7894,-5.8187,-5.8263,-5.8326,-5.8607,-5.8554,-5.8486,-5.8486,-5.8529,-5.864,-5.8905,-5.9467,-5.9838,-6.0178,-6.0635,-6.0976,-6.113,-6.0869,-6.0799,-6.092,-6.1338,-6.1943,-6.2395,-6.2888,-6.3297,-6.3634,-6.3984,-4.8418,-4.9057,-4.8925,-4.9228,-4.9861,-5.0601,-5.13,-5.2075,-5.2924,-5.333,-5.3481,-5.368,-5.3756,-5.3719,-5.3606,-5.3487,-5.3363,-5.3235,-5.3225,-5.3763,-5.4728,-5.545,-5.6134,-5.6853,-5.7364,-5.7583,-5.7583,-5.7631,-5.7679,-5.7583,-5.7534,-5.7571,-5.7534,-5.7534,-5.7534,-5.7571,-5.7534,-5.7486,-5.7486,-5.7571,-5.7631,-5.7774,-5.7904,-5.7904,-5.7857,-5.7774,-5.7763,-5.7715,-5.7619,-5.7583,-5.7594,-5.7583,-5.7534,-5.7498,-5.7486,-5.7437,-5.7437,-5.7437,-5.7388,-5.7473,-5.7486,-5.7534,-5.7534,-5.7486,-5.7388,-5.7388,-5.7522,-5.7486,-5.7534,-5.7534,-5.7534,-5.7534,-5.7534,-5.7534,-5.7534,-5.7534,-5.7534,-5.7534,-5.7534,-5.7534,-5.7571,-5.7571,-5.7571,-5.7571,-5.7607,-5.7607,-5.768,-5.768,-5.7862,-5.8336,-5.8689,-5.8665,-5.8798,-5.8647,-5.8272,-5.8428,-5.8538,-5.8804,-5.9181,-5.9964,-6.0646,-6.0958,-6.1189,-6.1328,-6.1411,-6.1345,-6.1352,-6.1478,-6.1937,-6.2433,-6.273,-6.3072,-6.3258,-6.3556,-6.3674,-4.8081,-4.8714,-4.8641,-4.8716,-4.8938,-4.9637,-5.0372,-5.1103,-5.1948,-5.261,-5.301,-5.3115,-5.3235,-5.34,-5.333,-5.3208,-5.3072,-5.298,-5.3405,-5.4018,-5.4692,-5.5374,-5.6091,-5.6891,-5.7328,-5.7437,-5.7437,-5.7486,-5.7486,-5.7388,-5.7338,-5.7437,-5.7338,-5.7289,-5.7289,-5.7289,-5.7289,-5.7338,-5.7289,-5.7338,-5.7388,-5.7486,-5.7631,-5.7631,-5.7667,-5.7631,-5.7667,-5.7619,-5.7583,-5.7534,-5.7486,-5.7388,-5.7338,-5.7338,-5.7289,-5.7289,-5.7338,-5.7289,-5.7289,-5.7289,-5.7338,-5.7338,-5.7338,-5.7338,-5.7239,-5.7239,-5.7289,-5.7289,-5.7338,-5.7338,-5.7338,-5.7338,-5.7338,-5.7338,-5.7338,-5.7338,-5.7338,-5.7338,-5.7338,-5.7375,-5.7447,-5.7484,-5.752,-5.7556,-5.7701,-5.781,-5.8173,-5.8246,-5.8355,-5.8704,-5.9103,-5.9081,-5.906,-5.8469,-5.7996,-5.864,-5.8908,-5.9091,-5.9505,-6.0504,-6.1235,-6.1634,-6.1855,-6.1956,-6.204,-6.2013,-6.2059,-6.2031,-6.2327,-6.2752,-6.3002,-6.3224,-6.3336,-6.3428,-6.3474]}]]